     2              OBSERVATION DATA    GPS                 RINEX VERSION / TYPE
TRRINEXO V2.8.4 LH                                          PGM / RUN BY / DATE
                                                            COMMENT
BIT 2 OF LLI (+4) FLAGS DATA COLLECTED UNDER "AS" CONDITION COMMENT
Original Marker Name: 0173                                  COMMENT
Campaign Name: coachelle valley 1990                        COMMENT
4-Character Station Name: 0173                              COMMENT
6-Character Antenna Code: TRMSST                            COMMENT
Vertical Measurement Point: TGP                             COMMENT
Vertical Offset to Rinex Ref. Point: 0.0629                 COMMENT
Radial Measurement Point: NGP                               COMMENT
Radial Offset to Rinex Ref. Point: 0.2334                   COMMENT
Antenna Height from Field Measurement: 1.3330 m             COMMENT
Original XYZ: -2369477.6890 -4734579.4254 3545613.9513      COMMENT
New XYZ position is based on association with SCEC monument COMMENT
E1D0W4M0+0011. Position of that monument is believed to be  COMMENT
valid to within 1 m horizontally; vertical accuracy         COMMENT
should be no worse than 3-times this value.                 COMMENT
                                                            COMMENT
Revised Rinex header created by UCSD GPS archive for        COMMENT
GSAC on 19-Apr-1999 (1999:109) 08:10:21 GMT                 COMMENT
For assistance contact dagnew@ucsd.edu or hjohnson@ucsd.edu COMMENT
                                                            COMMENT
MORONGO 1931                                                MARKER NAME
UNKNOWN OBSERVER RIVERSIDE COUNTY FCWCD                     OBSERVER / AGENCY
495 TRIMBLE 4000 SST 4.11 / 4.10                            REC # / TYPE / VERS
32 TR 4000SST L1/L2 GEO                                     ANT # / TYPE
 -2369478.0000 -4734585.0000  3545616.0000                  APPROX POSITION XYZ
        1.2495        0.0000        0.0000                  ANTENNA: DELTA H/E/N
     1     2     0                                          WAVELENGTH FACT L1/2
     3    C1    L1    L2                                    # / TYPES OF OBSERV
     0                                                      INTERVAL
  1990    10    12    15    23   30.000000                  TIME OF FIRST OBS
  1990    10    12    18    21   60.000000                  TIME OF LAST OBS
     0                                                      # OF SATELLITES
                                                            END OF HEADER
 90 10 12 15 23 30.0000000  0  4 12 13 06 09
  21459338.414          -0.42817
  21458535.797          -0.72017
  23586465.070          -0.80715
  21044553.234          -0.07316
 90 10 12 15 23 45.0000000  0  4 12 13 06 09
  21454149.000      -27267.735 7
  21462931.203       23088.035 7
  23596563.625       53036.975 5
  21049090.586       23868.037 6
 90 10 12 15 24  0.0000000  0  4 12 13 06 09
  21448982.695      -54408.802 7        -0.14212
  21467328.828       46213.980 7        -0.39512
  23606663.695      106126.315 5
  21053662.453       47876.066 6        -0.31312
 90 10 12 15 24 15.0000000  0  4 12 13 06 09
  21443840.102      -81430.495 7    -21056.003 2
  21471735.828       69369.822 7     18043.073 1
  23616777.500      159259.712 5        -0.47511
  21058256.641       72016.867 6     18810.667 2
 90 10 12 15 24 30.0000000  0  4 12 13 06 09
  21438721.023     -108332.916 7    -42018.942 2
  21476149.281       92554.811 7     36109.239 2
  23626894.047      212436.487 5     41435.850 1
  21062872.383       96289.709 6     37724.520 2
 90 10 12 15 24 45.0000000  0  4 12 13 06 09
  21433625.383     -135111.377 7    -62885.282 2
  21480566.750      115773.131 7     54201.385 1
  23637026.141      265660.620 5     82909.057 1
  21067519.430      120699.064 6     56744.762 2
 90 10 12 15 25  0.0000000  0  4 12 13 06 09
  21428552.602     -161767.017 7    -83655.926 2
  21484990.719      139022.892 7     72318.025 1
  23647160.820      318930.229 5    124417.717 1
  21072192.586      145242.884 6     75869.781 2
 90 10 12 15 25 15.0000000  0  4 12 13 06 09
  21423504.297     -188298.774 7   -104330.041 2
  21489421.313      162304.634 7     90459.589 1
  23657307.078      372245.746 5    165962.137 1
  21076886.969      169922.007 6     95100.229 2
 90 10 12 15 25 30.0000000  0  4 12 13 06 09
  21418479.141     -214706.250 7   -124907.308 2
  21493857.422      185618.492 7    108626.182 1
  23667460.250      425607.096 5    207542.279 1
  21081610.977      194736.353 6    114436.055 2
 90 10 12 15 25 45.0000000  0  4 12 13 06 09
  21413478.234     -240990.172 7   -145388.297 3
  21498300.219      208963.258 7    126816.852 2
  23677626.211      479012.835 5    249157.002 1
  21086358.805      219684.693 6    133876.281 2
 90 10 12 15 26  0.0000000  0  4 12 13 06 09
  21408499.992     -267152.459 7   -165774.497 3
  21502747.969      232336.560 7    145029.775 2
  23687795.227      532460.516 5    290804.418 1
  21091130.570      244764.795 6    153419.191 2
 90 10 12 15 26 15.0000000  0  4 12 13 06 09
  21403545.625     -293189.167 7   -186062.861 3
  21507203.570      255741.430 7    163267.279 2
  23697973.430      585953.392 5    332487.056 1
  21095926.805      269979.809 6    173067.211 2
 90 10 12 15 26 30.0000000  0  4 12 13 06 09
  21398612.648     -319105.161 7   -206257.157 2
  21511662.383      279172.595 7    181525.284 2
  23708164.563      639485.930 5    374200.567 1
  21100748.523      295324.499 6    192816.281 2
 90 10 12 15 26 45.0000000  0  4 12 13 06 09
  21393704.102     -344899.741 7   -226356.848 2
  21516124.359      302630.148 7    199803.843 2
  23718355.406      693058.260 5    415945.100 1
  21105599.711      320799.082 6    212666.563 2
 90 10 12 15 27  0.0000000  0  4 12 13 06 09
  21388819.602     -370569.545 7   -246359.303 2
  21520594.070      326117.070 7    218105.300 2
  23728557.070      746673.063 5    457722.736 1
  21110471.578      346406.487 6    232620.351 2
 90 10 12 15 27 15.0000000  0  4 12 13 06 09
  21383959.094     -396112.922 7   -266263.241 2
  21525070.406      349634.714 7    236430.689 2
  23738771.797      800331.496 5    499534.346 1
  21115368.188      372147.802 6    252678.486 2
 90 10 12 15 27 30.0000000  0  4 12 13 06 09
  21379122.273     -421532.916 7   -286071.030 2
  21529549.773      373179.301 7    254777.075 2
  23748989.820      854029.775 5    541377.023 1
  21120292.555      398019.609 6    272838.296 2
 90 10 12 15 27 45.0000000  0  4 12 13 06 09
  21374308.578     -446829.519 7   -305782.676 2
  21534033.242      396750.538 7    273144.219 2
  23759214.797      907767.444 5    583250.360 1
  21125240.719      424021.403 6    293099.396 2
 90 10 12 15 28  0.0000000  0  4 12 13 06 09
  21369518.922     -471997.007 7   -325393.704 3
  21538527.211      420353.705 7    291536.246 2
  23769451.234      961549.502 5    625158.324 1
  21130212.984      450158.583 6    313465.988 2
 90 10 12 15 28 15.0000000  0  4 12 13 06 09
  21364753.805     -497041.205 7   -344908.668 3
  21543022.516      443982.121 7    309947.950 2
  23779691.516     1015369.466 5    667095.801 1
  21135214.305      476424.441 6    333932.850 2
 90 10 12 15 28 30.0000000  0  4 12 13 06 09
  21360011.461     -521963.021 7   -364328.270 3
  21547524.438      467634.570 7    328378.374 1
  23789937.914     1069225.960 5    709061.760 1
  21140235.859      502817.976 6    354499.202 2
 90 10 12 15 28 45.0000000  0  4 12 13 06 09
  21355292.070     -546760.921 7   -383651.326 3
  21552031.289      491311.975 7    346828.253 2
  23800193.695     1123119.824 5    751056.837 1
  21145281.930      529340.158 6    375165.798 2
 90 10 12 15 29  0.0000000  0  4 12 13 06 09
  21350597.211     -571431.084 7   -402874.851 3
  21556541.938      515017.974 7    365300.404 2
  23810458.609     1177054.220 5    793083.484 1
  21150353.055      555994.231 6    395935.164 2
 90 10 12 15 29 15.0000000  0  4 12 13 06 09
  21345924.922     -595978.543 7   -422002.769 3
  21561057.547      538747.071 7    383790.563 1
  23820724.828     1231023.542 5    835137.377 1
  21155449.477      582774.663 6    416802.990 2
 90 10 12 15 29 30.0000000  0  4 12 13 06 09
  21341278.227     -620400.076 7   -441032.559 3
  21565577.516      562501.899 7    402300.764 1
  23831007.117     1285030.408 5    877220.484 1
  21160569.492      609684.155 6    437771.381 2
 90 10 12 15 29 45.0000000  0  4 12 13 06 09
  21336655.906     -644695.694 7   -459964.237 3
  21570102.742      586281.908 7    420830.592 1
  23841290.953     1339074.235 5    919332.413 1
  21165716.938      636722.376 6    458840.079 2
 90 10 12 15 30  0.0000000  0  4 12 13 06 09
  21332056.742     -668862.385 7   -478795.440 2
  21574632.469      610089.575 7    439381.970 1
  23851582.445     1393157.434 5    961475.001 1
  21170888.063      663891.830 6    480011.037 2
 90 10 12 15 30 15.0000000  0  4 12 13 06 09
  21327482.414     -692904.173 7   -497529.308 2
  21579168.328      633920.600 7    457951.552 1
  23861880.500     1447275.435 5   1003644.715 1
  21176081.305      691188.031 6    501280.761 2
 90 10 12 15 30 30.0000000  0  4 12 13 06 09
  21322931.180     -716820.463 7   -516165.384 2
  21583707.531      657775.083 7    476539.406 1
  23872185.641     1501428.138 5   1045841.477 1
  21181297.531      718611.142 6    522649.373 2
 90 10 12 15 30 45.0000000  0  4 12 13 06 09
  21318404.609     -740611.670 7   -534703.987 2
  21588250.625      681651.886 7    495144.659 2
  23882498.969     1555614.501 5   1088064.453 1
  21186544.148      746160.105 6    544116.053 2
 90 10 12 15 31  0.0000000  0  4 12 13 06 09
  21313900.531     -764277.386 7   -553144.815 3
  21592800.758      705551.036 7    513767.316 1
  23892815.703     1609834.318 5   1130313.498 1
  21191806.813      773834.835 6    565680.732 2
 90 10 12 15 31 15.0000000  0  4 12 13 06 09
  21309420.148     -787817.836 7   -571488.040 3
  21597349.570      729471.821 7    532406.837 1
  23903139.320     1664086.791 5   1172587.994 1
  21197100.375      801634.603 6    587342.845 2
 90 10 12 15 31 30.0000000  0  4 12 13 06 09
  21304965.820     -811231.215 7   -589732.258 3
  21601908.766      753415.478 7    551064.186 2
  23913469.367     1718373.129 5   1214888.889 1
  21202411.641      829560.788 7    609103.464 2
 90 10 12 15 31 45.0000000  0  4 12 13 06 09
  21300531.422     -834517.551 7   -607877.487 3
  21606468.125      777381.722 7    569739.129 2
  23923806.711     1772692.666 5   1257215.642 1
  21207751.813      857612.939 7    630962.237 2
 90 10 12 15 32  0.0000000  0  4 12 13 06 09
  21296126.766     -857672.193 7   -625920.101 3
  21611032.508      801374.588 7    588434.823 1
  23934152.414     1827049.397 5   1299571.371 1
  21213114.438      885795.094 7    652922.310 2
 90 10 12 15 32 15.0000000  0  4 12 13 06 09
  21291752.484     -880659.290 7   -643832.156 3
  21615611.305      825429.390 7    607178.769 1
  23944506.055     1881478.729 5   1341983.666 1
  21218507.281      914142.643 7    675011.265 2
 90 10 12 15 32 30.0000000  0  4 12 13 06 09
  21287404.000     -903516.143 7   -661642.713 3
  21620195.664      849508.609 7    625941.736 1
  23954871.055     1935942.736 5   1384422.990 1
  21223925.000      942617.873 7    697199.708 2
 90 10 12 15 32 45.0000000  0  4 12 13 06 09
  21283130.227     -925978.744 7   -679146.050 3
  21624831.383      873875.641 7    644928.973 1
  23965291.102     1990704.881 5   1427094.625 1
  21229417.688      971484.485 7    719693.128 2
 90 10 12 15 33  0.0000000  0  4 12 13 06 09
  21278899.703     -948209.919 7   -696469.053 2
  21629492.297      898367.024 7    664013.116 1
  23975739.758     2045601.661 5   1469871.180 1
  21234955.797     1000578.865 7    742364.029 3
 90 10 12 15 33 15.0000000  0  4 12 13 06 09
  21274694.758     -970304.717 7   -713685.786 2
  21634158.383      922887.390 7    683119.840 1
  23986191.258     2100537.386 5   1512678.073 1
  21240515.367     1029805.640 7    765138.092 3
 90 10 12 15 33 30.0000000  0  4 12 13 06 09
  21270520.742     -992238.518 7   -730777.065 2
  21638835.750      947460.812 7    702267.926 1
  23996660.711     2155536.081 5   1555534.047 1
  21246107.242     1059188.795 7    788034.009 3
 90 10 12 15 33 45.0000000  0  4 12 13 06 09
  21266368.227    -1014056.662 7   -747778.230 2
  21643510.664      972041.531 7    721421.687 1
  24007129.313     2210551.745 5   1598403.221 1
  21251722.438     1088682.509 7    811016.070 3
 90 10 12 15 34  0.0000000  0  4 12 13 06 09
  21262243.164    -1035729.494 7   -764666.168 2
  21648195.211      996658.863 7    740603.977 1
  24017607.328     2265613.436 5   1641308.271 1
  21257362.891     1118315.883 7    834106.965 3
 90 10 12 15 34 15.0000000  0  4 12 13 06 09
  21258151.258    -1057240.497 7   -781428.010 3
  21652891.609     1021328.874 7    759827.310 1
  24028096.836     2320737.247 5   1684261.725 1
  21263028.859     1148105.017 7    857319.232 3
 90 10 12 15 34 30.0000000  0  4 12 13 06 09
  21254082.750    -1078614.680 7   -798083.249 3
  21657589.758     1046025.940 7    779071.720 1
  24038594.914     2375897.365 5   1727243.455 1
  21268724.820     1178024.480 7    880633.053 3
 90 10 12 15 34 45.0000000  0  4 12 13 06 09
  21250041.250    -1099854.098 7   -814633.468 3
  21662294.992     1070747.579 7    798335.276 1
  24049100.445     2431091.347 5   1770251.588 1
  21274440.883     1208071.637 7    904046.378 3
 90 10 12 15 35  0.0000000  0  4 12 13 06 09
  21246026.930    -1120958.169 7   -831078.224 3
  21667002.727     1095494.023 7    817618.161 1
  24059606.125     2486319.159 5   1813286.084 1
  21280182.992     1238246.714 7    927559.376 3
 90 10 12 15 35 15.0000000  0  4 12 13 06 09
  21242036.000    -1141930.277 7   -847420.145 3
  21671717.234     1120261.402 7    836917.357 1
  24070122.422     2541576.697 5   1856343.737 1
  21285948.438     1268545.719 7    951168.937 3
 90 10 12 15 35 30.0000000  0  4 12 13 06 09
  21238068.875    -1162767.844 7   -863657.231 3
  21676433.102     1145051.898 7    856234.577 1
  24080641.695     2596866.175 5   1899426.278 1
  21291741.164     1298970.781 7    974876.732 3
 90 10 12 15 35 45.0000000  0  4 12 13 06 09
  21234131.344    -1183466.423 7   -879786.011 3
  21681156.648     1169869.362 7    875572.805 2
  24091171.203     2652191.322 5   1942536.624 1
  21297554.016     1329526.070 7    998686.000 3
 90 10 12 15 36  0.0000000  0  4 12 13 06 09
  21230217.930    -1204025.893 7   -895806.392 2
  21685885.383     1194713.664 7    894931.949 2
  24101708.383     2707551.876 5   1985674.534 1
  21303391.336     1360211.026 7   1022596.308 3
 90 10 12 15 36 15.0000000  0  4 12 13 06 09
  21226331.742    -1224447.384 7   -911719.261 2
  21690618.789     1219583.315 7    914310.843 1
  24112249.367     2762945.979 5   2028838.616 1
  21309254.531     1391024.143 7   1046606.480 3
 90 10 12 15 36 30.0000000  0  4 12 13 06 09
  21222473.383    -1244731.724 7   -927525.255 2
  21695354.719     1244476.934 7    933708.418 1
  24122795.445     2818372.303 5   2072027.777 1
  21315142.992     1421964.077 7   1070715.466 3
 90 10 12 15 36 45.0000000  0  4 12 13 06 09
  21218636.453    -1264888.155 7   -943231.591 2
  21700095.117     1269384.876 7    953117.144 1
  24133348.188     2873820.896 5   2115234.280 1
  21321054.023     1453021.054 7   1094915.660 4
 90 10 12 15 37  0.0000000  0  4 12 13 06 09
  21214826.703    -1284912.866 7   -958835.277 2
  21704837.242     1294310.530 7    972539.676 1
  24143901.734     2929295.089 5   2158460.750 1
  21326986.648     1484198.362 7   1119209.614 4
 90 10 12 15 37 15.0000000  0  4 12 13 06 09
  21211041.109    -1304809.138 7   -974338.882 3
  21709583.000     1319250.175 7    991973.107 1
  24154463.227     2984790.965 5   2201704.100 1
  21332940.445     1515492.258 7   1143594.420 4
 90 10 12 15 37 30.0000000  0  4 12 13 06 09
  21207282.500    -1324559.228 7   -989728.578 3
  21714334.414     1344221.013 7   1011430.851 1
  24165029.148     3040325.711 4   2244977.740 1
  21338921.609     1546919.898 7   1168083.439 4
 90 10 12 15 37 45.0000000  0  4 12 13 06 09
  21203549.805    -1344175.798 7  -1005014.233 3
  21719088.484     1369209.994 7   1030902.725 1
  24175604.070     3095886.041 4   2288271.342 1
  21344926.203     1578468.300 7   1192666.557 4
 90 10 12 15 38  0.0000000  0  4 12 13 06 09
  21199843.203    -1363657.121 7  -1020194.503 3
  21723848.852     1394218.405 7   1050389.741 1
  24186182.750     3151473.194 5   2331585.814 1
  21350952.750     1610138.695 7   1217344.735 4
 90 10 12 15 38 15.0000000  0  4 12 13 06 09
  21196159.992    -1383002.791 7  -1035269.071 3
  21728611.852     1419246.432 7   1069892.048 1
  24196765.484     3207087.070 5   2374921.153 1
  21357001.375     1641931.020 7   1242117.924 4
 90 10 12 15 38 30.0000000  0  4 12 13 06 09
  21192505.227    -1402211.767 7  -1050237.115 3
  21733378.000     1444294.657 7   1089410.095 1
  24207356.172     3262728.125 5   2418277.623 1
  21363076.359     1673845.783 7   1266986.526 4
 90 10 12 15 38 45.0000000  0  4 12 13 06 09
  21188875.484    -1421289.060 7  -1065102.561 3
  21738148.227     1469357.581 7   1108939.591 1
  24217942.641     3318390.817 5   2461650.973 1
  21369170.547     1705877.547 7   1291946.291 4
 90 10 12 15 39  0.0000000  0  4 12 13 06 09
  21185269.148    -1440234.590 7  -1079865.331 3
  21742920.047     1494434.847 7   1128480.254 1
  24228542.031     3374074.537 5   2505040.702 1
  21375288.844     1738025.910 7   1316996.911 4
 90 10 12 15 39 15.0000000  0  4 12 13 06 09
  21181688.617    -1459053.358 7  -1094529.326 2
  21747693.453     1519520.801 7   1148027.687 1
  24239145.102     3429773.751 5   2548442.509 1
  21381428.797     1770285.313 6   1342134.056 4
 90 10 12 15 39 30.0000000  0  4 12 13 06 09
  21178132.906    -1477739.442 7  -1109089.922 2
  21752470.906     1544621.055 7   1167586.256 1
  24249748.734     3485493.869 5   2591860.590 1
  21387586.766     1802661.204 6   1367361.971 4
 90 10 12 15 39 45.0000000  0  4 12 13 06 09
  21174604.172    -1496290.311 7  -1123545.161 3
  21757250.492     1569737.879 7   1187157.745 1
  24260355.406     3541236.838 5   2635296.477 1
  21393771.102     1835155.697 6   1392682.309 4
 90 10 12 15 40  0.0000000  0  4 12 13 06 09
  21171099.672    -1514701.131 7  -1137891.263 3
  21762034.109     1594875.638 7   1206745.543 1
  24270968.688     3597006.957 5   2678753.505 1
  21399978.344     1867773.018 6   1418098.355 4
 90 10 12 15 40 15.0000000  0  4 12 13 06 09
  21167622.766    -1532971.798 7  -1152128.156 3
  21766821.977     1620034.032 7   1226349.431 1
  24281581.914     3652803.711 5   2722231.326 1
  21406209.883     1900512.946 6   1443609.940 3
 90 10 12 15 40 30.0000000  0  4 12 13 06 09
  21164172.047    -1551107.828 7  -1166260.140 3
  21771611.813     1645207.395 7   1245964.980 1
  24292206.852     3708621.069 5   2765725.175 1
  21412461.164     1933369.348 6   1469212.287 3
 90 10 12 15 40 45.0000000  0  4 12 13 06 09
  21160746.937    -1569104.800 7  -1180283.772 3
  21776406.234     1670399.581 7   1265595.186 1
  24302829.836     3764462.968 5   2809238.164 1
  21418737.602     1966346.295 6   1494908.558 3
 90 10 12 15 41  0.0000000  0  4 12 13 06 09
  21157345.859    -1586969.026 7  -1194203.964 3
  21781202.156     1695603.843 7   1285234.820 1
  24313464.172     3820322.397 5   2852764.801 1
  21425032.391     1999436.803 6   1520693.320 3
 90 10 12 15 41 15.0000000  0  4 12 13 06 09
  21153973.336    -1604695.752 7  -1208017.021 3
  21786001.188     1720824.558 7   1304887.266 1
  24324093.742     3876203.745 5   2896308.524 1
  21431353.250     2032645.364 6   1546570.074 3
 90 10 12 15 41 30.0000000  0  4 12 13 06 09
  21150626.531    -1622288.353 7  -1221725.570 3
  21790802.797     1746057.964 7   1324549.602 1
  24334732.672     3932103.114 5   2939866.288 1
  21437695.086     2065968.095 6   1572535.784 3
 90 10 12 15 41 45.0000000  0  4 12 13 06 09
  21147304.641    -1639741.373 7  -1235325.350 3
  21795606.938     1771309.059 7   1344225.721 1
  24345375.625     3988025.138 5   2983441.688 1
  21444059.617     2099409.943 6   1598594.318 3
 90 10 12 15 42  0.0000000  0  4 12 13 06 09
  21144010.375    -1657057.334 7  -1248818.329 3
  21800415.758     1796575.056 7   1363913.457 1
  24356019.469     4043966.840 4   3027032.428 1
  21450443.594     2132967.672 6   1624743.154 3
 90 10 12 15 42 15.0000000  0  4 12 13 06 09
  21140740.375    -1674239.930 7  -1262207.391 3
  21805226.852     1821851.586 7   1383609.401 1
  24366665.641     4099924.092 4   3070635.292 1
  21456853.281     2166637.485 6   1650979.321 3
 90 10 12 15 42 30.0000000  0  4 12 13 06 09
  21137496.023    -1691289.030 7  -1275492.419 3
  21810037.539     1847138.521 7   1403313.450 1
  24377318.180     4155896.520 4   3114249.976 1
  21463278.766     2200418.800 6   1677302.367 3
 90 10 12 15 42 45.0000000  0  4 12 13 06 09
  21134278.398    -1708201.366 7  -1288670.882 3
  21814852.594     1872439.003 7   1423028.051 1
  24387973.813     4211886.707 4   3157878.486 1
  21469730.391     2234314.566 6   1703714.594 3
 90 10 12 15 43  0.0000000  0  4 12 13 06 09
  21131085.367    -1724975.227 7  -1301741.433 3
  21819670.258     1897754.220 7   1442754.128 1
  24398634.727     4267895.881 4   3201521.778 1
  21476199.320     2268325.853 6   1730216.843 2
 90 10 12 15 43 15.0000000  0  4 12 13 06 09
  21127920.906    -1741610.675 7  -1314704.137 3
  21824489.867     1923083.531 7   1462491.194 1
  24409296.734     4323923.461 4   3245179.438 1
  21482695.867     2302452.238 6   1756808.780 2
 90 10 12 15 43 30.0000000  0  4 12 13 06 09
  21124779.891    -1758111.954 7  -1327562.294 3
  21829312.594     1948422.624 7   1482235.875 1
  24419958.750     4379964.680 5   3288847.691 1
  21489211.703     2336688.886 6   1783486.635 2
 90 10 12 15 43 45.0000000  0  4 12 13 06 09
  21121664.438    -1774480.276 7  -1340316.850 3
  21834134.492     1973769.604 7   1501986.710 1
  24430629.625     4436017.767 5   3332525.227 1
  21495747.203     2371034.149 6   1810249.113 2
 90 10 12 15 44  0.0000000  0  4 12 13 06 09
  21118575.313    -1790714.053 7  -1352966.562 3
  21838960.242     1999125.928 7   1521744.827 1
  24441295.609     4492083.926 5   3376212.954 1
  21502305.539     2405489.168 6   1837097.124 2
 90 10 12 15 44 15.0000000  0  4 12 13 06 09
  21115513.914    -1806808.649 7  -1365507.825 3
  21843788.422     2024495.786 7   1541513.495 1
  24451969.563     4548167.049 4   3419913.893 1
  21508883.719     2440058.116 6   1864033.903 2
 90 10 12 15 44 30.0000000  0  4 12 13 06 09
  21112479.227    -1822759.207 7  -1377936.850 3
  21848619.445     2049883.767 7   1561296.283 1
  24462644.141     4604271.526 4   3463631.434 1
  21515483.211     2474745.361 6   1891062.863 2
 90 10 12 15 44 45.0000000  0  4 12 13 06 09
  21109468.273    -1838573.543 7  -1390259.782 3
  21853451.492     2075281.598 7   1581086.695 1
  24473320.313     4660389.046 4   3507359.143 1
  21522104.406     2509542.545 6   1918177.465 2
 90 10 12 15 45  0.0000000  0  4 12 13 06 09
  21106486.289    -1854250.272 7  -1402475.445 3
  21858287.398     2100690.100 7   1600885.469 1
  24484002.234     4716520.371 4   3551097.613 1
  21528747.461     2544450.566 6   1945378.433 2
 90 10 12 15 45 15.0000000  0  4 12 13 06 09
  21103528.000    -1869790.200 7  -1414584.485 3
  21863124.375     2126108.174 7   1620691.711 1
  24494688.812     4772663.972 4   3594845.652 1
  21535410.578     2579468.141 6   1972664.800 2
 90 10 12 15 45 30.0000000  0  4 12 13 06 09
  21100597.648    -1885191.727 7  -1426585.691 3
  21867961.578     2151537.141 7   1640506.439 1
  24505377.047     4828821.289 4   3638604.401 1
  21542094.008     2614596.526 6   2000037.507 2
 90 10 12 15 45 45.0000000  0  4 12 13 06 09
  21097691.969    -1900460.478 7  -1438483.434 3
  21872802.680     2176971.069 7   1660325.033 1
  24516066.852     4884986.285 4   3682369.101 1
  21548799.055     2649829.639 6   2027491.816 2
 90 10 12 15 46  0.0000000  0  4 12 13 06 09
  21094812.891    -1915589.664 7  -1450272.423 3
  21877645.867     2202416.575 7   1680152.634 1
  24526751.414     4941165.109 4   3726144.540 1
  21555525.461     2685173.819 6   2055032.677 2
 90 10 12 15 46 15.0000000  0  4 12 13 06 09
  21091961.477    -1930576.549 7  -1461950.533 3
  21882490.000     2227875.930 7   1699991.034 1
  24537446.031     4997359.910 4   3769932.494 1
  21562274.289     2720631.290 6   2082661.816 2
 90 10 12 15 46 30.0000000  0  4 12 13 06 09
  21089135.234    -1945428.083 7  -1473523.170 3
  21887337.547     2253341.751 7   1719834.472 1
  24548145.875     5053563.160 4   3813726.980 1
  21569041.172     2756194.620 6   2110373.442 2
 90 10 12 15 46 45.0000000  0  4 12 13 06 09
  21086334.242    -1960144.804 7  -1484990.758 3
  21892183.906     2278813.268 7   1739682.360 1
  24558840.734     5109774.035 4   3857527.427 1
  21575828.289     2791862.856 6   2138166.812 2
 90 10 12 15 47  0.0000000  0  4 12 13 06 09
  21083560.859    -1974720.495 7  -1496348.456 3
  21897032.234     2304296.330 7   1759539.243 1
  24569537.000     5165998.069 3   3901338.142 1
  21582638.367     2827641.643 6   2166046.330 2
 90 10 12 15 47 15.0000000  0  4 12 13 06 09
  21080813.188    -1989159.208 7  -1507599.418 3
  21901884.203     2329786.542 7   1779401.696 1
  24580237.875     5222230.630 3   3945155.527 1
  21589465.703     2863526.501 6   2194008.492 2
 90 10 12 15 47 30.0000000  0  4 12 13 06 09
  21078092.625    -2003454.156 7  -1518738.356 2
  21906736.836     2355290.074 7   1799274.521 1
  24590948.008     5278477.891 3   3988984.328 1
  21596314.867     2899523.629 6   2222058.152 2
 90 10 12 15 47 45.0000000  0  4 12 13 06 09
  21075398.477    -2017609.148 7  -1529768.232 3
  21911591.641     2380803.057 7   1819154.694 1
  24601648.969     5334735.867 3   4032821.532 1
  21603186.320     2935628.820 6   2250192.019 2
 90 10 12 15 48  0.0000000  0  4 12 13 06 09
  21072732.914    -2031624.348 8  -1540689.185 3
  21916448.680     2406324.775 7   1839041.684 1
  24612357.344     5391003.716 3   4076666.368 1
  21610078.297     2971841.520 6   2278409.650 2
 90 10 12 15 48 15.0000000  0  4 12 13 06 09
  21070091.180    -2045503.457 8  -1551504.091 3
  21921307.164     2431851.429 7   1858932.526 1
  24623068.461     5447277.251 4   4120515.678 1
  21616987.836     3008157.680 6   2306707.897 2
 90 10 12 15 48 30.0000000  0  4 12 13 06 09
  21067476.070    -2059241.821 8  -1562209.330 3
  21926165.805     2457387.334 7   1878830.573 1
  24633776.008     5503560.797 4   4164372.728 1
  21623917.898     3044581.325 6   2335089.901 3
 90 10 12 15 48 45.0000000  0  4 12 13 06 09
  21064891.320    -2072833.839 8  -1572800.533 3
  21931026.742     2482937.746 7   1898739.923 1
  24644491.367     5559859.426 4   4208241.546 1
  21630870.969     3081117.656 6   2363559.723 2
 90 10 12 15 49  0.0000000  0  4 12 13 06 09
  21062331.523    -2086283.581 8  -1583280.873 3
  21935892.188     2508498.337 7   1918657.216 1
  24655211.586     5616168.373 4   4252118.426 1
  21637843.672     3117761.995 6   2392113.707 2
 90 10 12 15 49 15.0000000  0  4 12 13 06 09
  21059798.859    -2099592.762 7  -1593651.686 3
  21940756.617     2534066.907 7   1938580.721 1
  24665920.109     5672485.404 4   4296001.567 1
  21644838.781     3154512.219 6   2420750.194 2
 90 10 12 15 49 30.0000000  0  4 12 13 06 09
  21057292.609    -2112764.824 7  -1603915.658 3
  21945623.695     2559639.624 7   1958507.463 1
  24676635.031     5728806.688 3   4339888.048 1
  21651851.477     3191364.564 6   2449466.247 2
 90 10 12 15 49 45.0000000  0  4 12 13 06 09
  21054811.086    -2125800.173 7  -1614073.096 3
  21950490.141     2585215.936 7   1978436.996 1
  24687358.789     5785131.303 4   4383777.144 1
  21658884.563     3228318.040 6   2478261.107 2
 90 10 12 15 50  0.0000000  0  4 12 13 06 09
  21052357.453    -2138693.155 7  -1624119.604 2
  21955358.688     2610801.089 7   1998373.417 1
  24698080.648     5841464.336 4   4427672.758 1
  21665936.711     3265377.805 6   2507138.796 2
 90 10 12 15 50 15.0000000  0  4 12 13 06 09
  21049929.773    -2151448.114 7  -1634058.556 2
  21960228.461     2636390.520 7   2018313.159 1
  24708799.695     5897801.158 4   4471571.367 1
  21673007.719     3302539.121 6   2536095.616 2
 90 10 12 15 50 30.0000000  0  4 12 13 06 09
  21047528.367    -2164069.305 7  -1643893.268 2
  21965098.047     2661979.478 7   2038252.543 1
  24719526.781     5954137.023 4   4515469.185 1
  21680096.180     3339797.371 6   2565127.958 2
 90 10 12 15 50 45.0000000  0  4 12 13 06 09
  21045155.813    -2176545.642 7  -1653615.105 2
  21969970.406     2687578.834 7   2058200.028 1
  24730247.531     6010482.309 4   4559374.366 1
  21687207.156     3377163.001 6   2594243.971 2
 90 10 12 15 51  0.0000000  0  4 12 13 06 09
  21042806.398    -2188884.864 8  -1663230.100 2
  21974841.867     2713180.429 7   2078149.271 1
  24740965.758     6066829.129 3   4603280.738 1
  21694335.437     3414627.820 6   2623437.276 2
 90 10 12 15 51 15.0000000  0  4 12 13 06 09
  21040485.406    -2201085.270 8  -1672736.924 2
  21979714.914     2738785.823 7   2098101.476 1
  24751688.938     6123178.279 3   4647188.884 1
  21701484.391     3452193.111 6   2652708.871 2
 90 10 12 15 51 30.0000000  0  4 12 13 06 09
  21038191.961    -2213139.152 8  -1682129.572 3
  21984588.047     2764402.302 7   2118062.316 1
  24762408.383     6179537.065 3   4691104.559 1
  21708654.617     3489866.212 6   2682064.470 2
 90 10 12 15 51 45.0000000  0  4 12 13 06 09
  21035925.023    -2225053.633 8  -1691413.601 3
  21989463.539     2790022.628 7   2138026.148 1
  24773136.281     6235898.049 2   4735021.975 1
  21715843.109     3527639.596 6   2711498.207 2
 90 10 12 15 52  0.0000000  0  4 12 13 06 09
  21033684.055    -2236829.747 7  -1700589.810 3
  21994339.773     2815645.231 7   2157991.747 1
  24783861.055     6292259.822 2   4778939.987 1
  21723050.641     3565511.531 6   2741008.742 2
 90 10 12 15 52 15.0000000  0  5 12 13 06 09 20
  21031470.211    -2248463.881 7  -1709655.394 3
  21999217.797     2841273.593 7   2177961.836 1
  24794589.141     6348625.402 2   4822860.931 1
  21730276.570     3603485.353 6   2770598.662 2
  24740966.617          -0.18814
 90 10 12 15 52 30.0000000  0  5 12 13 06 09 20
  21029282.156    -2259960.087 7  -1718613.503 3
  22004094.711     2866903.485 7   2197933.113 1
  24805315.977     6404990.128 3   4866781.252 1
  21737520.953     3641556.595 6   2800264.494 2
  24730546.313      -54751.596 5
 90 10 12 15 52 45.0000000  0  5 12 13 06 09 20
  21027121.461    -2271313.274 7  -1727460.176 3
  22008972.469     2892539.571 7   2217909.209 1
  24816039.453     6461358.753 3   4910704.636 1
  21744785.930     3679729.837 6   2830009.804 1
  24720118.586     -109525.214 5
 90 10 12 15 53  0.0000000  0  5 12 13 06 09 20
  21024986.969    -2282528.435 7  -1736199.296 3
  22013851.891     2918176.577 7   2237886.027 1
  24826768.680     6517725.911 3   4954626.825 1
  21752069.227     3717999.565 6   2859830.304 1
  24709694.719     -164325.888 5
 90 10 12 15 53 15.0000000  0  5 12 13 06 09 20
  21022882.992    -2293590.398 7  -1744819.038 3
  22018733.352     2943829.267 7   2257875.078 1
  24837498.625     6574106.277 2   4998559.303 1
  21759370.961     3756380.619 6   2889737.550 1
  24699261.203     -219138.583 5
 90 10 12 15 53 30.0000000  0  5 12 13 06 09 20
  21020805.266    -2304507.205 7  -1753325.668 3
  22023616.664     2969489.606 7   2277870.074 1
  24848221.367     6630491.201 2   5042495.312 1
  21766695.852     3794864.408 6   2919724.848 1
  24688827.352     -273971.055 5        -0.09611
 90 10 12 15 53 45.0000000  0  5 12 13 06 09 20
  21018754.469    -2315288.035 7  -1761726.334 3
  22028499.461     2995147.946 7   2297863.521 1
  24858951.320     6686871.056 2   5086427.429 1
  21774036.625     3833441.302 6   2949784.693 1
  24678391.453     -328832.489 5    -42749.310 1
 90 10 12 15 54  0.0000000  0  5 12 13 06 09 20
  21016730.523    -2325921.797 8  -1770012.400 2
  22033384.086     3020815.127 7   2317863.849 1
  24869681.516     6743256.350 2   5130363.756 1
  21781395.727     3872122.020 6   2979925.440 1
  24667947.891     -383711.830 5
 90 10 12 15 54 15.0000000  0  4 12 13 09 20
  21014734.281    -2336413.623 8  -1778187.859 2
  22038268.031     3046485.567 7   2337866.715 1
  21788774.906     3910900.700 6   3010142.526 1
  24657499.359     -438613.927 5
 90 10 12 15 54 30.0000000  0  4 12 13 09 20
  21012763.313    -2346766.823 8  -1786255.297 2
  22043153.820     3072155.676 7   2357869.329 1
  21796173.828     3949773.942 6   3040433.298 1
  24647051.383     -493542.067 5
 90 10 12 15 54 45.0000000  0  4 12 13 09 20
  21010822.594    -2356965.127 8  -1794202.036 2
  22048040.984     3097841.764 7   2377884.391 1
  21803590.398     3988757.513 6   3070810.037 2
  24636595.484     -548479.974 5        -0.37911
 90 10 12 15 55  0.0000000  0  4 12 13 09 20
  21008910.203    -2367016.727 8  -1802034.461 3
  22052929.469     3123535.080 7   2397905.078 1
  21811028.828     4027842.674 6   3101265.938 2
  24626134.484     -603435.854 5    -42823.172 1
 90 10 12 15 55 15.0000000  0  4 12 13 09 20
  21007024.211    -2376926.689 7  -1809756.529 3
  22057819.883     3149230.478 7   2417927.390 1
  21818485.563     4067024.040 6   3131796.806 2
  24615673.797     -658414.445 5    -85663.696 1
 90 10 12 15 55 30.0000000  0  4 12 13 09 20
  21005167.188    -2386685.538 7  -1817360.852 3
  22062710.602     3174936.849 7   2437958.258 1
  21825960.289     4106310.406 6   3162409.491 2
  24605211.922     -713406.443 5   -128514.659 1
 90 10 12 15 55 45.0000000  0  4 12 13 09 20
  21003338.438    -2396300.463 7  -1824853.032 3
  22067604.867     3200646.941 7   2457992.018 1
  21833454.617     4145694.230 6   3193098.116 2
  24594741.453     -768418.990 5   -171381.614 1
 90 10 12 15 56  0.0000000  0  4 12 13 09 20
  21001535.398    -2405768.323 7  -1832230.625 3
  22072499.156     3226363.696 7   2478030.963 1
  21840969.250     4185178.249 6   3223864.813 2
  24584268.703     -823448.797 5   -214262.042 1
 90 10 12 15 56 15.0000000  0  4 12 13 09 20
  20999761.406    -2415094.072 7  -1839497.478 3
  22077392.930     3252081.976 7   2498071.097 1
  21848500.180     4224757.018 6   3254705.346 2
  24573796.109     -878500.648 5   -257159.663 1
 90 10 12 15 56 30.0000000  0  4 12 13 09 20
  20998013.430    -2424278.834 7  -1846654.466 3
  22082285.570     3277800.195 7   2518111.181 1
  21856052.016     4264429.120 6   3285618.604 2
  24563317.789     -933575.514 5   -300075.154 1
 90 10 12 15 56 45.0000000  0  4 12 13 09 20
  20996293.109    -2433318.529 7  -1853698.412 3
  22087180.867     3303522.439 7   2538154.412 1
  21863618.945     4304198.280 6   3316607.490 2
  24552828.508     -988669.177 5
 90 10 12 15 57  0.0000000  0  4 12 13 09 20
  20994600.391    -2442219.171 8  -1860634.001 3
  22092075.922     3329242.363 7   2558195.826 1
  21871202.414     4344057.935 6   3347666.887 1
  24542336.109    -1043787.771 4
 90 10 12 15 57 15.0000000  0  4 12 13 09 20
  20992935.953    -2450971.407 8  -1867453.942 3
  22096971.555     3354969.087 7   2578242.544 1
  21878808.836     4384016.922 6   3378803.690 2
  24531845.383    -1098921.951 5
 90 10 12 15 57 30.0000000  0  4 12 13 09 20
  20991298.039    -2459574.430 8  -1874157.611 3
  22101868.508     3380703.059 7   2598294.916 1
  21886431.367     4424075.717 6   3410018.268 2
  24521354.922    -1154070.635 5        -0.22311
 90 10 12 15 57 45.0000000  0  4 12 13 09 20
  20989689.617    -2468028.968 8  -1880745.569 3
  22106765.719     3406443.405 7   2618352.252 1
  21894072.141     4464233.050 6   3441309.622 2
  24510860.227    -1209234.211 5
 90 10 12 15 58  0.0000000  0  4 12 13 09 20
  20988106.500    -2476340.704 8  -1887222.253 2
  22111664.359     3432184.563 7   2638410.214 1
  21901732.781     4504482.962 6   3472673.120 1
  24500353.406    -1264418.238 5
 90 10 12 15 58 15.0000000  0  4 12 13 09 20
  20986553.586    -2484505.454 8  -1893584.404 2
  22116565.102     3457930.140 7   2658471.619 1
  21909408.648     4544829.105 6   3504111.594 1
  24489852.406    -1319618.651 5        -0.32911
 90 10 12 15 58 30.0000000  0  4 12 13 09 20
  20985026.477    -2492521.669 7  -1899830.815 2
  22121463.883     3483681.145 7   2678537.256 1
  21917105.719     4585272.519 6   3535625.871 1
  24479346.281    -1374833.983 5    -43025.319 1
 90 10 12 15 58 45.0000000  0  4 12 13 09 20
  20983530.648    -2500383.336 7  -1905956.801 3
  22126367.063     3509443.768 7   2698611.956 1
  21924820.625     4625818.953 6   3567220.422 1
  24468832.234    -1430057.917 4    -86056.962 1
 90 10 12 15 59  0.0000000  0  4 12 13 09 20
  20982062.930    -2508094.354 7  -1911965.409 3
  22131271.758     3535213.784 7   2718692.413 1
  21932554.742     4666464.020 6   3598891.834 1
  24458325.836    -1485294.000 5   -129098.141 1
 90 10 12 15 59 15.0000000  0  4 12 13 09 20
  20980624.102    -2515660.420 7  -1917861.072 3
  22136174.789     3560985.087 7   2738773.877 1
  21940309.469     4707201.509 6   3630635.258 1
  24447809.453    -1540548.140 4   -172153.326 1
 90 10 12 15 59 30.0000000  0  4 12 13 09 20
  20979213.867    -2523076.611 7  -1923639.954 3
  22141079.273     3586762.517 7   2758860.111 1
  21948077.148     4748036.076 6   3662454.322 1
  24437292.367    -1595815.102 4   -215218.562 1
 90 10 12 15 59 45.0000000  0  4 12 13 09 20
  20977830.125    -2530342.523 7  -1929301.735 3
  22145988.234     3612546.196 7   2778951.211 1
  21955867.242     4788967.619 6   3694348.954 1
  24426775.156    -1651094.379 4   -258293.377 1
 90 10 12 16  0  0.0000000  0  4 12 13 09 20
  20976476.289    -2537456.173 7  -1934844.860 3
  22150895.680     3638338.074 7   2799048.710 1
  21963675.195     4829997.661 6   3726320.345 1
  24416248.141    -1706384.009 3   -301376.262 1
 90 10 12 16  0 15.0000000  0  4 12 13 09 20
  20975150.789    -2544424.920 8  -1940275.073 3
  22155803.305     3664130.569 7   2819146.680 1
  21971501.688     4871118.452 6   3758362.445 1
  24405724.484    -1761691.149 3   -344472.815 1
 90 10 12 16  0 30.0000000  0  4 12 13 09 20
  20973852.953    -2551246.233 8  -1945590.415 3
  22160712.859     3689926.018 7   2839246.941 1
  21979343.203     4912332.216 6   3790476.981 1
  24395203.367    -1817013.038 4   -387580.804 1
 90 10 12 16  0 45.0000000  0  4 12 13 09 20
  20972577.242    -2557947.208 8  -1950811.968 3
  22165615.594     3715696.989 7   2859328.152 1
  21987198.133     4953611.298 6   3822642.425 1
  24384658.805    -1872376.625 4   -430721.329 1
 90 10 12 16  1  0.0000000  0  4 12 13 09 20
  20971325.898    -2564518.003 8  -1955932.088 3
  22170516.625     3741453.073 7   2879397.748 1
  21995067.320     4994965.202 6   3854866.172 1
  24374123.070    -1927772.112 4   -473886.698 1
 90 10 12 16  1 15.0000000  0  4 12 13 09 20
  20970103.672    -2570944.091 8  -1960939.443 3
  22175418.211     3767208.408 7   2899466.775 1
  22002954.359     5036407.839 6   3887159.065 1
  24363581.352    -1983184.921 5   -517065.562 1
 90 10 12 16  1 30.0000000  0  4 12 13 09 20
  20968908.883    -2577229.121 8  -1965836.884 3
  22180318.039     3792959.385 7   2919532.401 1
  22010857.367     5077935.328 6   3919518.063 1
  24353033.930    -2038618.216 5   -560260.398 1
 90 10 12 16  1 45.0000000  0  4 12 13 09 20
  20967738.586    -2583372.291 7  -1970623.791 3
  22185219.117     3818706.571 7   2939595.067 1
  22018774.047     5119548.123 6   3951943.551 1
  24342476.039    -2094071.182 5   -603470.540 1
 90 10 12 16  2  0.0000000  0  4 12 13 09 20
  20966596.969    -2589369.657 7  -1975297.087 3
  22190119.086     3844453.741 7   2959657.722 1
  22026710.375     5161249.566 6   3984438.114 1
  24331915.773    -2149540.026 5   -646693.064 1
 90 10 12 16  2 15.0000000  0  4 12 13 09 20
  20965483.781    -2595223.052 7  -1979858.197 2
  22195016.547     3870198.856 7   2979718.782 1
  22034662.938     5203037.625 6   4017000.166 1
  24321362.344    -2205026.183 5   -689929.058 1
 90 10 12 16  2 30.0000000  0  4 12 13 09 20
  20964397.531    -2600930.516 7  -1984305.606 2
  22199915.117     3895943.743 7   2999779.660 1
  22042630.078     5244913.726 6   4049630.820 1
  24310804.867    -2260527.334 5   -733176.769 1
 90 10 12 16  2 45.0000000  0  4 12 13 09 20
  20963337.086    -2606493.021 7  -1988640.052 3
  22204814.922     3921687.358 7   3019839.556 1
  22050617.703     5286876.475 6   4082329.003 1
  24300240.625    -2316044.378 5   -776436.840 1
 90 10 12 16  3  0.0000000  0  4 12 13 09 20
  20962310.070    -2611904.774 7  -1992857.024 2
  22209715.148     3947434.932 7   3039902.527 1
  22058617.711     5328931.331 6   4115098.953 1
  24289669.805    -2371571.637 5   -819704.877 1
 90 10 12 16  3 15.0000000  0  4 12 13 09 20
  20961307.094    -2617172.606 7  -1996961.851 2
  22214613.523     3973179.639 7   3059963.273 1
  22066638.063     5371070.909 6   4147934.926 1
  24279102.086    -2427115.765 5   -862986.047 1
 90 10 12 16  3 30.0000000  0  4 12 13 09 20
  20960333.664    -2622295.428 7  -2000953.685 3
  22219512.805     3998922.371 7   3080022.467 1
  22074674.445     5413295.992 6   4180837.511 1
  24268527.313    -2482675.293 5   -906279.222 1
 90 10 12 16  3 45.0000000  0  4 12 13 09 20
  20959385.359    -2627273.450 7  -2004832.693 3
  22224410.492     4024662.737 7   3100079.825 1
  22082723.719     5455605.745 6   4213806.080 1
  24257956.516    -2538250.447 5   -949584.575 1
 90 10 12 16  4  0.0000000  0  4 12 13 09 20
  20958465.625    -2632102.120 7  -2008595.310 3
  22229310.328     4050405.138 7   3120138.758 1
  22090793.289     5498004.569 6   4246844.055 1
  24247372.664    -2593836.234 5   -992898.203 1
 90 10 12 16  4 15.0000000  0  4 12 13 09 20
  20957575.578    -2636781.922 8  -2012241.936 3
  22234209.039     4076148.673 7   3140198.577 1
  22098878.984     5540491.441 6   4279950.629 1
  24236800.250    -2649433.220 5  -1036220.570 1
 90 10 12 16  4 30.0000000  0  4 12 13 09 20
  20956712.859    -2641319.921 8  -2015778.057 3
  22239107.539     4101886.410 7   3160253.879 1
  22106978.820     5583059.033 6   4313120.108 1
  24226209.664    -2705048.387 5  -1079557.101 1
 90 10 12 16  4 45.0000000  0  4 12 13 09 20
  20955875.008    -2645713.751 7  -2019201.847 3
  22244005.164     4127620.330 7   3180306.207 1
  22115095.609     5625709.170 6   4346353.912 1
  24215628.523    -2760679.223 5  -1122905.840 1
 90 10 12 16  5  0.0000000  0  4 12 13 09 20
  20955069.016    -2649959.252 7  -2022510.052 3
  22248901.016     4153354.771 7   3200358.935 1
  22123228.188     5668445.780 6   4379655.083 1
  24205034.539    -2816321.142 5  -1166263.185 1
 90 10 12 16  5 15.0000000  0  4 12 13 09 20
  20954286.938    -2654062.375 7  -2025707.324 3
  22253796.422     4179083.344 7   3220407.108 1
  22131376.867     5711262.370 6   4413018.572 1
  24194448.563    -2871979.935 5  -1209633.713 1
 90 10 12 16  5 30.0000000  0  4 12 13 09 20
  20953535.227    -2658020.346 7  -2028791.484 3
  22258692.258     4204808.614 7   3240452.709 1
  22139538.945     5754161.425 6   4446446.324 1
  24183849.703    -2927652.788 5  -1253015.152 1
 90 10 12 16  5 45.0000000  0  4 12 13 09 20
  20952809.813    -2661834.372 7  -2031763.482 3
  22263586.641     4230529.375 7   3260494.785 1
  22147717.477     5797141.344 6   4479937.085 1
  24173252.063    -2983340.755 5  -1296408.402 1
 90 10 12 16  6  0.0000000  0  4 12 13 09 20
  20952111.930    -2665501.030 7  -2034620.648 3
  22268480.219     4256249.021 7   3280536.000 1
  22155912.805     5840204.980 6   4513493.086 1
  24162659.695    -3039040.196 5  -1339810.579 1
 90 10 12 16  6 15.0000000  0  4 12 13 09 20
  20951441.641    -2669018.798 7  -2037361.798 3
  22273377.031     4281968.784 7   3300577.298 1
  22164122.086     5883353.687 6   4547115.371 1
  24152052.984    -3094749.196 5  -1383220.197 1
 90 10 12 16  6 30.0000000  0  4 12 13 09 20
  20950799.922    -2672389.669 7  -2039988.486 3
  22278269.445     4307686.343 7   3320616.886 1
  22172351.375     5926584.917 6   4580801.958 1
  24141452.625    -3150469.686 5  -1426638.816 1
 90 10 12 16  6 45.0000000  0  4 12 13 09 20
  20950186.734    -2675614.375 7  -2042501.270 3
  22283163.094     4333401.046 7   3340654.256 1
  22180592.688     5969897.657 6   4614552.060 1
  24130848.625    -3206202.306 5  -1470066.846 1
 90 10 12 16  7  0.0000000  0  4 12 13 09 20
  20949599.945    -2678699.661 7  -2044905.411 3
  22288053.977     4359105.642 7   3360683.735 1
  22188848.883     6013284.637 6   4648360.015 1
  24120232.695    -3261953.507 5  -1513509.363 1
 90 10 12 16  7 15.0000000  0  4 12 13 09 20
  20949040.469    -2681637.902 7  -2047194.980 3
  22292945.383     4384807.802 7   3380711.341 1
  22197119.586     6056753.144 6   4682231.502 1
  24109626.438    -3317715.726 5  -1556960.462 1
 90 10 12 16  7 30.0000000  0  4 12 13 09 20
  20948509.773    -2684426.629 7  -2049368.041 3
  22297836.328     4410509.853 7   3400738.837 1
  22205409.180     6100305.307 6   4716168.180 1
  24099019.117    -3373486.098 5  -1600417.934 1
 90 10 12 16  7 45.0000000  0  4 12 13 09 20
  20948006.313    -2687068.519 7  -2051426.686 3
  22302726.875     4436208.842 7   3420763.955 1
  22213712.266     6143938.061 6   4750167.655 1
  24088390.469    -3429267.156 5  -1643883.694 1
 90 10 12 16  8  0.0000000  0  4 12 13 09 20
  20947533.688    -2689560.587 7  -2053368.578 3
  22307617.500     4461907.739 7   3440788.989 1
  22222030.555     6187653.836 6   4784231.818 1
  24077783.781    -3485055.700 5  -1687355.311 1
 90 10 12 16  8 15.0000000  0  4 12 13 09 20
  20947083.063    -2691927.435 7  -2055212.906 3
  22312502.898     4487581.870 7   3460794.720 1
  22230360.938     6231427.784 6   4818341.305 1
  24067157.094    -3540875.983 5  -1730851.670 1
 90 10 12 16  8 30.0000000  0  4 12 13 09 20
  20946657.781    -2694160.353 7  -2056952.870 3
  22317385.961     4513239.941 7   3480787.942 1
  22238703.875     6275268.284 6   4852502.647 1
  24056536.703    -3596719.203 5  -1774365.883 1
 90 10 12 16  8 45.0000000  0  4 12 13 09 20
  20946259.836    -2696251.140 7  -2058582.081 3
  22322266.813     4538889.850 7   3500774.811 1
  22247060.352     6319182.959 6   4886721.797 1
  24045904.531    -3652576.880 5  -1817891.380 1
 90 10 12 16  9  0.0000000  0  4 12 13 09 20
  20945889.656    -2698193.374 7  -2060095.538 3
  22327148.789     4564537.927 7   3520760.249 1
  22255432.453     6363178.281 6   4921003.784 1
  24035272.898    -3708442.390 5  -1861422.971 1
 90 10 12 16  9 15.0000000  0  4 12 13 09 20
  20945548.461    -2699990.023 7  -2061495.557 3
  22332026.422     4590181.172 7   3540741.941 1
  22263816.906     6407250.630 6   4955345.789 1
  24024636.055    -3764318.479 5  -1904962.798 1
 90 10 12 16  9 30.0000000  0  4 12 13 09 20
  20945232.367    -2701640.497 7  -2062781.676 3
  22336907.578     4615819.922 7   3560720.115 1
  22272220.688     6451400.272 6   4989748.019 1
  24014009.586    -3820204.211 5  -1948510.156 1
 90 10 12 16  9 45.0000000  0  4 12 13 09 20
  20944947.531    -2703145.759 7  -2063954.635 3
  22341784.359     4641453.071 7   3580693.919 1
  22280636.023     6495625.882 6   5024209.441 1
  24003368.602    -3876100.436 5  -1992065.696 1
 90 10 12 16 10  0.0000000  0  4 12 13 09 20
  20944690.172    -2704507.367 7  -2065015.654 3
  22346661.641     4667079.026 7   3600662.118 1
  22289064.859     6539925.594 6   5058728.597 1
  23992730.430    -3932008.475 5  -2035630.430 1
 90 10 12 16 10 15.0000000  0  4 12 13 09 20
  20944458.375    -2705722.075 7  -2065962.215 3
  22351537.156     4692701.063 7   3620627.271 1
  22297510.367     6584302.109 6   5093307.624 1
  23982086.242    -3987924.867 5  -2079201.678 1
 90 10 12 16 10 30.0000000  0  4 12 13 09 20
  20944253.969    -2706789.563 7  -2066794.049 3
  22356410.375     4718319.467 7   3640589.581 1
  22305969.883     6628755.454 6   5127946.499 1
  23971445.781    -4043849.012 5  -2122778.953 1
 90 10 12 16 10 45.0000000  0  4 12 13 09 20
  20944077.977    -2707711.951 7  -2067512.828 3
  22361286.375     4743931.861 7   3660547.214 1
  22314443.180     6673283.212 6   5162643.367 1
  23960804.227    -4099782.982 5  -2166363.886 1
 90 10 12 16 11  0.0000000  0  4 12 13 09 20
  20943929.359    -2708487.443 7  -2068117.132 3
  22366158.906     4769539.957 7   3680501.499 1
  22322932.234     6717886.692 6   5197399.242 1
  23950153.039    -4155724.819 5  -2209954.958 1
 90 10 12 16 11 15.0000000  0  4 12 13 09 20
  20943811.641    -2709118.768 7  -2068609.097 3
  22371029.414     4795140.670 7   3700450.035 1
  22331432.164     6762562.741 6   5232211.656 1
  23939507.125    -4211676.864 5  -2253554.000 1
 90 10 12 16 11 30.0000000  0  4 12 13 09 20
  20943718.109    -2709603.294 7  -2068986.676 3
  22375902.703     4820736.567 7   3720394.806 1
  22339950.703     6807313.771 6   5267082.518 1
  23928863.094    -4267636.150 5  -2297158.662 1
 90 10 12 16 11 45.0000000  0  1 20
  23918214.078    -4323601.241 5  -2340767.846 1
 90 10 12 16 12  0.0000000  0  4 12 13 09 20
  20943619.703          -0.13517
  22385640.578          -0.30117
  22357021.195          -0.78516
  23907566.586    -4379578.701 5  -2384386.694 1
 90 10 12 16 12 15.0000000  0  4 12 13 09 20
  20943606.469         -53.184 7
  22390506.492       25572.026 7
  22365579.031       44964.045 6
  23896905.164    -4435567.229 5  -2428014.145 1
 90 10 12 16 12 30.0000000  0  4 12 13 09 20
  20943626.750          38.592 7
  22395369.961       51137.314 6        -0.05111
  22374150.563       90000.430 7        -0.39511
  23886247.391    -4491563.973 5  -2471647.962 1
 90 10 12 16 12 45.0000000  0  4 12 13 09 20
  20943668.117         273.016 7
  22400234.484       76693.355 7     19913.685 1
  22382733.125      135105.824 7     35146.581 1
  23875593.586    -4547570.857 5  -2515289.708 1
 90 10 12 16 13  0.0000000  0  4 12 13 09 20
  20943741.203         655.303 7
  22405096.586      102245.336 7     39824.257 1
  22391331.344      180285.055 7     70351.086 1
  23864936.563    -4603582.560 5  -2558935.206 1
 90 10 12 16 13 15.0000000  0  4 12 13 09 20
  20943843.609        1182.435 7
  22409957.148      127790.136 6     59729.223 1
  22399941.906      225534.810 7    105610.546 1
  23854276.266    -4659601.722 5  -2602586.508 1
 90 10 12 16 13 30.0000000  0  4 12 13 09 20
  20943971.219        1856.590 7        -0.49013
  22414816.617      153329.656 6     79630.082 1
  22408564.820      270857.001 7    140926.459 1
  23843612.922    -4715626.011 5  -2646241.831 1
 90 10 12 16 13 45.0000000  0  4 12 13 09 20
  20944127.906        2674.177 7       636.568 3
  22419674.961      178860.259 6     99523.987 1
  22417203.391      316247.588 7    176295.666 1
  23832950.602    -4771658.818 5  -2689903.762 1
 90 10 12 16 14  0.0000000  0  4 12 13 09 20
  20944310.789        3636.142 7      1386.124 3
  22424532.000      204382.713 6    119411.529 1
  22425852.883      361706.965 6    211718.467 1
  23822289.820    -4827698.899 5  -2733571.365 1
 90 10 12 16 14 15.0000000  0  4 12 13 09 20
  20944520.914        4742.762 7      2248.401 3
  22429387.500      229897.298 6    139292.957 1
  22434516.992      407235.135 6    247194.864 1
  23811617.086    -4883745.804 5  -2777244.276 1
 90 10 12 16 14 30.0000000  0  4 12 13 09 20
  20944759.156        5996.207 7      3225.084 3
  22434241.734      255406.210 6    159169.965 1
  22443193.969      452833.989 6    282726.354 1
  23800957.492    -4939796.941 5  -2820920.533 1
 90 10 12 16 14 45.0000000  0  4 12 13 09 20
  20945025.961        7399.280 7      4318.367 3
  22439096.719      280912.114 6    179044.626 1
  22451887.289      498505.916 6    318314.775 1
  23790287.367    -4995849.136 5  -2864597.578 1
 90 10 12 16 15  0.0000000  0  4 12 13 09 20
  20945322.289        8947.903 7      5525.061 3
  22443948.211      306410.825 6    198913.676 1
  22460591.094      544246.613 6    353956.784 1
  23779622.602    -5051906.308 5  -2908278.492 1
 90 10 12 16 15 15.0000000  0  4 12 13 09 20
  20945643.500       10640.814 7      6844.184 3
  22448797.555      331900.944 6    218776.033 1
  22469306.289      590054.411 6    389651.077 1
  23768954.742    -5107969.452 5  -2951964.070 1
 90 10 12 16 15 30.0000000  0  4 12 13 09 20
  20945994.188       12482.676 7      8279.376 3
  22453648.586      357387.309 6    238635.458 1
  22478037.156      635933.693 6    425401.083 1
  23758287.328    -5164033.559 5  -2995650.404 1
 90 10 12 16 15 45.0000000  0  4 12 13 09 20
  20946371.641       14471.912 7      9829.405 3
  22458496.898      382868.431 6    258490.783 1
  22486781.391      681882.524 6    461205.277 1
  23747617.430    -5220100.075 5  -3039338.624 1
 90 10 12 16 16  0.0000000  0  4 12 13 09 20
  20946777.117       16602.488 7     11489.564 3
  22463343.773      408338.080 6    278337.192 1
  22495539.664      727894.531 6    497058.704 1
  23736944.367    -5276174.599 5  -3083033.065 1
 90 10 12 16 16 14.9990000  0  4 12 13 09 20
  20947212.058       18879.945 7     13264.183 3
  22468188.776      433800.097 6    298177.650 1
  22504305.253      773972.156 6    532963.248 1
  23726275.503    -5332247.290 5  -3126726.054 1
 90 10 12 16 16 29.9990000  0  4 12 13 09 20
  20947672.534       21303.530 7     15152.661 3
  22473033.284      459256.863 7    318014.014 1
  22513089.519      820119.947 6    568922.470 1
  23715600.925    -5388326.448 5  -3170424.096 1
 90 10 12 16 16 44.9990000  0  4 12 13 09 20
  20948161.542       23870.924 7     17153.197 3
  22477877.597      484704.364 6    337843.151 1
  22521881.854      866332.447 6    604932.120 1
  23704929.815    -5444410.362 5  -3214125.854 1
 90 10 12 16 16 59.9990000  0  4 12 13 09 20
  20948678.581       26584.701 7     19267.805 3
  22482717.362      510145.052 7    357666.976 1
  22530687.792      912611.765 6    640993.846 1
  23694259.558    -5500496.254 5  -3257829.174 1
 90 10 12 16 17 14.9990000  0  4 12 13 09 20
  20949221.698       29444.573 7     21496.248 3
  22487557.097      535578.491 6    377485.171 1
  22539507.565      958957.195 6    677107.078 1
  23683584.034    -5556583.853 5  -3301533.796 1
 90 10 12 16 17 29.9990000  0  4 12 13 09 20
  20949794.659       32450.899 7     23838.816 3
  22492396.972      561005.337 6    397298.228 1
  22548340.261     1005369.117 6    713272.126 1
  23672910.597    -5612672.749 5  -3345239.434 1
 90 10 12 16 17 44.9990000  0  4 12 13 09 20
  20950393.050       35601.084 7     26293.479 3
  22497231.737      586422.832 6    417103.994 1
  22557183.487     1051844.322 6    749486.476 1
  23662238.073    -5668765.098 5  -3388947.748 1
 90 10 12 16 17 59.9990000  0  4 12 13 09 20
  20951020.479       38896.166 7     28861.051 3
  22502068.792      611832.061 6    436903.315 1
  22566040.636     1098383.677 6    785750.815 1
  23651564.433    -5724859.466 5  -3432657.663 1
 90 10 12 16 18 14.9990000  0  4 12 13 09 20
  20951675.901       42338.559 7     31543.413 3
  22506902.933      637235.195 6    456697.874 1
  22574907.581     1144989.271 6    822066.775 1
  23640884.745    -5780953.350 5  -3476367.194 1
 90 10 12 16 18 29.9990000  0  4 12 13 09 20
  20952358.050       45925.802 7     34338.641 3
  22511734.690      662629.815 6    476485.820 1
  22583788.276     1191658.273 6    858432.136 1
  23630215.315    -5837048.661 5  -3520077.810 1
 90 10 12 16 18 44.9990000  0  4 12 13 09 20
  20953067.956       49654.069 7     37243.762 3
  22516566.261      688012.319 7    496264.299 1
  22592681.761     1238386.510 6    894843.668 1
  23619540.979    -5893149.078 5  -3563792.438 1
 90 10 12 16 18 59.9990000  0  4 12 13 09 20
  20953805.269       53529.199 7     40263.320 3
  22521394.269      713388.485 6    516037.846 1
  22601586.151     1285179.523 6    931305.637 1
  23608864.245    -5949248.337 5  -3607506.137 1
 90 10 12 16 19 14.9990000  0  4 12 13 09 20
  20954570.448       57551.388 7     43397.470 3
  22526222.159      738758.101 6    535806.296 1
  22610502.370     1332037.034 6    967817.883 1
  23598186.651    -6005345.996 5  -3651218.609 1
 90 10 12 16 19 29.9990000  0  4 12 13 09 20
  20955365.003       61721.248 7     46646.688 3
  22531047.464      764121.890 6    555570.200 1
  22619433.229     1378959.559 6   1004380.771 1
  23587512.847    -6061441.233 5  -3694929.192 1
 90 10 12 16 19 44.9990000  0  4 12 13 09 20
  20956185.597       66036.135 7     50008.913 3
  22535874.354      789477.219 6    575327.530 1
  22628373.487     1425944.075 7   1040991.989 1
  23576836.597    -6117536.364 5  -3738639.680 1
 90 10 12 16 19 59.9990000  0  4 12 13 09 20
  20957034.417       70496.457 7     53484.462 3
  22540696.815      814824.446 6    595078.528 1
  22637326.995     1472990.769 7   1077651.648 1
  23566163.378    -6173630.570 5  -3782349.457 1
 90 10 12 16 20 14.9990000  0  4 12 13 09 20
  20957911.315       75098.357 7     57070.331 3
  22545518.933      840159.773 6    614820.262 1
  22646289.229     1520095.303 7   1114356.373 1
  23555487.964    -6229727.329 5  -3826061.219 1
 90 10 12 16 20 29.9990000  0  4 12 13 09 20
  20958812.729       79840.918 7     60765.803 3
  22550338.190      865482.549 6    634552.200 1
  22655264.769     1567256.418 7   1151105.197 1
  23544816.690    -6285827.239 5  -3869775.429 1
 90 10 12 16 20 44.9990000  0  4 12 13 09 20
  20959742.714       84729.864 7     64575.342 3
  22555154.440      890798.448 6    654278.790 1
  22664250.433     1614479.713 7   1187902.473 1
  23534137.901    -6341924.208 5  -3913487.348 1
 90 10 12 16 20 59.9990000  0  4 12 13 09 20
  20960700.339       89759.456 7     68494.478 3
  22559970.769      916101.305 6    673995.201 1
  22673249.386     1661759.026 7   1224743.392 1
  23523464.698    -6398023.796 5  -3957201.315 1
 90 10 12 16 21 14.9990000  0  4 12 13 09 20
  20961685.362       94933.036 7     72525.806 3
  22564781.409      941394.487 6    693704.076 1
  22682255.979     1709097.337 6   1261630.292 1
  23512788.917    -6454122.436 5  -4000914.526 1
 90 10 12 16 21 29.9990000  0  4 12 13 09 20
  20962697.347      100250.729 7     76669.430 3
  22569593.276      966678.399 6    713405.727 1
  22691275.019     1756494.574 6   1298563.105 1
  23502114.026    -6510219.610 5  -4044626.610 1
 90 10 12 16 21 44.9990000  0  4 12 13 09 20
  20963735.229      105710.627 7     80923.863 3
  22574403.495      991951.253 6    733098.781 1
  22700306.729     1803948.380 6   1335539.995 1
  23491436.308    -6566316.900 5  -4088338.783 1
 90 10 12 16 21 59.9990000  0  4 12 13 09 20
  20964800.644      111314.726 7     85290.662 3
  22579213.089     1017214.843 6    752784.610 1
  22709348.136     1851460.569 6   1372562.380 1
  23480766.229    -6622411.927 5  -4132049.192 1
 90 10 12 16 22 14.9990000  0  4 12 13 09 20
  20965895.917      117059.148 7     89766.808 3
  22584017.745     1042465.229 6    772460.150 1
  22718399.604     1899026.990 6   1409627.030 1
  23470089.136    -6678507.898 5  -4175760.353 1
 90 10 12 16 22 29.9990000  0  4 12 13 09 20
  20967015.808      122946.557 7     94354.364 3
  22588819.940     1067705.045 6    792127.451 1
  22727461.854     1946650.059 6   1446735.803 1
  23459416.933    -6734601.923 5  -4219469.974 1
 90 10 12 16 22 44.9990000  0  4 12 13 09 20
  20968163.683      128977.018 7     99053.393 3
  22593621.667     1092934.351 6    811786.566 1
  22736532.347     1994329.569 6   1483888.578 1
  23448740.081    -6790693.855 5  -4263177.961 1
 90 10 12 16 22 59.9990000  0  4 12 13 09 20
  20969338.519      135154.166 7    103866.725 3
  22598421.120     1118156.932 6    831440.436 1
  22745619.229     2042068.578 6   1521087.695 1
  23438068.269    -6846779.787 5  -4306881.282 1
 90 10 12 16 23 14.9990000  0  4 12 13 09 20
  20970541.362      141474.294 7    108791.467 3
  22603217.050     1143369.228 6    851086.299 1
  22754714.378     2089863.296 7   1558330.233 1
  23427395.604    -6902862.607 5  -4350582.179 1
 90 10 12 16 23 29.9990000  0  4 12 13 09 20
  20971771.769      147939.668 7    113829.391 3
  22608012.378     1168573.402 6    870725.828 1
  22763820.136     2137715.821 7   1595617.805 1
  23416724.644    -6958939.844 5  -4394278.729 1
 90 10 12 16 23 44.9990000  0  4 12 13 09 20
  20973030.440      154550.884 7    118980.958 3
  22612807.722     1193770.106 6    890359.531 1
  22772937.050     2185626.359 6   1632950.596 1
  23406055.073    -7015010.587 6  -4437970.207 1
 90 10 12 16 23 59.9990000  0  4 12 13 09 20
  20974315.894      161305.307 7    124244.115 3
  22617601.503     1218956.736 6    909985.389 1
  22782065.144     2233592.028 6   1670326.325 1
  23395384.495    -7071077.108 5  -4481658.385 1
 90 10 12 16 24 14.9990000  0  4 12 13 09 20
  20975628.940      168201.429 7    129617.688 3
  22622393.011     1244131.773 6    929602.212 1
  22791201.167     2281611.001 6   1707743.630 1
  23384717.487    -7127140.662 5  -4525344.273 1
 90 10 12 16 24 29.9990000  0  4 12 13 09 20
  20976967.386      175243.277 7    135104.811 3
  22627181.815     1269299.356 6    949213.235 1
  22800349.995     2329686.986 6   1745205.345 1
  23374051.667    -7183196.933 5  -4569024.486 1
 90 10 12 16 24 44.9990000  0  4 12 13 09 20
  20978333.987      182427.676 7    140703.018 3
  22631971.058     1294456.203 6    968815.900 1
  22809508.253     2377816.534 6   1782708.799 1
  23363385.073    -7239248.724 5  -4612701.180 1
 90 10 12 16 24 59.9990000  0  4 12 13 09 20
  20979729.729      189756.905 7    146414.079 2
  22636755.940     1319604.488 6    988411.875 1
  22818680.026     2426001.712 6   1820255.611 1
  23352720.925    -7295293.241 5  -4656372.221 1
 90 10 12 16 25 14.9990000  0  4 12 13 09 20
  20981151.847      197227.379 7    152235.198 2
  22641539.683     1344740.713 6   1007998.466 1
  22827859.378     2474238.342 6   1857842.502 1
  23342055.870    -7351333.765 5  -4700040.166 1
 90 10 12 16 25 29.9990000  0  4 12 13 09 20
  20982599.448      204841.247 7    158168.049 2
  22646319.628     1369867.158 6   1027577.431 1
  22837050.651     2522528.598 6   1895471.195 1
  23331393.104    -7407367.701 6  -4743702.966 1
 90 10 12 16 25 44.9990000  0  4 12 13 09 20
  20984075.581      212597.559 7    164211.903 2
  22651097.495     1394983.243 6   1047148.322 1
  22846249.073     2570871.063 6   1933140.553 1
  23320730.011    -7463395.512 6  -4787360.999 1
 90 10 12 16 25 59.9990000  0  4 12 13 09 20
  20985578.831      220492.184 7    170363.529 2
  22655876.706     1420084.625 6   1066707.773 1
  22855456.198     2619261.531 6   1970847.340 1
  23310070.558    -7519421.117 6  -4831017.306 1
 90 10 12 16 26 14.9990000  0  4 12 13 09 20
  20987106.823      228526.570 7    176624.057 2
  22660651.745     1445172.929 6   1086257.018 1
  22864674.542     2667701.148 6   2008592.385 1
  23299411.823    -7575442.570 6  -4874670.367 1
 90 10 12 16 26 29.9990000  0  4 12 13 09 20
  20988661.979      236703.521 7    182995.681 2
  22665423.276     1470250.795 6   1105798.132 1
  22873901.925     2716192.494 6   2046377.758 1
  23288749.894    -7631456.710 6  -4918317.713 1
 90 10 12 16 26 44.9990000  0  4 12 13 09 20
  20990246.511      245025.397 7    189480.225 2
  22670195.003     1495320.596 6   1125332.950 1
  22883141.253     2764737.546 6   2084204.982 1
  23278095.331    -7687460.647 6  -4961957.127 1
 90 10 12 16 26 59.9990000  0  4 12 13 09 20
  20991858.667      253489.867 7    196075.894 2
  22674961.995     1520380.034 6   1144859.701 1
  22892387.034     2813333.584 6   2122071.912 1
  23267437.120    -7743456.589 6  -5005590.321 1
 90 10 12 16 27 14.9990000  0  4 12 13 09 20
  20993494.386      262082.665 7    202771.548 2
  22679727.644     1545415.172 6   1164367.513 1
  22901642.761     2861966.534 7   2159967.606 1
  23256780.183    -7799458.238 5  -5049227.950 1
 90 10 12 16 27 29.9990000  0  4 12 13 09 20
  20995155.065      270812.445 7    209573.942 2
  22684486.745     1570434.557 6   1183863.054 1
  22910905.792     2910644.234 6   2197898.194 1
  23246123.026    -7855456.745 6  -5092863.126 1
 90 10 12 16 27 44.9990000  0  4 12 13 09 20
  20996842.019      279685.798 7    216488.213 2
  22689247.112     1595445.072 6   1203351.687 1
  22920177.948     2959373.508 6   2235868.949 1
  23235467.386    -7911444.813 5  -5136490.177 1
 90 10 12 16 27 59.9990000  0  4 12 13 09 20
  20998558.136      288703.784 7    223515.183 2
  22694004.019     1620447.537 6   1222834.044 1
  22929462.222     3008155.033 6   2273880.425 1
  23224818.917    -7967421.021 6  -5180107.980 1
 90 10 12 16 28 14.9990000  0  4 12 13 09 20
  21000301.167      297861.815 7    230651.285 2
  22698759.308     1645437.389 6   1242306.593 1
  22938752.542     3056983.916 6   2311928.805 1
  23214167.854    -8023389.693 6  -5223719.907 1
 90 10 12 16 28 29.9990000  0  4 12 13 09 20
  21002072.089      307164.136 7    237899.812 3
  22703513.573     1670419.011 6   1261772.705 1
  22948052.808     3105864.016 6   2350017.095 1
  23203520.065    -8079346.094 6  -5267322.277 1
 90 10 12 16 28 44.9990000  0  4 12 13 09 20
  21003870.612      316612.849 7    245262.414 3
  22708266.831     1695394.696 6   1281234.182 1
  22957365.792     3154797.358 6   2388146.878 1
  23192873.698    -8135287.757 6  -5310913.167 1
 90 10 12 16 28 59.9990000  0  4 12 13 09 20
  21005694.753      326205.047 7    252736.821 3
  22713019.472     1720361.719 6   1300688.918 1
  22966688.120     3203780.520 6   2426315.493 1
  23182233.253    -8191217.361 6  -5354494.660 1
 90 10 12 16 29 14.9990000  0  4 12 13 09 20
  21007547.331      335935.448 7    260318.922 3
  22717767.425     1745314.790 6   1320132.782 1
  22976015.284     3252808.151 6   2464518.725 1
  23171591.815    -8247139.730 6  -5398070.490 1
 90 10 12 16 29 29.9990000  0  4 12 13 09 20
  21009425.854      345808.411 7    268012.108 3
  22722514.737     1770258.309 6   1339569.206 1
  22985357.636     3301884.234 6   2502759.737 1
  23160947.870    -8303049.959 6  -5441636.886 1
 90 10 12 16 29 44.9990000  0  4 12 13 09 20
  21011331.073      355822.814 7    275815.503 3
  22727258.394     1795191.235 6   1358997.385 1
  22994703.800     3351007.553 6   2541037.569 1
  23150311.472    -8358948.870 6  -5485194.458 1
 90 10 12 16 29 59.9990000  0  4 12 13 09 20
  21013263.597      365977.920 7    283728.543 3
  22732001.589     1820112.936 6   1378416.807 1
  23004059.526     3400177.015 6   2579351.324 1
  23139679.370    -8414836.690 6  -5528743.388 1
 90 10 12 16 30 14.9990000  0  4 12 13 09 20
  21015222.534      376275.881 7    291752.897 3
  22736741.854     1845025.684 6   1397829.245 1
  23013427.284     3449394.689 6   2617702.648 1
  23129045.370    -8470710.759 6  -5572281.605 1
 90 10 12 16 30 29.9990000  0  4 12 13 09 20
  21017209.065      386711.732 7    299884.694 3
  22741480.011     1869924.454 6   1417230.808 1
  23022800.519     3498655.143 6   2656087.319 1
  23118414.190    -8526575.592 6  -5615812.632 1
 90 10 12 16 30 44.9990000  0  4 12 13 09 20
  21019223.487      397290.242 7    308127.650 3
  22746216.620     1894814.230 6   1436625.360 1
  23032182.729     3547963.013 6   2694508.932 1
  23107786.964    -8582426.019 6  -5659332.438 1
 90 10 12 16 30 59.9990000  0  4 12 13 09 20
  21021262.394      408010.433 7    316481.011 3
  22750950.972     1919694.051 6   1456012.150 1
  23041573.769     3597317.167 6   2732966.592 1
  23097162.683    -8638262.809 6  -5702841.604 1
 90 10 12 16 31 14.9990000  0  4 12 13 09 20
  21023330.222      418875.436 7    324947.211 3
  22755683.503     1944567.161 6   1475393.705 1
  23050975.839     3646720.300 6   2771462.448 1
  23086540.011    -8694082.416 6  -5746337.381 1
 90 10 12 16 31 29.9990000  0  4 12 13 09 20
  21025424.167      429885.413 7    333526.374 3
  22760415.105     1969433.836 6   1494770.254 1
  23060387.823     3696172.497 6   2809996.529 1
  23075920.472    -8749884.108 6  -5789819.206 1
 90 10 12 16 31 44.9990000  0  4 12 13 09 20
  21027547.034      441037.292 7    342216.111 3
  22765144.737     1994290.866 6   1514139.281 1
  23069807.776     3745670.330 6   2848566.175 1
  23065305.980    -8805670.555 6  -5833289.146 1
 90 10 12 16 31 59.9990000  0  4 12 13 09 20
  21029696.456      452331.435 7    351016.703 3
  22769873.276     2019138.722 6   1533501.157 1
  23079237.120     3795213.921 6   2887171.469 1
  23054691.347    -8861441.048 6  -5876746.654 1
 90 10 12 16 32 14.9990000  0  5 12 13 16 09 20
  21031874.089      463770.269 7    359930.035 3
  22774600.737     2043980.219 6   1552858.082 1
  24718808.558          -0.89514
  23088669.425     3844805.413 6   2925814.078 1
  23044083.534    -8917192.842 6  -5920189.609 1
 90 10 12 16 32 29.9990000  0  5 12 13 16 09 20
  21034076.964      475349.461 7    368952.740 3
  22779327.370     2068811.151 6   1572206.759 1
  24708214.370      -55659.234 4
  23098116.995     3894440.401 6   2964490.605 1
  23033477.987    -8972929.646 6  -5963620.863 1
 90 10 12 16 32 44.9990000  0  5 12 13 16 09 20
  21036308.370      487072.473 7    378087.511 3
  22784051.042     2093635.094 6   1591550.006 1
  24697620.808     -111348.568 4
  23107572.573     3944122.192 6   3003203.576 1
  23022874.276    -9028647.356 6  -6007037.245 1
 90 10 12 16 32 59.9990000  0  5 12 13 16 09 20
  21038566.425      498940.345 7    387335.161 3
  22788772.237     2118453.162 6   1610888.670 1
  24687011.714     -167067.359 3
  23117034.573     3993851.604 6   3041953.659 1
  23012273.511    -9084344.421 6  -6050437.544 1
 90 10 12 16 33 14.9990000  0  5 12 13 16 09 20
  21040851.862      510944.239 7    396688.808 3
  22793493.581     2143256.708 6   1630216.007 1
  24676405.034     -222824.173 3
  23126504.495     4043619.315 6   3080733.591 1
  23001677.136    -9140029.488 6  -6093828.488 1
 90 10 12 16 33 29.9990000  0  5 12 13 16 09 20
  21043161.480      523086.867 7    406150.550 3
  22798210.112     2168048.276 6   1649534.039 1
  24665785.604     -278615.753 3        -0.23611
  23135983.386     4093427.872 6   3119545.337 1
  22991082.394    -9195699.608 6  -6137207.786 1
 90 10 12 16 33 44.9990000  0  5 12 13 16 09 20
  21045499.683      535373.977 7    415724.879 3
  22802927.206     2192834.003 6   1668847.510 1
  24655160.925     -334435.806 4    -43496.262 1
  23145471.284     4143282.879 6   3158393.299 1
  22980495.448    -9251348.477 6  -6180570.531 1
 90 10 12 16 33 59.9990000  0  5 12 13 16 09 20
  21047865.042      547800.923 7    425408.174 3
  22807641.636     2217609.136 6   1688152.711 1
  24644539.362     -390288.446 4    -87017.693 1
  23154964.878     4193179.347 6   3197273.545 1
  22969907.862    -9306980.026 6  -6223919.770 1
 90 10 12 16 34 14.9990000  0  5 12 13 16 09 20
  21050256.737      560367.673 7    435200.409 4
  22812353.917     2242373.793 6   1707449.760 1
  24633902.808     -446173.158 4   -130564.099 2
  23164468.479     4243117.050 6   3236185.917 2
  22959325.823    -9362594.024 6  -6267255.335 1
 90 10 12 16 34 29.9990000  0  5 12 13 16 09 20
  21052673.253      573062.823 7    445092.757 3
  22817062.222     2267116.772 6   1726729.974 1
  24623261.925     -502100.867 5   -174143.970 1
  23173978.823     4293084.627 6   3275121.662 1
  22948744.714    -9418201.435 6  -6310585.711 1
 90 10 12 16 34 44.9990000  0  5 12 13 16 09 20
  21055115.706      585899.374 7    455095.207 2
  22821769.425     2291851.386 6   1746003.611 1
  24612613.315     -558057.930 5   -217746.778 1
  23183493.011     4343094.709 6   3314090.429 1
  22938166.120    -9473788.662 6  -6353900.424 1
 90 10 12 16 34 59.9990000  0  5 12 13 16 09 20
  21057583.753      598872.555 7    465204.143 2
  22826476.886     2316572.913 6   1765267.057 1
  24601959.167     -614048.656 5   -261375.812 1
  23193018.347     4393142.334 6   3353088.457 1
  22927590.769    -9529359.784 6  -6397202.582 1
 90 10 12 16 35 14.9990000  0  5 12 13 16 09 20
  21060080.159      611986.951 7    475423.121 2
  22831178.417     2341285.971 6   1784523.902 1
  24591298.644     -670067.979 5   -305027.104 1
  23202549.323     4443231.759 6   3392119.065 1
  22917021.190    -9584910.012 6  -6440488.452 1
 90 10 12 16 35 29.9990000  0  5 12 13 16 09 20
  21062601.190      625238.132 7    485748.674 2
  22835879.206     2365986.233 6   1803770.779 1
  24580633.370     -726119.489 5   -348703.529 1
  23212090.136     4493358.450 6   3431178.710 1
  22906451.839    -9640443.414 6  -6483761.216 1
 90 10 12 16 35 44.9990000  0  5 12 13 16 09 20
  21065149.948      638628.746 7    496182.888 2
  22840577.487     2390676.354 6   1823009.742 1
  24569959.675     -782200.511 5   -392402.945 1
  23221635.948     4543524.700 6   3470269.183 1
  22895888.651    -9695956.999 6  -6527018.521 1
 90 10 12 16 35 59.9990000  0  5 12 13 16 09 20
  21067725.628      652158.974 7    506725.885 2
  22845274.222     2415356.671 6   1842241.081 1
  24559283.675     -838310.233 5   -436124.705 1
  23231188.698     4593730.506 6   3509390.473 1
  22885327.979    -9751450.153 6  -6570259.906 1
 90 10 12 16 36 14.9990000  0  5 12 13 16 09 20
  21070325.565      665828.762 7    517377.634 2
  22849968.667     2440027.568 6   1861465.064 1
  24548597.323     -894448.097 5   -479868.399 1
  23240750.815     4643975.476 6   3548542.274 1
  22874773.862    -9806922.211 6  -6613484.878 1
 90 10 12 16 36 29.9990000  0  5 12 13 16 09 20
  21072954.636      679638.745 7    528138.630 2
  22854662.269     2464689.580 6   1880682.126 1
  24537911.472     -950613.053 5   -523633.220 1
  23250320.128     4694260.253 6   3587725.084 1
  22864222.714    -9862372.113 6  -6656692.565 1
 90 10 12 16 36 44.9990000  0  5 12 13 16 09 20
  21075606.597      693587.720 7    539007.927 2
  22859353.433     2489341.876 6   1899891.628 1
  24527217.261    -1006805.314 4   -567419.308 1
  23259897.558     4744583.511 6   3626937.910 1
  22853672.909    -9917800.499 6  -6699883.487 1
 90 10 12 16 36 59.9990000  0  5 12 13 16 09 20
  21078289.940      707680.425 7    549989.227 2
  22864044.831     2513989.150 6   1919097.220 1
  24516517.683    -1063019.876 4   -611222.816 1
  23269482.815     4794949.671 6   3666184.154 1
  22843129.050    -9973202.212 6  -6743053.624 1
 90 10 12 16 37 14.9990000  0  5 12 13 16 09 20
  21080997.948      721907.566 8    561075.280 2
  22868731.792     2538622.249 6   1938291.754 1
  24505816.534    -1119265.522 5   -655050.528 1
  23279070.651     4845349.248 6   3705456.430 1
  22832590.886   -10028586.128 6  -6786209.897 1
 90 10 12 16 37 29.9990000  0  5 12 13 16 09 20
  21083728.011      736258.361 8    572257.685 2
  22873414.542     2563230.552 6   1957466.953 1
  24495109.050    -1175552.369 5   -698910.329 1
  23288665.651     4895771.292 6   3744746.226 1
  22822052.167   -10083962.489 6  -6829360.294 1
 90 10 12 16 37 44.9990000  0  5 12 13 16 09 20
  21086484.058      750743.384 8    583544.683 2
  22878092.589     2587824.763 6   1976631.190 1
  24484389.987    -1231869.533 5   -742793.769 1
  23298268.019     4946226.191 6   3784061.599 1
  22811519.042   -10139320.194 6  -6872496.148 1
 90 10 12 16 37 59.9990000  0  5 12 13 16 09 20
  21089266.636      765365.293 8    594938.347 2
  22882773.956     2612407.755 6   1995786.690 1
  24473666.886    -1288213.539 5   -786698.099 1
  23307874.378     4996716.214 6   3823404.335 1
  22800989.901   -10194656.208 6  -6915615.093 1
 90 10 12 16 38 14.9990000  0  5 12 13 16 09 20
  21092076.909      780129.816 8    606443.134 2
  22887451.456     2636985.479 6   2014938.079 1
  24462943.800    -1344578.163 5   -830618.504 1
  23317492.511     5047247.121 6   3862778.975 1
  22790466.050   -10249964.304 6  -6958712.288 1
 90 10 12 16 38 29.9990000  0  5 12 13 16 09 20
  21094914.315      795037.872 8    618059.763 2
  22892126.612     2661559.113 6   2034086.259 1
  24452213.581    -1400961.733 5   -874553.727 1
  23327116.565     5097819.599 6   3902185.935 1
  22779944.901   -10305242.897 6  -7001786.502 1
 90 10 12 16 38 44.9990000  0  5 12 13 16 09 20
  21097775.558      810072.977 8    629775.394 2
  22896799.308     2686112.276 6   2053218.507 1
  24441472.769    -1457380.515 5   -918516.293 1
  23336744.464     5148417.139 6   3941612.481 1
  22769432.120   -10360508.135 6  -7044850.297 1
 90 10 12 16 38 59.9990000  0  5 12 13 16 09 20
  21100662.003      825242.736 8    641595.954 2
  22901469.503     2710652.621 6   2072340.758 1
  24430733.870    -1513826.081 5   -962499.810 1
  23346378.886     5199047.007 6   3981064.173 1
  22758917.823   -10415751.935 6  -7087897.384 1
 90 10 12 16 39 14.9990000  0  5 12 13 16 09 20
  21103575.659      840548.641 8    653522.598 2
  22906136.347     2735181.811 6   2091454.317 1
  24419990.370    -1570296.592 5  -1006502.692 1
  23356020.245     5249710.423 6   4020542.034 1
  22748407.417   -10470972.151 6  -7130926.097 1
 90 10 12 16 39 29.9990000  0  5 12 13 16 09 20
  21106512.886      855985.898 8    665551.588 2
  22910800.183     2759695.265 6   2110555.602 1
  24409236.112    -1626796.026 5  -1050528.158 1
  23365666.479     5300402.420 6   4060042.159 1
  22737903.550   -10526173.007 6  -7173939.727 1
 90 10 12 16 39 44.9990000  0  5 12 13 16 09 20
  21109475.792      871560.696 8    677687.759 2
  22915462.737     2784199.486 6   2129649.708 1
  24398483.409    -1683317.798 5  -1094571.010 1
  23375319.175     5351129.143 6   4099569.331 1
  22727402.706   -10581348.015 6  -7216933.222 1
 90 10 12 16 39 59.9990000  0  5 12 13 16 09 20
  21112464.558      887270.540 8    689929.159 2
  22920125.714     2808692.055 6   2148734.728 1
  24387719.456    -1739863.784 5  -1138632.770 1
  23384978.245     5401887.810 6   4139121.436 1
  22716911.542   -10636499.145 6  -7259908.103 1
 90 10 12 16 40 14.9990000  0  5 12 13 16 09 20
  21115480.456      903119.337 7    702278.829 3
  22924782.667     2833176.875 6   2167813.702 1
  24376960.370    -1796429.520 5  -1182709.872 1
  23394642.839     5452682.102 6   4178701.277 1
  22706421.308   -10691622.043 6  -7302860.980 1
 90 10 12 16 40 29.9990000  0  5 12 13 16 09 20
  21118523.136      919103.588 7    714734.046 3
  22929442.823     2857650.845 6   2186884.236 1
  24366185.354    -1853017.913 5  -1226804.661 1
  23404315.964     5503508.482 6   4218306.126 1
  22695937.354   -10746719.503 6  -7345794.041 1
 90 10 12 16 40 44.9990000  0  5 12 13 16 09 20
  21121593.854      935233.402 7    727302.691 3
  22934099.214     2882124.164 6   2205954.252 1
  24355418.909    -1909618.328 5  -1270908.829 1
  23413996.979     5554376.849 6   4257943.693 1
  22685456.698   -10801780.901 6  -7388699.000 1
 90 10 12 16 40 59.9990000  0  5 12 13 16 09 20
  21124687.667      951504.505 7    739981.430 3
  22938756.487     2906592.806 6   2225020.627 1
  24344645.823    -1966234.201 5  -1315025.047 1
  23423684.503     5605282.864 6   4297610.593 1
  22674986.003   -10856810.133 6  -7431578.901 1
 90 10 12 16 41 14.9990000  0  5 12 13 16 09 20
  21127811.862      967916.644 7    752770.069 3
  22943411.409     2931056.748 6   2244083.354 1
  24333868.487    -2022865.612 5  -1359153.367 1
  23433379.722     5656225.829 6   4337306.263 1
  22664520.011   -10911807.013 6  -7474433.582 1
 90 10 12 16 41 29.9990000  0  5 12 13 16 09 20
  21130962.159      984466.833 7    765666.276 3
  22948064.362     2955513.030 6   2263140.096 1
  24323087.909    -2079514.686 5  -1403295.403 1
  23443080.105     5707202.700 6   4377028.357 1
  22654059.769   -10966773.932 6  -7517264.925 1
 90 10 12 16 41 44.9990000  0  5 12 13 16 09 20
  21134137.394     1001156.268 7    778670.981 3
  22952713.784     2979963.108 6   2282191.989 1
  24312308.456    -2136179.848 5  -1447450.004 1
  23452787.519     5758214.455 6   4416777.638 1
  22643605.940   -11021709.339 6  -7560071.717 1
 90 10 12 16 41 59.9990000  0  5 12 13 16 09 20
  21137339.347     1017982.719 7    791782.455 3
  22957367.144     3004404.965 6   2301237.476 1
  24301518.690    -2192862.761 5  -1491618.439 1
  23462499.604     5809258.677 6   4456552.199 1
  22633158.503   -11076614.813 6  -7602855.170 1
 90 10 12 16 42 14.9990000  0  5 12 13 16 09 20
  21140567.222     1034948.006 7    805002.115 3
  22962017.948     3028840.478 6   2320278.037 1
  24290729.331    -2249560.952 5  -1535798.818 1
  23472217.909     5860337.138 6   4496353.467 1
  22622717.050   -11131487.887 6  -7645613.385 1
 90 10 12 16 42 29.9990000  0  5 12 13 16 09 20
  21143822.745     1052047.683 7    818326.492 3
  22966666.058     3053265.469 6   2339310.412 1
  24279939.144    -2306278.113 5  -1579993.897 1
  23481943.839     5911445.059 6   4536177.689 1
  22612280.729   -11186332.371 6  -7688349.322 1
 90 10 12 16 42 44.9990000  0  5 12 13 16 09 20
  21147101.323     1069277.644 7    831752.386 3
  22971310.214     3077676.140 6   2358331.587 1
  24269138.722    -2363017.923 5  -1624206.674 1
  23491675.261     5962578.423 6   4576021.715 1
  22601848.097   -11241151.957 6  -7731065.868 1
 90 10 12 16 42 59.9990000  0  5 12 13 16 09 20
  21150404.581     1086639.809 7    845281.300 3
  22975952.987     3102074.555 6   2377343.241 1
  24258333.948    -2419777.788 5  -1668435.092 1
  23501410.229     6013738.771 6   4615886.793 1
  22591421.042   -11295944.299 6  -7773761.167 1
 90 10 12 16 43 14.9990000  0  5 12 13 16 09 20
  21153733.722     1104133.531 7    858912.725 3
  22980595.503     3126460.377 6   2396345.061 1
  24247534.909    -2476557.817 5  -1712679.212 1
  23511151.034     6064925.520 6   4655772.447 1
  22580999.089   -11350709.578 6  -7816435.384 1
 90 10 12 16 43 29.9990000  0  5 12 13 16 09 20
  21157087.683     1121764.896 7    872651.401 3
  22985234.878     3150839.750 6   2415341.887 1
  24236720.323    -2533351.249 5  -1756933.754 1
  23520899.862     6116144.397 6   4695683.123 1
  22570583.581   -11405441.097 6  -7859083.297 1
 90 10 12 16 43 44.9990000  0  5 12 13 16 09 20
  21160471.550     1139537.042 7    886499.776 4
  22989873.847     3175216.065 6   2434336.299 1
  24225916.792    -2590154.321 5  -1801195.843 1
  23530653.511     6167398.493 6   4735621.241 1
  22560174.722   -11460135.164 6  -7901702.019 1
 90 10 12 16 43 59.9990000  0  5 12 13 16 09 20
  21163880.003     1157448.842 7    900456.967 4
  22994510.651     3199588.474 6   2453327.683 1
  24215098.105    -2646967.558 5  -1845465.828 1
  23540413.378     6218686.596 6   4775585.847 1
  22549775.456   -11514792.256 6  -7944291.945 1
 90 10 12 16 44 14.9990000  0  5 12 13 16 09 20
  21167313.776     1175498.270 7    914521.413 3
  22999147.198     3223955.200 6   2472314.628 1
  24204288.808    -2703792.551 5  -1889744.970 1
  23550178.378     6270006.295 6   4815575.081 1
  22539382.847   -11569414.129 6  -7986854.408 1
 90 10 12 16 44 29.9990000  0  5 12 13 16 09 20
  21170775.620     1193683.680 7    928691.808 4
  23003782.956     3248314.741 6   2491295.992 1
  24193470.964    -2760630.206 4  -1934033.999 1
  23559949.190     6321355.986 6   4855587.667 1
  22528995.245   -11624001.633 6  -8029390.089 1
 90 10 12 16 44 44.9990000  0  5 12 13 16 09 20
  21174262.120     1212005.578 7    942968.561 4
  23008418.042     3272667.724 6   2510272.216 1
  24182659.073    -2817479.363 5  -1978331.972 1
  23569727.550     6372735.911 6   4895623.839 1
  22518613.995   -11678553.766 6  -8071898.215 1
 90 10 12 16 44 59.9990000  0  5 12 13 16 09 20
  21177774.097     1230462.829 7    957350.786 4
  23013050.940     3297013.218 6   2529242.637 1
  24171832.511    -2874340.594 4  -2022639.351 1
  23579508.659     6424144.889 6   4935682.640 1
  22508240.159   -11733071.136 6  -8114379.243 1
 90 10 12 16 45 14.9990000  0  5 12 13 16 09 20
  21181310.597     1249053.707 7    971837.139 3
  23017684.245     3321349.822 6   2548206.120 1
  24161014.245    -2931215.103 5  -2066957.087 1
  23589296.347     6475580.994 6   4975762.543 1
  22497871.417   -11787554.965 6  -8156834.140 1
 90 10 12 16 45 29.9990000  0  5 12 13 16 09 20
  21184874.073     1267774.621 7    986424.812 3
  23022309.237     3345674.061 6   2567159.951 1
  24150183.612    -2988105.755 5  -2111287.405 1
  23599090.011     6527040.516 6   5015860.713 1
  22487510.604   -11842008.206 6  -8199265.202 1
 90 10 12 16 45 44.9990000  0  5 12 13 16 09 20
  21188466.058     1286644.397 7   1001128.483 3
  23026941.722     3370005.058 6   2586119.059 1
  24139362.237    -3044993.066 5  -2155615.095 1
  23608888.769     6578542.058 6   5055991.642 1
  22477156.800   -11896411.498 6  -8241657.363 1
 90 10 12 16 45 59.9990000  0  5 12 13 16 09 20
  21192079.651     1305642.272 7   1015931.971 3
  23031570.675     3394322.298 6   2605067.441 1
  24128535.433    -3101897.438 5  -2199956.107 1
  23618692.972     6630064.800 6   5096139.087 1
  22466810.300   -11950785.266 6  -8284026.502 1
 90 10 12 16 46 14.9990000  0  5 12 13 16 09 20
  21195718.862     1324766.723 7   1030834.093 3
  23036196.112     3418624.365 6   2624004.002 1
  24117698.940    -3158819.526 5  -2244310.896 1
  23628505.034     6681606.906 6   5136301.618 1
  22456469.761   -12005130.278 6  -8326373.237 1
 90 10 12 16 46 29.9990000  0  5 12 13 16 09 20
  21199383.792     1344028.575 7   1045843.276 3
  23040816.472     3442922.615 6   2642937.578 1
  24106871.878    -3215747.852 5  -2288670.556 1
  23638318.331     6733179.291 6   5176487.739 1
  22446133.956   -12059435.257 6  -8368688.783 1
 90 10 12 16 46 44.9990000  0  5 12 13 16 09 20
  21203076.761     1363428.299 7   1060959.896 3
  23045438.284     3467217.718 6   2661868.714 1
  24096035.011    -3272681.602 5  -2333034.420 1
  23648139.159     6784782.161 6   5216697.611 1
  22435804.628   -12113699.155 6  -8410972.314 1
 90 10 12 16 46 59.9990000  0  5 12 13 16 09 20
  21206796.261     1382973.430 7   1076189.813 3
  23050067.956     3491517.141 6   2680803.195 1
  24085206.003    -3329612.476 5  -2377396.097 1
  23657967.347     6836422.986 6   5256937.054 1
  22425491.784   -12167913.838 6  -8453217.498 1
 90 10 12 16 47 14.9990000  0  5 12 13 16 09 20
  21210535.183     1402622.977 7   1091501.094 3
  23054679.980     3515780.218 6   2699709.384 1
  24074359.347    -3386580.779 5  -2421786.919 1
  23667792.222     6888060.673 6   5297174.061 1
  22415176.948   -12222119.798 6  -8495455.879 1
 90 10 12 16 47 29.9990000  0  5 12 13 16 09 20
  21214289.401     1422349.471 7   1106872.341 3
  23059283.151     3539979.883 6   2718566.157 1
  24063508.042    -3443613.422 5  -2466227.869 1
  23677612.128     6939667.394 6   5337386.928 1
  22404858.987   -12276343.954 6  -8537708.431 1
 90 10 12 16 47 44.9990000  0  5 12 13 16 09 20
  21218068.362     1442212.050 7   1122349.622 3
  23063890.175     3564175.499 6   2737419.771 1
  24052650.214    -3500650.687 5  -2510672.422 1
  23687436.331     6991302.332 5   5377621.809 1
  22394545.956   -12330526.603 6  -8579928.646 1
 90 10 12 16 47 59.9990000  0  5 12 13 16 09 20
  21221873.581     1462208.503 7   1137931.221 3
  23068499.128     3588364.839 6   2756268.494 1
  24041796.745    -3557694.076 5  -2555121.741 1
  23697266.323     7042963.097 5   5417876.769 1
  22384244.597   -12384669.392 6  -8622117.795 1
 90 10 12 16 48 14.9990000  0  5 12 13 16 09 20
  21225703.651     1482338.024 7   1153616.511 3
  23073097.651     3612547.282 6   2775111.855 1
  24030944.706    -3614743.766 5  -2599575.975 1
  23707103.003     7094648.744 5   5458151.127 1
  22373948.479   -12438772.573 6  -8664276.083 1
 90 10 12 16 48 29.9990000  0  5 12 13 16 09 20
  21229560.253     1502598.129 7   1169403.560 2
  23077696.917     3636720.841 6   2793948.260 1
  24020084.862    -3671801.563 5  -2644036.522 1
  23716941.854     7146356.698 5   5498442.904 1
  22363659.300   -12492837.769 6  -8706404.767 1
 90 10 12 16 48 44.9990000  0  5 12 13 16 09 20
  21233439.526     1522985.014 7   1185289.395 2
  23082294.573     3660881.783 6   2812774.847 1
  24009227.550    -3728870.558 5  -2688505.790 1
  23726786.675     7198083.103 5   5538749.020 1
  22353378.308   -12546868.385 6  -8748506.517 1
 90 10 12 16 48 59.9990000  0  5 12 13 16 09 20
  21237342.362     1543498.618 7   1201273.971 2
  23086890.229     3685030.581 6   2831592.011 1
  23998364.651    -3785950.474 5  -2732983.564 1
  23736635.433     7249827.689 6   5579069.271 1
  22343102.550   -12600863.976 6  -8790580.973 1
 90 10 12 16 49 14.9990000  0  5 12 13 16 09 20
  21241272.222     1564142.157 7   1217359.795 2
  23091482.487     3709170.618 6   2850402.287 1
  23987500.284    -3843037.177 5  -2777466.617 1
  23746484.573     7301593.567 6   5619406.138 1
  22332835.339   -12654820.706 6  -8832625.147 1
 90 10 12 16 49 29.9990000  0  5 12 13 16 09 20
  21245224.151     1584912.580 7   1233544.493 2
  23096074.245     3733299.039 6   2869203.539 1
  23976636.042    -3900133.095 5  -2821956.866 1
  23756337.065     7353377.464 6   5659757.046 1
  22322575.425   -12708740.989 7  -8874640.918 1
 90 10 12 16 49 44.9990000  0  5 12 13 16 09 20
  21249201.058     1605813.042 7   1249830.519 2
  23100661.854     3757419.144 6   2887998.303 1
  23965767.464    -3957234.632 5  -2866451.478 1
  23766198.589     7405182.536 5   5700124.474 1
  22312321.706   -12762621.109 7  -8916625.392 1
 90 10 12 16 49 59.9990000  0  5 12 13 16 09 20
  21253203.651     1626844.447 7   1266218.580 2
  23105251.894     3781532.155 6   2906787.533 1
  23954901.901    -4014340.144 5  -2910949.205 1
  23776061.417     7457009.592 5   5740509.009 1
  22302077.245   -12816459.795 7  -8958577.585 1
 90 10 12 16 50 14.9990000  0  5 12 13 16 09 20
  21257229.651     1648003.227 7   1282705.886 2
  23109839.487     3805634.689 6   2925568.601 1
  23944031.714    -4071452.602 5  -2955452.323 1
  23785927.105     7508854.826 5   5780907.726 1
  22291840.073   -12870260.159 7  -9000499.907 1
 90 10 12 16 50 29.9990000  0  5 12 13 16 09 20
  21261280.604     1669287.859 7   1299291.269 2
  23114423.784     3829725.707 6   2944340.707 1
  23933162.972    -4128572.607 5  -2999961.345 1
  23795793.737     7560716.650 5   5821319.364 1
  22281609.300   -12924022.963 7  -9042392.972 1
 90 10 12 16 50 44.9990000  0  5 12 13 16 09 20
  21265355.104     1690701.364 7   1315977.070 2
  23119010.401     3853808.544 6   2963106.464 1
  23922293.128    -4185696.673 5  -3044473.514 1
  23805667.839     7612598.014 5   5861746.240 1
  22271384.065   -12977744.495 6  -9084253.886 1
 90 10 12 16 50 59.9990000  0  5 12 13 16 09 20
  21269454.597     1712243.089 7   1332762.785 2
  23123588.081     3877882.838 6   2981865.533 1
  23911423.479    -4242824.968 5  -3088988.979 1
  23815543.636     7664498.194 5   5902187.756 1
  22261170.339   -13031424.677 6  -9126082.572 1
 90 10 12 16 51 14.9990000  0  5 12 13 16 09 20
  21273577.604     1733914.731 7   1349649.729 2
  23128169.534     3901950.400 6   3000619.369 1
  23900545.511    -4299955.043 5  -3133505.847 1
  23825424.370     7716418.626 5   5942645.055 1
  22250962.659   -13085061.323 6  -9167877.333 1
 90 10 12 16 51 29.9990000  0  5 12 13 16 09 20
  21277726.198     1755717.088 7   1366638.536 2
  23132748.479     3926012.602 6   3019369.019 1
  23889680.894    -4357085.261 5  -3178022.801 1
  23835310.026     7768360.205 5   5983118.820 1
  22240765.464   -13138652.991 6  -9209637.049 1
 90 10 12 16 51 44.9990000  0  5 12 13 16 09 20
  21281900.612     1777645.145 7   1383725.282 2
  23137327.558     3950064.214 6   3038110.421 1
  23878805.151    -4414220.139 5  -3222543.399 1
  23845195.042     7820317.625 5   6023604.912 1
  22230574.354   -13192204.294 6  -9251365.315 1
 90 10 12 16 51 59.9990000  0  5 12 13 16 09 20
  21286096.425     1799698.325 7   1400909.532 1
  23141900.487     3974104.963 6   3056843.365 1
  23867933.073    -4471359.753 5  -3267067.700 1
  23855088.261     7872290.220 5   6064102.864 1
  22220391.206   -13245715.232 6  -9293062.120 1
 90 10 12 16 52 14.9990000  0  5 12 13 16 09 20
  21290317.776     1821876.480 7   1418191.164 1
  23146472.198     3998134.967 6   3075567.913 1
  23857056.503    -4528503.406 5  -3311595.116 1
  23864982.128     7924277.794 5   6104612.477 1
  22210218.276   -13299185.227 6  -9334727.024 1
 90 10 12 16 52 29.9990000  0  5 12 13 16 09 20
  21294562.073     1844180.591 8   1435570.937 1
  23151041.558     4022155.575 6   3094285.162 1
  23846185.104    -4585649.401 5  -3356124.393 1
  23874874.308     7976281.206 5   6145134.439 1
  22200050.753   -13352612.894 6  -9376358.945 1
 90 10 12 16 52 44.9990000  0  5 12 13 16 09 20
  21298828.925     1866610.976 7   1453049.108 1
  23155617.034     4046167.172 6   3112995.374 1
  23835306.042    -4642796.899 5  -3400654.832 1
  23884772.917     8028300.720 5   6185668.954 1
  22189892.409   -13405997.247 6  -9417957.111 1
 90 10 12 16 52 59.9990000  0  5 12 13 16 09 20
  21303122.589     1889163.693 8   1470622.608 1
  23160177.417     4070166.380 6   3131695.939 1
  23824434.854    -4699949.282 5  -3445189.064 1
  23894678.683     8080332.052 5   6226212.673 1
  22179741.394   -13459341.495 6  -9459524.044 1
 90 10 12 16 53 14.9990000  0  5 12 13 16 09 20
  21307438.003     1911841.470 7   1488293.556 1
  23164741.979     4094156.006 6   3150389.037 1
  23813556.425    -4757102.997 5  -3489724.336 1
  23904580.401     8132377.928 5   6266767.708 1
  22169597.886   -13512642.553 6  -9501057.323 1
 90 10 12 16 53 29.9990000  0  5 12 13 16 09 20
  21311775.948     1934640.537 7   1506059.014 1
  23169306.206     4118132.936 6   3169072.237 1
  23802679.761    -4814261.218 5  -3534263.129 1
  23914486.636     8184434.543 5   6307331.108 1
  22159462.519   -13565903.376 6  -9542559.251 1
 90 10 12 16 53 44.9990000  0  5 12 13 16 09 20
  21316136.620     1957560.621 7   1523918.764 1
  23173874.042     4142096.839 6   3187745.299 1
  23791804.901    -4871423.549 5  -3578805.113 1
  23924395.120     8236501.512 6   6347902.572 1
  22149335.745   -13619123.653 6  -9584029.574 1
 90 10 12 16 53 59.9990000  0  5 12 13 16 09 20
  21320522.323     1980607.689 7   1541877.467 1
  23178426.425     4166053.893 6   3206413.028 1
  23780925.284    -4928583.081 5  -3623344.897 1
  23934307.550     8288584.885 5   6388486.838 1
  22139215.144   -13672296.792 6  -9625463.165 1
 90 10 12 16 54 14.9990000  0  5 12 13 16 09 20
  21324931.284     2003774.600 7   1559929.550 1
  23182984.597     4189997.296 6   3225070.115 1
  23770048.308    -4985746.536 5  -3667887.749 1
  23944217.472     8340677.301 5   6429078.101 1
  22129106.698   -13725429.319 7  -9666865.109 1
 90 10 12 16 54 29.9990000  0  5 12 13 16 09 20
  21329362.862     2027061.753 7   1578075.333 1
  23187536.104     4213927.986 6   3243717.289 1
  23759167.503    -5042912.838 5  -3712432.806 1
  23954132.769     8392779.027 5   6469676.622 1
  22119003.831   -13778520.281 7  -9708234.662 1
 90 10 12 16 54 44.9990000  0  5 12 13 16 09 20
  21333816.925     2050470.706 7   1596316.015 1
  23192090.183     4237847.988 5   3262356.142 1
  23748292.933    -5100079.593 5  -3756978.225 1
  23964051.847     8444891.469 5   6510283.503 1
  22108908.058   -13831567.462 7  -9749570.100 1
 90 10 12 16 54 59.9990000  0  5 12 13 16 09 20
  21338293.370     2073997.768 7   1614648.741 1
  23196641.167     4261753.745 5   3280983.862 1
  23737412.737    -5157249.857 5  -3801526.373 1
  23973968.011     8497011.119 5   6550896.039 1
  22098821.362   -13884573.939 7  -9790873.812 1
 90 10 12 16 55 14.9990000  0  5 12 13 16 09 20
  21342794.151     2097644.902 7   1633075.024 1
  23201185.792     4285647.301 6   3299602.092 1
  23726528.354    -5214421.113 5  -3846075.293 1
  23983885.854     8549139.642 5   6591515.469 1
  22088744.987   -13937537.259 7  -9832143.907 2
 90 10 12 16 55 29.9990000  0  6 12 13 16 09 20 03
  21347317.425     2121409.022 7
  23205728.894     4309525.932 5
  23715652.175    -5271595.617 5  -3890626.737 1
  23993807.854     8601273.993 5   6632139.422 1
  22078672.636   -13990459.725 7  -9873382.173 2
  24598056.722          -0.22413
 90 10 12 16 55 44.9990000  0  6 12 13 16 09 20 03
  21351861.315     2145290.065 7
  23210269.886     4333390.007 6
  23704771.831    -5328772.782 5  -3935180.270 1
  24003733.347     8653414.080 5   6672767.882 1
  22068609.808   -14043340.708 6  -9914588.116 2
  24589956.222      -42551.045 4
 90 10 12 16 55 59.9990000  0  6 12 13 16 09 20 03
  21356427.409     2169286.503 7   1688899.476 1
  23214803.894     4357238.298 5   3355386.950 1
  23693892.479    -5385953.541 5  -3979736.596 1
  24013654.675     8705558.203 5   6713399.456 1
  22058553.972   -14096181.088 6  -9955762.413 2
  24581867.284      -85092.121 5
 90 10 12 16 56 14.9990000  0  6 12 13 16 09 20 03
  21361017.401     2193400.656 7   1707689.667 1
  23219347.081     4381073.425 5   3373959.639 1
  23683007.573    -5443134.879 5  -4024293.373 1
  24023578.409     8757708.603 5   6754035.952 1
  22048508.589   -14148978.188 7  -9996902.985 2
  24573768.300     -127620.965 5
 90 10 12 16 56 29.9990000  0  6 12 13 16 09 20 03
  21365627.050     2217632.428 7   1726571.504 1
  23223875.917     4404895.570 5   3392522.229 1
  23672127.065    -5500315.985 5  -4068849.958 1
  24033503.401     8809865.129 5   6794677.180 1
  22038465.456   -14201731.467 7 -10038009.419 2
  24565677.417     -170137.378 5
 90 10 12 16 56 44.9990000  0  6 12 13 16 09 20 03
  21370261.675     2241982.913 7   1745545.850 1
  23228411.003     4428706.083 6   3411075.757 1
  23661244.456    -5557495.198 5  -4113405.058 1
  24043430.972     8862028.592 5   6835323.826 1
  22028438.956   -14254439.187 7 -10079080.341 1
  24557591.112     -212640.156 4
 90 10 12 16 56 59.9990000  0  6 12 13 16 09 20 03
  21374918.167     2266453.179 7   1764613.528 1
  23232943.550     4452506.241 6   3429621.229 1
  23650364.831    -5614670.986 5  -4157957.513 1
  24053356.394     8914200.174 5   6875976.788 1
  22018418.362   -14307099.598 7 -10120114.394 1
  24549504.417     -255127.799 3
 90 10 12 16 57 14.9990000  0  6 12 13 16 09 20 03
  21379599.198     2291044.208 7   1783775.309 1
  23237464.573     4476297.352 6   3448159.636 1
  23639486.144    -5671841.380 5  -4202505.745 1
  24063283.933     8966380.860 5   6916636.862 1
  22008407.034   -14359710.993 7 -10161110.249 1
  24541427.909     -297599.011 3        -0.30411
 90 10 12 16 57 29.9990000  0  6 12 13 16 09 20 03
  21384298.394     2315753.448 7   1803029.198 1
  23241994.534     4500077.313 6   3466689.375 1
  23628606.964    -5729008.374 5  -4247051.345 1
  24073219.073     9018567.958 5   6957301.935 1
  21998403.776   -14412275.347 7 -10202069.457 1
  24533346.120     -340056.207 3    -33083.808 1
 90 10 12 16 57 44.9990000  0  6 12 13 16 09 20 03
  21389021.292     2340578.756 7   1822373.538 1
  23246512.354     4523844.314 6   3485208.996 1
  23617728.542    -5786173.460 5  -4291595.429 1
  24083152.300     9070759.321 5   6997970.293 1
  21988409.128   -14464794.241 7 -10242993.237 1
  24525264.300     -382501.174 3    -66157.841 1
 90 10 12 16 57 59.9990000  0  6 12 13 16 09 20 03
  21393770.386     2365524.723 7   1841811.890 1
  23251034.823     4547603.194 6   3503722.296 1
  23606852.409    -5843331.125 5  -4336133.728 1
  24093082.714     9122959.373 5   7038645.463 1
  21978424.558   -14517262.311 7 -10283877.421 1
  24517192.354     -424929.083 3    -99218.530 1
 90 10 12 16 58 14.9990000  0  6 12 13 16 09 20 03
  21398540.183     2390590.198 7   1861343.365 1
  23255556.948     4571352.956 6   3522228.485 1
  23595974.292    -5900481.852 5  -4380666.651 1
  24103019.183     9175166.854 5   7079326.412 1
  21968450.831   -14569680.130 7 -10324722.447 2
  24509118.620     -467340.702 2   -132266.549 1
 90 10 12 16 58 29.9990000  0  6 12 13 16 09 20 03
  21403331.183     2415758.755 7   1880955.170 2
  23260069.917     4595077.612 6   3540715.126 1
  23585099.737    -5957641.602 5  -4425206.589 1
  24112953.190     9227365.288 5   7120000.289 1
  21958483.159   -14622063.429 7 -10365540.570 2
  24501053.128     -509752.434 3   -165314.653 1
 90 10 12 16 58 44.9990000  0  6 12 13 16 09 20 03
  21408141.878     2441044.191 7   1900658.039 2
  23264579.011     4618791.558 6   3559193.401 1
  23574221.519    -6014795.883 5  -4469742.256 1
  24122886.339     9279568.449 5   7160677.825 1
  21948524.042   -14674397.784 7 -10406320.556 2
  24492978.362     -552150.128 2   -198351.856 1
 90 10 12 16 58 59.9990000  0  6 12 13 16 09 20 03
  21412975.776     2466447.424 7   1920452.706 2
  23269092.964     4642495.787 6   3577664.158 1
  23563351.456    -6071943.069 5  -4514272.413 1
  24132825.565     9331777.185 5   7201359.752 1
  21938572.901   -14726681.888 7 -10447061.381 2
  24484924.433     -594532.752 2   -231377.231 1
 90 10 12 16 59 14.9990000  0  6 12 13 16 09 20 03
  21417832.730     2491967.365 7   1940338.314 2
  23273603.706     4666189.534 6   3596126.684 1
  23552475.808    -6129083.505 5  -4558797.281 1
  24142760.862     9383990.274 5   7242045.069 1
  21928634.159   -14778915.984 7 -10487763.250 2
  24476850.308     -636900.765 2   -264391.238 1
 90 10 12 16 59 29.9990000  0  6 12 13 16 09 20 03
  21422710.706     2517603.936 6   1960314.800 2
  23278110.550     4689873.084 6   3614581.305 1
  23541601.323    -6186216.500 5  -4603316.377 1
  24152692.769     9436207.699 5   7282733.754 1
  21918703.128   -14831099.697 7 -10528425.850 2
  24468796.464     -679254.107 2   -297393.798 1
 90 10 12 16 59 44.9990000  0  6 12 13 16 09 20 03
  21427614.487     2543366.473 6   1980389.437 2
  23282612.526     4713556.105 6   3633035.505 1
  23530735.659    -6243332.203 5  -4647821.988 1
  24162632.854     9488438.601 5   7323432.931 1
  21908785.190   -14883222.965 7 -10569041.350 2
  24460734.495     -721583.297 2   -330377.644 1
 90 10 12 16 59 59.9990000  0  6 12 13 16 09 20 03
  21432539.659     2569244.882 6   2000554.371 2
  23287121.456     4737228.753 6   3651481.617 1
  23519869.315    -6300439.731 5  -4692321.235 1
  24172573.362     9540672.952 5   7364134.811 1
  21898875.995   -14935295.075 7 -10609616.985 1
  24452686.909     -763898.009 2   -363350.045 1
 90 10 12 17  0 14.9990000  0  6 12 13 16 09 20 03
  21437481.597     2595235.554 6   2020806.772 2
  23291623.112     4760887.738 5   3669917.096 1
  23509003.073    -6357542.217 5  -4736816.562 1
  24182514.354     9592906.819 5   7404836.316 1
  21888975.433   -14987319.194 7 -10650155.234 2
  24444639.042     -806201.791 2   -396314.094 1
 90 10 12 17  0 29.9990000  0  6 12 13 16 09 20 03
  21442452.628     2621341.204 6   2041148.777 2
  23296121.550     4784536.158 5   3688344.322 1
  23498135.948    -6414636.086 5  -4781305.169 1
  24192452.940     9645143.171 5   7445539.717 1
  21879085.394   -15039292.011 7 -10690653.509 2
  24436593.472     -848491.585 3   -429267.176 1
 90 10 12 17  0 44.9990000  0  6 12 13 16 09 20 03
  21447439.331     2647564.369 6   2061582.341 2
  23300619.776     4808176.946 5   3706765.598 1
  23487273.901    -6471718.187 5  -4825784.601 1
  24202395.292     9697384.327 5   7486246.869 1
  21869205.909   -15091210.333 7 -10731109.314 2
  24428539.362     -890764.259 2   -462207.016 1
 90 10 12 17  0 59.9990000  0  6 12 13 16 09 20 03
  21452453.511     2673902.905 6   2082105.815 2
  23305120.136     4831808.113 6   3725179.385 1
  23476414.511    -6528789.979 5  -4870256.018 1
  24212338.128     9749628.118 5   7526956.072 1
  21859336.206   -15143075.596 7 -10771523.786 2
  24420513.987     -933021.996 4   -495135.021 1
 90 10 12 17  1 14.9990000  0  6 12 13 16 09 20 03
  21457488.175     2700358.071 6   2102720.161 2
  23309611.597     4855431.234 5   3743586.896 1
  23465555.659    -6585849.328 6  -4914717.726 1
  24222280.573     9801875.763 5   7567668.307 1
  21849476.940   -15194885.693 7 -10811895.257 2
  24412465.776     -975263.298 3   -528050.360 1
 90 10 12 17  1 29.9980000  0  6 12 13 16 09 20 03
  21462542.881     2726922.049 6   2123419.301 2
  23314108.045     4879038.960 5   3761982.415 1
  23454703.045    -6642898.019 5  -4959171.127 1
  24232222.436     9854117.664 5   7608376.027 1
  21839627.021   -15246642.736 7 -10852225.392 2
  24404431.537    -1017490.958 3   -560954.981 1
 90 10 12 17  1 44.9980000  0  6 12 13 16 09 20 03
  21467618.764     2753601.470 6   2144208.396 2
  23318597.803     4902638.079 6   3780371.213 1
  23443842.889    -6699939.573 5  -5003618.979 1
  24242163.217     9906363.911 5   7649087.136 1
  21829788.498   -15298349.944 7 -10892516.702 2
  24396400.006    -1059707.246 3   -593850.789 1
 90 10 12 17  1 59.9980000  0  6 12 13 16 09 20 03
  21472719.186     2780395.961 6   2165087.152 2
  23323085.162     4926228.838 5   3798753.511 1
  23432990.451    -6756968.071 5  -5048056.644 1
  24252105.725     9958612.351 5   7689799.989 1
  21819958.897   -15350001.727 7 -10932764.822 2
  24388370.146    -1101907.625 3   -626734.199 1
 90 10 12 17  2 14.9980000  0  6 12 13 16 09 20 03
  21477839.811     2807306.091 6   2186056.011 2
  23327572.225     4949812.003 6   3817129.895 1
  23422143.584    -6813982.369 5  -5092483.268 1
  24262046.147    10010863.434 5   7730514.903 1
  21810139.959   -15401597.015 7 -10972968.922 2
  24380340.701    -1144091.436 2   -659604.738 1
 90 10 12 17  2 29.9980000  0  6 12 13 16 09 20 03
  21482982.576     2834328.673 6   2207112.494 2
  23332059.146     4973384.529 6   3835497.985 1
  23411295.701    -6870985.188 5  -5136900.936 1
  24271990.459    10063113.804 4   7771229.274 1
  21800333.084   -15453138.231 7 -11013130.898 2
  24372313.053    -1186261.540 2   -692464.521 1
 90 10 12 17  2 44.9980000  0  6 12 13 16 09 20 03
  21488143.631     2861449.366 6   2228245.430 2
  23336540.646     4996932.682 6   3853847.122 1
  23400445.279    -6927989.689 5  -5181319.896 1
  24281928.889    10115349.353 5   7811932.053 1
  21790533.498   -15504638.879 7 -11053261.255 2
  24364291.326    -1228431.699 3   -725324.312 1
 90 10 12 17  2 59.9980000  0  6 12 13 16 09 20 03
  21493325.545     2888682.156 6   2249465.714 2
  23341020.084     5020470.983 6   3872188.539 1
  23389602.529    -6984981.283 5  -5225728.810 1
  24291870.779    10167583.993 5   7852634.114 1
  21780742.037   -15556084.456 7 -11093348.691 2
  24356272.654    -1270587.849 2   -758173.275 1
 90 10 12 17  3 14.9980000  0  6 12 13 16 09 20 03
  21498531.303     2916035.557 6   2270779.980 2
  23345497.107     5044008.171 6   3890529.115 1
  23378761.451    -7041950.786 5  -5270120.511 1
  24301813.631    10219826.086 5   7893341.998 1
  21770965.123   -15607465.742 7 -11133386.031 2
  24348248.303    -1312720.949 2   -791004.258 1
 90 10 12 17  3 29.9980000  0  6 12 13 16 09 20 03
  21503760.670     2943506.878 7   2292186.131 2
  23349976.131     5067541.856 6   3908866.935 1
  23367922.623    -7098900.160 5  -5314496.527 1
  24311755.443    10272072.948 5   7934053.611 1
  21761199.521   -15658784.740 7 -11173374.836 2
  24340231.248    -1354833.787 3   -823819.454 1
 90 10 12 17  3 44.9980000  0  6 12 13 16 09 20 03
  21509006.646     2971088.359 7   2313678.123 2
  23354458.443     5091064.536 6   3927196.210 1
  23357089.732    -7155836.513 5  -5358862.391 1
  24321698.037    10324316.735 5   7974762.765 1
  21751444.053   -15710048.540 7 -11213320.624 1
  24332231.600    -1396933.749 4   -856624.585 1
 90 10 12 17  3 59.9980000  0  6 12 13 16 09 20 03
  21514276.006     2998782.725 6   2335258.073 2
  23358926.826     5114579.321 6   3945519.298 1
  23346258.967    -7212756.453 5  -5403215.480 1
  24331638.771    10376560.059 5   8015471.609 1
  21741701.498   -15761253.970 7 -11253220.934 2
  24324223.014    -1439017.877 5   -889417.397 1
 90 10 12 17  4 14.9980000  0  6 12 13 16 09 20 03
  21519567.795     3026587.277 7   2356923.886 2
  23363397.678     5138083.990 5   3963834.511 1
  23335429.092    -7269661.817 5  -5447557.185 1
  24341580.982    10428800.341 5   8056178.043 1
  21731967.787   -15812402.960 7 -11293077.272 2
  24316213.014    -1481088.435 4   -922199.632 1
 90 10 12 17  4 29.9980000  0  6 12 13 16 09 20 03
  21524878.029     3054496.891 7   2378671.566 2
  23367873.834     5161573.787 6   3982138.137 1
  23324600.756    -7326556.835 5  -5491890.860 1
  24351521.154    10481032.416 5   8096878.137 1
  21722244.264   -15863499.886 7 -11332893.041 2
  24308205.967    -1523150.049 4   -954974.899 1
 90 10 12 17  4 44.9980000  0  6 12 13 16 09 20 03
  21530211.061     3082517.280 7   2400505.560 2
  23372338.498     5185054.788 5   4000434.891 1
  23313777.053    -7383435.279 5  -5536211.598 1
  24361463.787    10533262.054 4   8137576.297 1
  21712532.451   -15914538.345 7 -11372663.261 2
  24300200.631    -1565196.945 3   -987738.671 1
 90 10 12 17  4 59.9980000  0  6 12 13 16 09 20 03
  21535564.779     3110646.709 7   2422424.530 2
  23376805.318     5208525.328 5   4018723.519 1
  23302960.014    -7440298.069 6  -5580520.161 1
  24371402.248    10585487.271 5   8178271.001 1
  21702829.240   -15965519.515 7 -11412388.835 2
  24292205.678    -1607230.525 3  -1020492.168 1
 90 10 12 17  5 14.9980000  0  6 12 13 16 09 20 03
  21540937.709     3138888.353 7   2444430.927 2
  23381274.225     5231989.056 5   4037006.836 1
  23292143.068    -7497141.102 6  -5624813.309 1
  24381338.061    10637711.303 5   8218964.816 1
  21693140.514   -16016439.536 7 -11452066.758 2
  24284216.420    -1649247.373 4  -1053232.486 1
 90 10 12 17  5 29.9980000  0  6 12 13 16 09 20 03
  21546332.709     3167237.173 6   2466520.847 2
  23385737.092     5255441.403 6   4055281.257 1
  23281326.607    -7553969.077 6  -5669094.736 1
  24391273.045    10689929.174 5   8259653.815 1
  21683461.576   -16067302.827 7 -11491700.480 2
  24276219.607    -1691252.217 3  -1085963.599 1
 90 10 12 17  5 44.9980000  0  6 12 13 16 09 20 03
  21551747.842     3195692.514 6   2488693.767 2
  23390197.014     5278882.079 6   4073546.633 1
  23270514.982    -7610781.792 5  -5713364.288 1
  24401207.365    10742140.159 4   8300337.450 1
  21673792.568   -16118109.505 7 -11531290.075 2
  24268226.186    -1733245.378 3  -1118685.514 1
 90 10 12 17  5 59.9980000  0  6 12 13 16 09 20 03
  21557183.186     3224256.683 7   2510951.494 2
  23394656.748     5302313.679 6   4091804.906 1
  23259709.561    -7667576.215 6  -5757619.565 1
  24411142.967    10794346.379 4   8341017.342 1
  21664136.021   -16168856.360 7 -11570833.067 2
  24260239.693    -1775224.460 3  -1151396.513 1
 90 10 12 17  6 14.9980000  0  6 12 13 16 09 20 03
  21562640.873     3252929.274 7   2533293.702 2
  23399108.545     5325736.082 6   4110056.040 1
  23248901.545    -7724352.066 6  -5801860.384 1
  24421075.053    10846547.517 4   8381693.265 1
  21654490.818   -16219543.074 7 -11610329.183 2
  24252253.037    -1817189.283 4  -1184096.311 1
 90 10 12 17  6 29.9980000  0  6 12 13 16 09 20 03
  21568117.631     3281709.930 7   2555720.118 2
  23403566.014     5349149.394 6   4128300.088 1
  23238102.396    -7781108.768 6  -5846086.268 1
  24431010.623    10898743.239 4   8422364.990 1
  21644858.873   -16270169.402 7 -11649778.252 2
  24244268.365    -1859140.133 3  -1216785.283 1
 90 10 12 17  6 44.9980000  0  6 12 13 16 09 20 03
  21573611.779     3310591.483 6   2578225.157 2
  23408016.170     5372546.773 5   4146531.699 1
  23227303.826    -7837852.971 6  -5890302.438 1
  24440942.482    10950926.273 4   8463026.834 1
  21635235.021   -16320741.744 7 -11689185.252 2
  24236291.029    -1901083.689 4  -1249468.539 1
 90 10 12 17  6 59.9980000  0  6 12 13 16 09 20 03
  21579127.998     3339577.347 7   2600811.476 3
  23412473.217     5395932.056 6   4164753.901 1
  23216508.607    -7894580.558 6  -5934505.658 1
  24450870.998    11003099.933 4   8503681.356 1
  21625620.451   -16371256.124 7 -11728547.089 2
  24228312.326    -1943016.410 4  -1282143.384 1
 90 10 12 17  7 14.9980000  0  6 12 13 16 09 20 03
  21584664.568     3368669.152 7   2623480.342 3
  23416917.498     5419307.234 5   4182968.248 1
  23205719.248    -7951288.829 6  -5978693.824 1
  24460795.451    11055266.002 4   8544329.979 1
  21616019.576   -16421710.411 7 -11767862.098 2
  24220335.670    -1984936.215 4  -1314808.190 1
 90 10 12 17  7 29.9980000  0  6 12 13 16 09 20 03
  21590222.522     3397868.229 7   2646232.785 2
  23421364.889     5442674.251 5   4201176.205 1
  23194933.529    -8007975.809 6  -6022865.416 1
  24470722.451    11107425.743 5   8584973.647 1
  21606431.287   -16472102.399 7 -11807128.562 2
  24212356.936    -2026841.542 3  -1347461.687 1
 90 10 12 17  7 44.9980000  0  6 12 13 16 09 20 03
  21595798.889     3427174.030 7   2669068.407 3
  23425806.428     5466032.589 5   4219377.401 1
  23184149.014    -8064641.528 6  -6067020.417 1
  24480647.397    11159578.608 5   8625611.964 1
  21596852.928   -16522432.020 7 -11846346.427 2
  24204381.896    -2068732.615 4  -1380104.094 1
 90 10 12 17  7 59.9980000  0  6 12 13 16 09 20 03
  21601395.623     3456581.317 7   2691983.109 3
  23430251.209     5489377.381 5   4237568.044 1
  23173370.420    -8121290.336 6  -6111162.257 1
  24490569.779    11211719.378 5   8666240.889 1
  21587285.842   -16572703.795 7 -11885519.220 2
  24196418.084    -2110614.353 5  -1412739.193 1
 90 10 12 17  8 14.9980000  0  6 12 13 16 09 20 03
  21607010.912     3486091.975 7   2714978.351 3
  23434693.865     5512710.927 6   4255749.929 1
  23162593.647    -8177919.570 6  -6155288.834 1
  24500490.170    11263849.750 4   8706861.666 1
  21577732.350   -16622915.133 7 -11924644.911 2
  24188445.256    -2152484.638 4  -1445365.416 1
 90 10 12 17  8 29.9980000  0  6 12 13 16 09 20 03
  21612643.717     3515705.431 7   2738053.704 3
  23439128.264     5536033.038 5   4273922.894 1
  23151820.389    -8234529.158 6  -6199400.116 1
  24510409.045    11315969.182 4   8747473.937 1
  21568189.428   -16673065.908 7 -11963723.416 2
  24180482.826    -2194343.540 5  -1477982.754 1
 90 10 12 17  8 44.9980000  0  6 12 13 16 09 20 03
  21618300.107     3545418.366 7   2761206.564 3
  23443565.537     5559340.754 6   4292084.640 1
  23141051.131    -8291121.712 6  -6243498.112 1
  24520323.279    11368074.354 3   8788075.084 1
  21558655.568   -16723158.855 7 -12002756.857 2
  24172522.982    -2236194.436 5  -1510593.858 1
 90 10 12 17  8 59.9980000  0  6 12 13 16 09 20 03
  21623973.193     3575233.450 7   2784439.020 3
  23448000.936     5582637.344 6   4310237.728 1
  23130286.272    -8347693.495 6  -6287579.943 1
  24530233.068    11420168.102 3   8828667.356 1
  21549134.904   -16773190.388 7 -12041742.453 2
  24164559.107    -2278034.081 5  -1543196.191 1
 90 10 12 17  9 14.9980000  0  6 12 13 16 09 20 03
  21629666.373     3605151.375 7   2807751.613 3
  23452426.998     5605923.496 5   4328382.675 1
  23119525.146    -8404243.293 6  -6331644.628 1
  24540150.412    11472250.845 3   8869251.024 1
  21539625.779   -16823159.241 7 -12080679.201 2
  24156601.943    -2319861.478 5  -1575788.947 1
 90 10 12 17  9 29.9980000  0  6 12 13 16 09 20 03
  21635377.959     3635167.292 7   2831140.565 3
  23456860.084     5629195.038 5   4346516.233 1
  23108766.771    -8460775.238 6  -6375695.416 1
  24550059.623    11524317.988 4   8909822.568 1
  21530127.592   -16873069.703 7 -12119570.453 2
  24148640.514    -2361681.227 5  -1608375.812 1
 90 10 12 17  9 44.9980000  0  6 12 13 16 09 20 03
  21641110.115     3665288.392 7   2854611.488 3
  23461284.920     5652459.625 5   4364644.355 1
  23098016.420    -8517281.152 6  -6419725.908 1
  24559964.709    11576376.707 4   8950387.515 1
  21520642.428   -16922913.769 7 -12158409.961 2
  24140691.006    -2403485.816 5  -1640950.736 1
 90 10 12 17  9 59.9980000  0  6 12 13 16 09 20 03
  21646860.943     3695516.700 7   2878165.938 3
  23465710.607     5675719.670 5   4382768.973 1
  23087267.076    -8573758.474 6  -6463734.129 1
  24569871.053    11628428.858 4   8990947.347 1
  21511170.084   -16972688.570 7 -12197195.499 2
  24132734.764    -2445272.866 4  -1673512.097 1
 90 10 12 17 10 14.9980000  0  6 12 13 16 09 20 03
  21652633.553     3725846.177 7   2901799.220 3
  23470137.732     5698969.331 5   4400885.448 1
  23076524.139    -8630212.547 6  -6507724.220 1
  24579773.896    11680468.344 4   9031497.300 1
  21501710.943   -17022399.788 7 -12235931.491 2
  24124781.272    -2487048.052 4  -1706064.156 1
 90 10 12 17 10 29.9980000  0  6 12 13 16 09 20 03
  21658430.795     3756307.183 7   2925534.990 3
  23474567.373     5722239.296 5   4419017.759 1
  23065789.670    -8686612.227 6  -6551671.961 1
  24589679.756    11732525.738 4   9072061.226 1
  21492269.092   -17072016.268 7 -12274593.662 2
  24116841.350    -2528780.950 5  -1738583.285 1
 90 10 12 17 10 44.9980000  0  6 12 13 16 09 20 03
  21664246.381     3786866.826 7   2949347.611 3
  23478990.975     5745497.137 5   4437140.627 1
  23055060.842    -8742989.596 6  -6595602.292 1
  24599581.021    11784567.735 4   9112613.145 1
  21482840.678   -17121570.229 7 -12313207.111 2
  24108904.076    -2570504.191 5  -1771094.901 1
 90 10 12 17 10 59.9980000  0  6 12 13 16 09 20 03
  21670081.670     3817529.128 7   2973240.240 3
  23483417.592     5768747.428 5   4455257.615 1
  23044340.928    -8799339.890 6  -6639511.526 1
  24609479.795    11836598.793 3   9153156.545 1
  21473423.287   -17171056.832 7 -12351768.082 2
  24100965.803    -2612213.248 5  -1803595.460 1
 90 10 12 17 11 14.9980000  0  6 12 13 16 09 20 03
  21675932.318     3848289.011 7   2997208.914 3
  23487835.748     5791985.339 5   4473364.938 1
  23033619.732    -8855667.301 6  -6683402.938 1
  24619376.436    11888613.738 3   9193687.379 1
  21464017.412   -17220480.582 7 -12390280.073 2
  24093030.490    -2653912.842 5  -1836088.668 1
 90 10 12 17 11 29.9980000  0  6 12 13 16 09 20 03
  21681807.053     3879148.614 7   3021255.280 3
  23492256.193     5815213.558 5   4491464.738 1
  23022908.076    -8911969.168 6  -6727274.440 1
  24629276.061    11940614.592 4   9234207.240 1
  21454625.951   -17269838.502 7 -12428740.767 2
  24085103.217    -2695600.346 5  -1868572.450 1
 90 10 12 17 11 44.9980000  0  6 12 13 16 09 20 03
  21687698.326     3910110.561 7   3045381.401 3
  23496674.287     5838435.097 5   4509559.327 1
  23012200.022    -8968241.651 6  -6771123.037 1
  24639167.803    11992604.327 3   9274718.438 1
  21445245.732   -17319127.094 7 -12467147.438 2
  24077169.756    -2737273.030 5  -1901044.685 1
 90 10 12 17 11 59.9980000  0  6 12 13 16 09 20 03
  21693610.154     3941172.448 7   3069585.398 3
  23501092.951     5861647.869 5   4527647.072 1
  23001494.436    -9024486.648 6  -6814950.232 1
  24649061.514    12044580.304 3   9315218.881 1
  21435881.397   -17368348.310 7 -12505501.602 2
  24069243.756    -2778932.984 5  -1933507.040 1
 90 10 12 17 12 14.9980000  0  6 12 13 16 09 20 03
  21699540.186     3972333.051 7   3093866.305 3
  23505511.568     5884851.184 5   4545727.471 1
  22990794.287    -9080704.901 6  -6858756.567 1
  24658949.037    12096541.139 3   9355707.549 1
  21426527.967   -17417502.864 7 -12543803.831 2
  24061315.982    -2820581.244 5  -1965960.192 1
 90 10 12 17 12 29.9980000  0  6 12 13 16 09 20 03
  21705487.232     4003586.226 7   3118219.345 3
  23509918.928     5908039.333 5   4563796.025 1
  22980105.959    -9136901.393 6  -6902545.962 1
  24668836.467    12148480.988 3   9396179.842 1
  21417183.693   -17466595.837 7 -12582058.066 2
  24053394.678    -2862223.333 4  -1998408.586 1
 90 10 12 17 12 44.9980000  0  6 12 13 16 09 20 03
  21711450.373     4034933.238 7   3142645.503 3
  23514331.725     5931213.529 5   4581853.700 1
  22969415.842    -9193074.290 6  -6946316.982 1
  24678716.225    12200400.906 4   9436636.610 1
  21407854.740   -17515625.411 7 -12620262.900 2
  24045469.490    -2903858.016 3  -2030851.169 1
 90 10 12 17 12 59.9980000  0  6 12 13 16 09 20 03
  21717435.420     4066378.885 7   3167148.526 2
  23518735.897     5954379.121 5   4599904.671 1
  22958730.475    -9249217.923 6  -6990065.154 1
  24688591.201    12252305.907 3   9477081.792 1
  21398537.654   -17564585.994 7 -12658413.971 2
  24037545.326    -2945479.860 3  -2063283.765 1
 90 10 12 17 13 14.9980000  0  6 12 13 16 09 20 03
  21723438.779     4097920.786 7   3191726.554 2
  23523146.498     5977534.336 5   4617947.552 1
  22948053.506    -9305334.085 6  -7033791.946 1
  24698468.428    12304193.523 3   9517513.389 1
  21389233.748   -17613479.454 7 -12696512.759 2
  24029632.561    -2987091.006 4
 90 10 12 17 13 29.9980000  0  6 12 13 16 09 20 03
  21729458.350     4129556.592 7   3216377.757 2
  23527549.740     6000677.076 5   4635980.752 1
  22937375.592    -9361424.141 6  -7077498.400 1
  24708335.521    12356061.214 3   9557929.472 1
  21379939.100   -17662307.355 7 -12734560.459 2
  24021711.232    -3028693.686 4
 90 10 12 17 13 44.9980000  0  6 12 13 16 09 20 03
  21735496.912     4161288.911 7   3241104.160 2
  23531950.787     6023810.323 5   4654006.533 1
  22926708.842    -9417484.997 6  -7121182.095 1
  24718204.342    12407911.682 3   9598332.125 1
  21370661.498   -17711066.436 7 -12772554.535 2
  24013792.397    -3070284.881 4
 90 10 12 17 13 59.9980000  0  6 12 13 16 09 20 03
  21741553.607     4193126.511 7   3265912.594 2
  23536359.881     6046943.154 5   4672032.000 1
  22916050.357    -9473506.869 6  -7164835.418 1
  24728072.647    12459753.799 4   9638728.293 1
  21361398.639   -17759747.391 7 -12810487.733 2
  24005889.467    -3111855.481 5
 90 10 12 17 14 14.9980000  0  6 12 13 16 09 20 03
  21747633.279     4225064.385 7   3290799.170 2
  23540754.186     6070071.313 5   4690053.779 1
  22905394.982    -9529494.037 6  -7208461.677 1
  24737935.717    12511582.715 4   9679114.172 1
  21352150.092   -17808354.395 7 -12848363.304 2
  23997976.584    -3153410.164 4
 90 10 12 17 14 29.9980000  0  6 12 13 16 09 20 03
  21753728.678     4257097.601 7   3315760.036 2
  23545158.678     6093190.141 5   4708068.374 1
  22894746.865    -9585450.795 6  -7252064.256 1
  24747795.834    12563393.398 4   9719485.805 1
  21342913.498   -17856891.452 7 -12886184.366 2
  23990071.576    -3194953.489 4
 90 10 12 17 14 44.9980000  0  6 12 13 16 09 20 03
  21759842.545     4289224.742 7   3340794.090 2
  23549554.272     6116298.601 5   4726074.824 1
  22884102.326    -9641377.686 5  -7295643.555 1
  24757653.326    12615184.287 4   9759842.021 1
  21333690.529   -17905359.434 7 -12923951.604 2
  23982169.092    -3236486.602 4
 90 10 12 17 14 59.9980000  0  6 12 13 16 09 20 03
  21765974.162     4321444.015 7   3365899.938 2
  23553948.693     6139395.197 5   4744072.062 1
  22873464.725    -9697275.815 6  -7339200.438 1
  24767501.365    12666953.703 3   9800181.492 1
  21324480.576   -17953759.812 7 -12961666.163 2
  23974270.334    -3278011.133 5
 90 10 12 17 15 14.9980000  0  6 12 13 16 09 20 03
  21772124.912     4353758.242 7   3391079.773 2
  23558341.006     6162483.187 5   4762062.574 1
  22862835.779    -9753141.529 6  -7382732.068 1
  24777350.725    12718704.454 3   9840506.372 1
  21315283.029   -18002088.672 7 -12999324.996 2
  23966374.365    -3319523.639 5        -0.49411
 90 10 12 17 15 29.9980000  0  6 12 13 16 09 20 03
  21778288.928     4386163.897 7   3416330.838 2
  23562735.592     6185559.695 5   4780044.125 1
  22852210.342    -9808977.620 6  -7426240.619 1
  24787191.537    12770433.042 3   9880814.036 1
  21306099.037   -18050348.584 7 -13036930.102 2
  23958469.498    -3361027.489 4    -32341.158 1
 90 10 12 17 15 44.9980000  0  6 12 13 16 09 20 03
  21784473.053     4418660.897 7   3441653.097 2
  23567127.873     6208625.019 5   4798016.988 1
  22841590.053    -9864783.301 6  -7469725.469 1
  24797030.115    12822139.572 3   9921104.555 1
  21296928.967   -18098539.067 7 -13074481.108 2
  23950574.553    -3402522.406 4    -64674.839 1
 90 10 12 17 15 59.9980000  0  6 12 13 16 09 20 03
  21790675.561     4451249.770 7   3467046.944 2
  23571509.779     6231679.830 5   4815981.661 1
  22830976.764    -9920557.350 6  -7513185.674 1
  24806860.248    12873824.417 2   9961378.152 1
  21287771.834   -18146659.112 7 -13111977.218 2
  23942679.186    -3444007.484 4    -97000.862 1
 90 10 12 17 16 14.9980000  0  6 12 13 16 09 20 03
  21796893.576     4483932.231 7   3492513.721 2
  23575899.193     6254726.333 5   4833939.874 1
  22820369.990    -9976297.485 6  -7556619.455 1
  24816697.850    12925489.427 3  10001636.274 1
  21278628.951   -18194706.230 7 -13149416.505 2
  23934795.264    -3485480.973 4   -129317.844 1
 90 10 12 17 16 29.9980000  0  6 12 13 16 09 20 03
  21803131.162     4516708.737 7   3518053.769 2
  23580278.951     6277765.459 4   4851892.301 1
  22809767.498   -10032002.170 6  -7600025.606 1
  24826529.029    12977134.910 2  10041879.178 1
  21269501.014   -18242679.125 7 -13186797.958 2
  23926900.771    -3526941.730 4   -161624.882 1
 90 10 12 17 16 44.9980000  0  6 12 13 16 09 20 03
  21809384.311     4549570.948 7   3543660.603 2
  23584660.350     6300789.211 5   4869832.739 1
  22799173.576   -10087679.082 6  -7643410.122 1
  24836346.303    13028752.660 2  10082100.430 1
  21260383.607   -18290585.501 7 -13224127.579 2
  23919017.451    -3568397.923 3   -193928.392 1
 90 10 12 17 16 59.9980000  0  6 12 13 16 09 20 03
  21815657.084     4582530.867 7   3569343.579 2
  23589042.256     6323810.045 5   4887770.937 1
  22788587.303   -10143315.424 6  -7686763.032 1
  24846166.537    13080354.684 2  10122309.478 1
  21251282.686   -18338412.569 7 -13261395.402 2
  23911123.311    -3609837.185 3   -226218.664 1
 90 10 12 17 17 14.9980000  0  5 12 13 16 20 03
  21821956.217     4615621.443 7   3595128.363 2
  23593429.084     6346861.335 5   4905732.819 1
  22778013.256   -10198877.444 6  -7730058.027 1
  21242203.264   -18386126.911 7 -13298575.384 2
  23903244.842    -3651226.284 3   -258469.886 1
 90 10 12 17 17 29.9980000  0  5 12 13 16 20 03
  21828265.576     4648788.805 7   3620972.982 2
  23597813.295     6369889.629 5   4923676.852 1
  22767446.709   -10254418.288 6  -7773336.518 1
  21233135.334   -18433781.531 7 -13335708.828 2
  23895370.779    -3692618.677 4   -290723.682 1
 90 10 12 17 17 44.9980000  0  5 12 13 16 20 03
  21834595.147     4682044.312 7   3646886.287 2
  23602190.389     6392906.835 5   4941612.188 1
  22756883.271   -10309925.702 6  -7816588.955 1
  21224079.357   -18481364.273 7 -13372786.262 2
  23887504.553    -3734002.713 5   -322970.957 1
 90 10 12 17 17 59.9980000  0  5 12 13 16 20 03
  21840935.748     4715370.158 7   3672854.390 2
  23606567.772     6415895.525 5   4959525.361 1
  22746322.271   -10365416.849 6  -7859828.726 1
  21215034.428   -18528892.128 7 -13409820.935 2
  23879620.467    -3775395.926 5   -355225.421 1
 90 10 12 17 18 14.9980000  0  5 12 13 16 20 03
  21847293.615     4748783.908 7   3698890.995 2
  23610939.654     6438873.748 5   4977430.311 1
  22735769.436   -10420873.238 6  -7903041.416 1
  21206003.303   -18576347.002 7 -13446798.737 2
  23871743.459    -3816780.328 5   -387473.005 1
 90 10 12 17 18 29.9980000  0  5 12 13 16 20 03
  21853670.014     4782288.520 7   3724998.406 2
  23615312.592     6461844.886 5   4995329.795 1
  22725224.154   -10476291.364 6  -7946224.289 1
  21196989.092   -18623725.358 7 -13483716.914 2
  23863876.404    -3858152.819 5   -419711.336 1
 90 10 12 17 18 44.9980000  0  5 12 13 16 20 03
  21860060.389     4815876.077 7   3751170.445 2
  23619682.217     6484801.437 5   5013217.906 1
  22714681.904   -10531678.281 6  -7989382.836 1
  21187986.639   -18671034.196 7 -13520580.916 2
  23856002.084    -3899520.760 4   -451946.092 1
 90 10 12 17 18 59.9980000  0  5 12 13 16 20 03
  21866469.146     4849550.047 7   3777409.823 2
  23624045.037     6507747.086 5   5031097.510 1
  22704152.459   -10587029.659 6  -8032513.704 1
  21178999.264   -18718269.557 7 -13557387.672 3
  23848127.889    -3940880.424 3   -484174.422 1
 90 10 12 17 19 14.9980000  0  5 12 13 16 20 03
  21872894.857     4883314.084 7   3803719.381 2
  23628409.670     6530686.008 5   5048971.872 1
  22693624.982   -10642340.994 6  -8075613.368 1
  21170024.545   -18765426.875 7 -13594133.617 3
  23840261.178    -3982227.953 4   -516393.234 1
 90 10 12 17 19 29.9980000  0  5 12 13 16 20 03
  21879336.654     4917161.272 7   3830093.727 2
  23632775.646     6553611.728 5   5066835.942 1
  22683105.389   -10697618.684 6  -8118686.815 1
  21161063.865   -18812512.292 7 -13630823.535 3
  23832394.209    -4023569.750 3   -548607.597 1
 90 10 12 17 19 44.9980000  0  5 12 13 16 20 03
  21885793.178     4951092.723 7   3856533.727 2
  23637129.865     6576525.801 5   5084690.902 1
  22672594.959   -10752860.529 6  -8161732.339 1
  21152118.147   -18859523.993 7 -13667456.012 3
  23824534.873    -4064904.565 4   -580816.498 1
 90 10 12 17 19 59.9980000  0  5 12 13 16 20 03
  21892265.881     4985113.168 7   3883043.079 2
  23641494.076     6599433.237 5   5102540.705 1
  22662092.639   -10808061.149 6  -8204745.736 1
  21143186.818   -18906456.617 7 -13704026.877 3
  23816663.107    -4106227.172 3   -613015.938 1
 90 10 12 17 20 14.9980000  0  5 12 13 16 20 03
  21898756.623     5019216.438 7   3909616.966 1
  23645851.076     6622328.452 5   5120381.017 1
  22651591.389   -10863225.994 6  -8247731.256 1
  21134269.482   -18953315.619 7 -13740540.360 3
  23808803.076    -4147543.228 4   -645210.230 1
 90 10 12 17 20 29.9980000  0  5 12 13 16 20 03
  21905262.076     5053402.449 7   3936255.332 1
  23650205.561     6645211.771 5   5138212.058 1
  22641102.303   -10918354.344 6  -8290688.342 1
  21125367.904   -19000100.275 7 -13776995.913 2
  23800943.240    -4188852.827 4   -677399.494 1
 90 10 12 17 20 44.9980000  0  5 12 13 16 20 03
  21911784.342     5087673.456 7   3962959.932 1
  23654556.553     6668086.031 5   5156036.041 1
  22630618.482   -10973442.957 6  -8333614.469 1
  21116480.240   -19046807.595 7 -13813391.202 2
  23793084.061    -4230153.219 5   -709581.613 1
 90 10 12 17 20 59.9980000  0  5 12 13 16 20 03
  21918322.490     5122028.528 7   3989730.030 2
  23658910.061     6690950.609 5   5173852.456 1
  22620144.568   -11028492.273 6  -8376509.972 1
  21107605.131   -19093437.778 7 -13849726.379 2
  23785226.217    -4271445.035 5   -741757.055 1
 90 10 12 17 21 14.9980000  0  5 12 13 16 20 03
  21924873.381     5156463.994 7   4016562.778 2
  23663257.365     6713802.300 5   5191658.836 1
  22609676.022   -11083504.919 6  -8419376.909 1
  21098746.248   -19139993.832 7 -13886003.796 2
  23777364.318    -4312731.490 4   -773928.294 1
 90 10 12 17 21 29.9980000  0  5 12 13 16 20 03
  21931441.959     5190980.960 7   4043459.026 2
  23667603.334     6736642.712 5   5209456.398 1
  22599213.420   -11138479.252 6  -8462213.995 1
  21089901.998   -19186473.791 7 -13922221.917 2
  23769507.373    -4354011.430 4   -806094.447 1
 90 10 12 17 21 44.9980000  0  5 12 13 16 20 03
  21938028.482     5225582.753 7   4070421.379 2
  23671946.334     6759475.344 5   5227247.934 1
  22588759.951   -11193410.989 6  -8505017.889 1
  21081072.193   -19232873.831 7 -13958377.771 2
  23761657.959    -4395280.851 3   -838252.430 1
 90 10 12 17 21 59.9980000  0  5 12 13 16 20 03
  21944628.459     5260271.181 7   4097451.241 2
  23676292.256     6782302.504 5   5245035.156 1
  22578317.084   -11248297.506 6  -8547786.545 1
  21072257.842   -19279191.458 7 -13994469.410 3
  23753806.732    -4436537.725 4   -870400.653 1
 90 10 12 17 22 14.9980000  0  5 12 13 16 20 03
  21951247.037     5295045.680 7   4124548.167 1
  23680633.771     6805124.272 5   5262818.244 1
  22567879.396   -11303138.745 6  -8590519.922 1
  21063458.779   -19325426.381 7 -14030496.608 3
  23745961.428    -4477782.401 4   -902539.350 1
 90 10 12 17 22 29.9980000  0  5 12 13 16 20 03
  21957880.193     5329901.834 7   4151708.723 1
  23684979.061     6827936.615 5   5280593.943 1
  22557450.975   -11357938.037 6  -8633220.627 1
  21054675.396   -19371582.327 7 -14066462.261 2
  23738114.357    -4519018.778 4   -934671.589 1
 90 10 12 17 22 44.9980000  0  5 12 13 16 20 03
  21964525.928     5364836.817 7   4178930.699 1
  23689314.912     6850737.132 5   5298360.485 1
  22547033.498   -11412697.535 6  -8675890.320 1
  21045907.889   -19417661.260 7 -14102367.909 3
  23730264.482    -4560249.460 4   -966799.385 1
 90 10 12 17 22 59.9980000  0  5 12 13 16 20 03
  21971190.139     5399847.794 7   4206211.890 1
  23693653.537     6873523.326 5   5316115.782 1
  22536616.842   -11467419.375 6  -8718530.664 1
  21037154.662   -19463665.344 7 -14138215.229 3
  23722419.670    -4601476.777 4   -998924.551 1
 90 10 12 17 23 14.9980000  0  5 12 13 16 20 03
  21977868.756     5434954.723 7   4233567.853 1
  23697988.248     6896315.492 5   5333875.789 1
  22526215.061   -11522082.895 6  -8761125.584 1
  21028417.217   -19509574.012 7 -14173988.194 3
  23714578.959    -4642680.619 4  -1031031.448 1
 90 10 12 17 23 29.9980000  0  5 12 13 16 20 03
  21984566.326     5470141.554 7   4260986.074 1
  23702327.725     6919098.251 5   5351628.462 1
  22515823.803   -11576703.264 6  -8803686.866 1
  21019696.279   -19555402.545 7 -14209698.716 2
  23706743.420    -4683876.480 5  -1063132.101 1
 90 10 12 17 23 44.9980000  0  5 12 13 16 20 03
  21991276.607     5505409.749 7   4288467.690 1
  23706660.123     6941873.494 5   5369375.269 1
  22505436.389   -11631278.163 6  -8846212.722 1
  21010992.061   -19601148.740 7 -14245345.078 3
  23698910.061    -4725062.970 5  -1095225.452 1
 90 10 12 17 23 59.9980000  0  5 12 13 16 20 03
  21998004.568     5540760.476 7   4316013.620 1
  23710993.592     6964642.874 5   5387117.527 1
  22495059.084   -11685805.790 6  -8888701.744 1
  21002301.920   -19646810.749 7 -14280925.839 3
  23691072.006    -4766238.301 5  -1127310.088 1
 90 10 12 17 24 14.9980000  0  5 12 13 16 20 03
  22004746.607     5576191.496 7   4343622.120 1
  23715325.459     6987404.452 5   5404853.695 1
  22484695.600   -11740287.441 6  -8931154.942 1
  20993628.772   -19692389.984 7 -14316442.106 3
  23683240.147    -4807404.291 5  -1159387.456 1
 90 10 12 17 24 29.9980000  0  5 12 13 16 20 03
  22011503.795     5611698.217 7   4371289.595 1
  23719652.037     7010154.172 5   5422580.611 1
  22474333.701   -11794726.864 6  -8973575.220 1
  20984970.701   -19737890.581 8 -14351897.099 3
  23675398.037    -4848565.294 4  -1191460.960 1
 90 10 12 17 24 44.9980000  0  5 12 13 16 20 03
  22018274.943     5647289.743 6   4399023.163 1
  23723980.311     7032901.681 5   5440305.811 1
  22463983.154   -11849114.327 6  -9015955.024 1
  20976329.342   -19783302.704 8 -14387283.152 3
  23667571.904    -4889711.916 4  -1223523.229 1
 90 10 12 17 24 59.9980000  0  5 12 13 16 20 03
  22025065.420     5682964.481 6   4426821.564 1
  23728307.881     7055645.394 5   5458028.013 1
  22453642.959   -11903450.673 6  -9058294.995 1
  20967701.592   -19828627.142 7 -14422600.877 3
  23659747.748    -4930845.427 4  -1255575.275 1
 90 10 12 17 25 14.9980000  0  5 12 13 16 20 03
  22031871.561     5718720.902 7   4454683.620 1
  23732638.123     7078384.445 5   5475746.611 1
  22443313.279   -11957736.441 6  -9100595.550 1
  20959095.123   -19873864.381 7 -14457850.657 3
  23651916.787    -4971966.811 5  -1287617.868 1
 90 10 12 17 25 29.9980000  0  5 12 13 16 20 03
  22038689.779     5754558.575 6   4482608.974 1
  23736962.959     7101119.082 5   5493461.774 1
  22432993.061   -12011971.295 6  -9142856.423 1
  20950503.514   -19919014.103 7 -14493032.239 3
  23644098.154    -5013076.272 5  -1319651.208 1
 90 10 12 17 25 44.9980000  0  5 12 13 16 20 03
  22045525.342     5790476.363 7   4510596.771 1
  23741286.068     7123848.650 5   5511173.011 1
  22422681.982   -12066155.514 6  -9185077.851 1
  20941928.498   -19964076.889 7 -14528146.077 2
  23636278.826    -5054174.388 5  -1351675.672 1
 90 10 12 17 25 59.9980000  0  5 12 13 16 20 03
  22052374.615     5826473.354 7   4538646.282 1
  23745613.178     7146572.754 5   5528879.958 1
  22412380.646   -12120289.221 6  -9227259.908 1
  20933368.873   -20009052.810 7 -14563192.225 2
  23628459.232    -5095261.858 5  -1383691.864 1
 90 10 12 17 26 14.9980000  0  5 12 13 16 20 03
  22059240.787     5862548.686 7   4566756.831 1
  23749933.787     7169290.629 5   5546582.072 1
  22402088.545   -12174372.594 6  -9269402.746 1
  20924826.959   -20053942.172 7 -14598170.922 2
  23620644.193    -5136339.213 5  -1415700.167 1
 90 10 12 17 26 29.9980000  0  5 12 13 16 20 03
  22066118.240     5898693.979 7   4594921.900 1
  23754256.506     7191994.556 5   5564273.336 1
  22391804.818   -12228413.226 6  -9311512.283 1
  20916299.764   -20098752.567 7 -14633088.085 2
  23612819.943    -5177414.513 5  -1447706.863 1
 90 10 12 17 26 44.9980000  0  5 12 13 16 20 03
  22073009.279     5934920.557 7   4623150.301 1
  23758572.475     7214696.495 5   5581963.012 1
  22381534.271   -12282398.873 6  -9353578.974 1
  20907789.920   -20143471.874 7 -14667934.274 2
  23605009.170    -5218476.220 5  -1479702.975 1
 90 10 12 17 26 59.9980000  0  5 12 13 16 20 03
  22079918.787     5971219.050 7   4651434.742 1
  23762895.529     7237387.364 4   5599644.086 1
  22371270.076   -12336338.149 6  -9395609.528 1
  20899297.029   -20188108.655 7 -14702716.151 2
  23597202.717    -5259532.918 5  -1511695.187 1
 90 10 12 17 27 14.9980000  0  5 12 13 16 20 03
  22086841.514     6007593.921 7   4679778.690 1
  23767209.811     7260071.909 5   5617320.213 1
  22361012.131   -12390225.799 6  -9437599.859 1
  20890819.568   -20232657.970 7 -14737429.874 3
  23589385.342    -5300580.365 5  -1543680.169 1
 90 10 12 17 27 29.9980000  0  5 12 13 16 20 03
  22093777.529     6044044.196 6   4708181.395 1
  23771523.912     7282749.739 5   5634991.120 1
  22350767.318   -12444062.039 6  -9479550.126 1
  20882358.936   -20277119.958 8 -14772075.553 3
  23581575.428    -5341618.854 5  -1575658.207 1
 90 10 12 17 27 44.9980000  0  5 12 13 16 20 03
  22100728.459     6080569.851 7   4736642.846 1
  23775841.232     7305421.153 5   5652657.030 1
  22340532.865   -12497846.252 6  -9521459.847 1
  20873914.186   -20321494.083 8 -14806652.780 3
  23573768.342    -5382648.296 5  -1607629.166 1
 90 10 12 17 27 59.9980000  0  5 12 13 16 20 03
  22107692.701     6117170.543 7   4765162.771 1
  23780152.240     7328086.138 5   5670317.918 1
  22330309.170   -12551577.996 6  -9563328.693 1
  20865486.537   -20365780.080 8 -14841161.329 3
  23565959.342    -5423668.443 5  -1639592.890 1
 90 10 12 17 28 14.9980000  0  5 12 13 16 20 03
  22114673.350     6153847.919 6   4793742.434 1
  23784461.459     7350747.112 5   5687975.683 1
  22320093.951   -12605254.716 6  -9605154.653 1
  20857076.420   -20409975.225 8 -14875599.090 3
  23558157.615    -5464677.450 5  -1671547.883 1
 90 10 12 17 28 29.9980000  0  5 12 13 16 20 03
  22121667.170     6190605.730 6   4822384.778 1
  23788775.287     7373408.410 5   5705633.691 1
  22309891.818   -12658871.630 6  -9646934.018 1
  20848685.717   -20454074.886 8 -14909962.449 3
  23550359.193    -5505670.988 5  -1703490.858 1
 90 10 12 17 28 44.9980000  0  5 12 13 16 20 03
  22128689.756     6227510.868 6   4851141.940 1
  23793104.834     7396137.213 5   5723344.291 1
  22299711.646   -12712361.269 6  -9688614.197 1
  20840324.014   -20498011.603 8 -14944198.830 3
  23542577.318    -5546581.942 5  -1735369.464 1
 90 10 12 17 28 59.9980000  0  5 12 13 16 20 03
  22135736.686     6264536.375 6   4879992.883 1
  23797434.850     7418906.924 5   5741086.792 1
  22289553.600   -12765749.747 6  -9730215.565 1
  20831989.193   -20541811.740 8 -14978328.790 3
  23534791.639    -5587436.899 4  -1767204.472 1
 90 10 12 17 29 14.9980000  0  5 12 13 16 20 03
  22142783.100     6301571.608 6   4908851.404 1
  23801756.850     7441607.286 5   5758775.234 1
  22279391.123   -12819147.023 6  -9771823.773 1
  20823659.381   -20585585.332 8 -15012438.067 3
  23527014.115    -5628346.288 4  -1799081.842 1
 90 10 12 17 29 29.9980000  0  5 12 13 16 20 03
  22149846.139     6338686.300 6   4937771.839 1
  23806077.779     7464308.744 5   5776464.520 1
  22269244.123   -12872482.591 6  -9813383.898 1
  20815347.076   -20629261.670 8 -15046471.556 3
  23519235.592    -5669239.887 4  -1830946.912 1
 90 10 12 17 29 44.9980000  0  5 12 13 16 20 03
  22156921.240     6375869.177 6   4966745.413 1
  23810393.693     7487000.294 5   5794146.108 1
  22259102.279   -12925766.365 6  -9854903.665 1
  20807053.279   -20672851.217 8 -15080437.416 3
  23511450.076    -5710128.578 4  -1862808.202 1
 90 10 12 17 29 59.9980000  0  5 12 13 16 20 03
  22164014.521     6413139.233 6   4995786.911 1
  23814716.482     7509701.494 5   5811835.184 1
  22248973.834   -12978979.080 6  -9896368.064 1
  20798778.365   -20716334.302 8 -15114320.323 3
  23503676.443    -5750993.086 4  -1894650.645 1
 90 10 12 17 30 14.9980000  0  5 12 13 16 20 03
  22171117.568     6450464.399 6   5024871.358 1
  23819033.600     7532380.810 5   5829507.230 1
  22238859.764   -13032151.858 6  -9937801.336 1
  20790517.670   -20759742.289 8 -15148144.713 3
  23495893.264    -5791865.007 5  -1926498.852 1
 90 10 12 17 30 29.9980000  0  5 12 13 16 20 03
  22178224.912     6487805.411 6   5053968.145 1
  23823338.232     7554999.342 5   5847131.917 1
  22228739.896   -13085323.029 6  -9979233.359 1
  20782265.381   -20803113.551 8 -15181940.492 3
  23488116.873    -5832783.429 5  -1958383.277 1
 90 10 12 17 30 44.9980000  0  5 12 13 16 20 03
  22185349.420     6525254.157 6   5083148.890 1
  23827644.842     7577649.437 5   5864781.200 1
  22218638.857   -13138400.240 6 -10020592.165 1
  20774036.514   -20846355.641 8 -15215635.616 3
  23480331.756    -5873656.128 5  -1990232.131 1
 90 10 12 17 30 59.9980000  0  5 12 13 16 20 03
  22192492.146     6562799.957 6   5112405.233 1
  23831958.225     7600321.112 5   5882447.273 1
  22208556.021   -13191393.358 6 -10061885.444 1
  20765829.764   -20889478.642 8 -15249237.934 3
  23472564.545    -5914493.360 5  -2022053.303 1
 90 10 12 17 31 14.9980000  0  5 12 13 16 20 03
  22199653.514     6600419.460 6   5141719.029 1
  23836274.014     7622991.443 5   5900112.351 1
  22198481.951   -13244324.513 6 -10103130.445 1
  20757643.092   -20932504.985 8 -15282764.941 3
  23464798.193    -5955317.854 5  -2053864.554 1
 90 10 12 17 31 29.9980000  0  5 12 13 16 20 03
  22206825.678     6638110.822 6   5171088.807 1
  23840586.709     7645658.755 4   5917775.026 1
  22188420.396   -13297195.004 6 -10144328.169 1
  20749472.576   -20975435.989 8 -15316217.651 3
  23457031.076    -5996131.392 5  -2085667.294 1
 90 10 12 17 31 44.9980000  0  5 12 13 16 20 03
  22214018.006     6675895.109 6   5200531.001 1
  23844904.162     7668344.585 4   5935452.118 1
  22178374.936   -13349983.034 6 -10185461.645 1
  20741325.553   -21018249.705 8 -15349578.965 2
  23449259.928    -6036912.634 4  -2117444.854 1
 90 10 12 17 31 59.9980000  0  5 12 13 16 20 03
  22221219.904     6713757.433 6   5230034.008 1
  23849223.271     7691034.642 4   5953132.553 1
  22168344.607   -13402702.680 6 -10226541.836 1
  20733197.764   -21060960.362 8 -15382859.975 2
  23441505.178    -6077675.819 4  -2149208.353 1
 90 10 12 17 32 14.9980000  0  5 12 13 16 20 03
  22228437.764     6751690.178 6   5259591.865 1
  23853538.115     7713721.629 4   5970810.547 1
  22158322.787   -13455360.892 6 -10267574.157 1
  20725089.381   -21103574.754 8 -15416065.969 2
  23433754.647    -6118428.420 4  -2180963.600 1
 90 10 12 17 32 29.9980000  0  5 12 13 16 20 03
  22235671.561     6789692.659 6   5289204.075 1
  23857856.818     7736405.521 4   5988486.190 1
  22148314.639   -13507957.296 6 -10308558.319 1
  20716997.889   -21146092.715 8 -15449196.831 3
  23426005.373    -6159170.697 3  -2212710.811 1
 90 10 12 17 32 44.9980000  0  5 12 13 16 20 03
  22242916.107     6827774.176 6   5318877.869 1
  23862176.342     7759096.130 4   6006167.018 1
  22138320.248   -13560481.764 6 -10349486.427 1
  20708927.295   -21188504.375 8 -15482244.866 3
  23418250.436    -6199893.003 4  -2244442.459 1
 90 10 12 17 32 59.9980000  0  5 12 13 16 20 03
  22250177.662     6865923.931 6   5348604.843 1
  23866491.107     7781782.973 3   6023844.934 1
  22128338.178   -13612944.457 6 -10390366.400 1
  20700874.943   -21230819.835 8 -15515217.944 3
  23410508.318    -6240605.803 4  -2276166.750 1
 90 10 12 17 33 14.9980000  0  5 12 13 16 20 03
  22257451.654     6904145.118 6   5378387.465 1
  23870811.396     7804469.870 4   6041522.884 1
  22118365.201   -13665341.291 6 -10431195.053 1
  20692840.553   -21273035.130 8 -15548112.973 3
  23402765.303    -6281305.509 5  -2307880.746 1
 90 10 12 17 33 29.9980000  0  5 12 13 16 20 03
  22264736.295     6942432.528 6   5408221.706 1
  23875128.436     7827151.972 4   6059197.122 1
  22108406.076   -13717676.768 6 -10471975.886 1
  20684826.357   -21315154.756 8 -15580933.449 4
  23395025.404    -6321996.878 5  -2339588.274 1
 90 10 12 17 33 44.9980000  0  5 12 13 16 20 03
  22272034.123     6980781.169 6   5438103.650 1
  23879439.889     7849824.787 4   6076864.105 1
  22098457.896   -13769954.805 6 -10512711.978 1
  20676829.295   -21357182.872 8 -15613682.629 4
  23387277.131    -6362684.848 5  -2371293.137 1
 90 10 12 17 33 59.9980000  0  5 12 13 16 20 03
  22279343.068     7019190.478 6   5468032.875 1
  23883753.936     7872488.223 5   6094523.789 1
  22088518.772   -13822175.482 6 -10553403.367 1
  20668848.545   -21399119.133 8 -15646360.228 3
  23379531.756    -6403369.181 5  -2402995.160 1
 90 10 12 17 34 14.9980000  0  5 12 13 16 20 03
  22286662.701     7057662.242 6   5498010.770 1
  23888064.631     7895144.614 4   6112177.944 1
  22078594.646   -13874336.030 6 -10594047.911 1
  20660886.732   -21440961.172 8 -15678964.403 3
  23371791.639    -6444047.879 5  -2434692.813 1
 90 10 12 17 34 29.9980000  0  5 12 13 16 20 03
  22293999.904     7096204.631 6   5528043.699 1
  23892377.178     7917802.701 4   6129833.519 1
  22068682.162   -13926427.546 6 -10634638.657 1
  20652943.420   -21482700.177 8 -15711488.285 3
  23364051.592    -6484712.517 5  -2466379.538 1
 90 10 12 17 34 44.9980000  0  5 12 13 16 20 03
  22301344.521     7134810.356 6   5558125.961 1
  23896690.115     7940455.521 4   6147484.903 1
  22058782.303   -13978456.579 6 -10675180.704 1
  20645018.725   -21524342.674 8 -15743936.968 3
  23356316.443    -6525369.985 5  -2498060.662 1
 90 10 12 17 34 59.9980000  0  5 12 13 16 20 03
  22308705.982     7173481.671 6   5588259.340 1
  23900999.811     7963105.682 4   6165134.211 1
  22048892.904   -14030419.788 6 -10715671.494 1
  20637113.397   -21565885.539 8 -15776308.015 3
  23348579.420    -6566017.588 5  -2529734.098 1
 90 10 12 17 35 14.9980000  0  5 12 13 16 20 03
  22316077.607     7212222.507 6   5618446.901 1
  23905308.139     7985757.430 3   6182784.773 1
  22039017.818   -14082312.618 6 -10756107.429 1
  20629228.857   -21607324.449 8 -15808598.056 3
  23340847.928    -6606651.103 4  -2561396.585 1
 90 10 12 17 35 29.9980000  0  5 12 13 16 20 03
  22323458.881     7251024.406 6   5648682.021 1
  23909621.725     8008403.078 3   6200430.540 1
  22029156.232   -14134143.160 6 -10796494.827 1
  20621361.045   -21648667.148 8 -15840813.131 3
  23333121.404    -6647278.912 5  -2593054.603 1
 90 10 12 17 35 44.9980000  0  5 12 13 16 20 03
  22330858.209     7289889.663 6   5678966.510 1
  23913924.873     8031045.409 4   6218073.790 1
  22019305.295   -14185907.878 6 -10836830.942 1
  20613512.881   -21689910.447 8 -15872950.747 3
  23325390.701    -6687898.046 5  -2624705.862 1
 90 10 12 17 35 59.9980000  0  5 12 13 16 20 03
  22338265.006     7328817.798 6   5709300.017 1
  23918231.506     8053684.461 4   6235714.424 1
  22009466.537   -14237606.328 6 -10877115.415 1
  20605683.240   -21731054.016 8 -15905010.661 3
  23317665.162    -6728508.574 5  -2656350.418 1
 90 10 12 17 36 14.9980000  0  5 12 13 16 20 03
  22345684.061     7367808.874 6   5739682.550 1
  23922543.803     8076320.762 4   6253352.942 1
  21999644.326   -14289237.828 6 -10917347.723 1
  20597872.623   -21772096.959 8 -15936992.163 3
  23309932.615    -6769110.016 5  -2687987.883 1
 90 10 12 17 36 29.9980000  0  5 12 13 16 20 03
  22353115.279     7406860.000 6   5770111.875 1
  23926849.100     8098951.757 4   6270987.347 1
  21989831.217   -14340804.370 6 -10957529.411 1
  20590081.803   -21813041.569 8 -15968897.047 3
  23302211.561    -6809704.774 5  -2719620.154 1
 90 10 12 17 36 44.9980000  0  5 12 13 16 20 03
  22360559.217     7445967.312 6   5800584.972 1
  23931156.248     8121574.056 5   6288614.968 1
  21980027.537   -14392309.134 6 -10997662.958 1
  20582309.803   -21853891.118 8 -16000727.857 3
  23294482.982    -6850296.650 5  -2751250.145 1
 90 10 12 17 36 59.9980000  0  5 12 13 16 20 03
  22368010.475     7485134.207 6   5831104.510 1
  23935460.287     8144191.671 5   6306238.936 1
  21970240.764   -14443747.969 6 -11037745.146 1
  20574554.318   -21894641.355 8 -16032481.279 3
  23286755.904    -6890882.033 5  -2782875.076 1
 90 10 12 17 37 14.9980000  0  5 12 13 16 20 03
  22375475.811     7524358.309 6   5861668.637 1
  23939761.639     8166802.735 5   6323857.770 1
  21960463.834   -14495122.275 6 -11077777.043 1
  20566817.772   -21935293.655 8
  23279039.139    -6931462.512 5
 90 10 12 17 37 29.9980000  0  5 12 13 16 20 03
  22382947.498     7563637.082 6   5892275.334 1
  23944063.084     8189404.979 5   6341469.764 1
  21950698.904   -14546433.822 6 -11117760.037 1
  20559099.537   -21975850.208 8
  23271320.545    -6972040.573 5
 90 10 12 17 37 44.9980000  0  5 12 13 16 20 03
  22390433.357     7602967.504 6   5922922.302 1
  23948359.373     8211995.930 4   6359072.977 1
  21940947.857   -14597684.740 6 -11157695.785 1
  20551400.631   -22016313.138 8 -16127290.430 3
  23263595.389    -7012618.442 5
 90 10 12 17 37 59.9980000  0  5 12 13 16 20 03
  22397931.381     7642365.537 6   5953621.928 1
  23952663.170     8234592.268 4   6376680.377 1
  21931209.076   -14648858.464 6 -11197571.376 1
  20543721.592   -22056665.866 8 -16158734.103 3
  23255878.623    -7053180.336 5
 90 10 12 17 38 14.9980000  0  5 12 13 16 20 03
  22405434.412     7681816.631 5   5984362.932 1
  23956961.959     8257179.546 4   6394280.698 1
  21921482.740   -14699968.746 6 -11237397.545 1
  20536061.295   -22096922.100 8 -16190102.582 3
  23248156.811    -7093740.316 5        -0.37311
 90 10 12 17 38 29.9980000  0  5 12 13 16 20 03
  22412956.686     7721323.008 5   6015146.991 1
  23961256.256     8279760.732 4   6411876.323 1
  21911768.709   -14751012.508 6 -11277171.867 1
  20528420.365   -22137079.169 8 -16221393.805 3
  23240445.795    -7134295.578 5    -31601.861 1
 90 10 12 17 38 44.9980000  0  5 12 13 16 20 03
  22420488.951     7760895.257 6   6045982.377 1
  23965556.467     8302346.896 4
  21902071.522   -14801978.390 6 -11316885.500 1
  20520798.357   -22177125.381 8 -16252598.641 4
  23232727.232    -7174835.361 5    -63191.295 1
 90 10 12 17 38 59.9980000  0  4 12 16 20 03
  22428030.318     7800525.066 6   6076862.633 1
  21892386.498   -14852873.900 6 -11356544.299 1
  20513197.912   -22217068.527 8 -16283723.161 4
  23225010.631    -7215367.378 5    -94774.669 1
 90 10 12 17 39 14.9980000  0  4 12 16 20 03
  22435579.975     7840210.136 5   6107785.952 1
  21882713.771   -14903700.443 6 -11396149.358 1
  20505615.178   -22256910.095 8 -16314768.537 3
  23217309.100    -7255893.887 5   -126353.736 1
 90 10 12 17 39 29.9980000  0  4 12 16 20 03
  22443147.889     7879970.519 5   6138767.925 1
  21873058.889   -14954437.283 6 -11435684.512 1
  20498058.521   -22296629.375 8 -16345718.617 3
  23209590.826    -7296394.247 5   -157912.404 1
 90 10 12 17 39 44.9980000  0  4 12 16 20 03
  22450720.107     7919772.175 5   6169782.087 1
  21863412.248   -15005117.572 6 -11475175.608 1
  20490516.420   -22336259.689 8 -16376599.371 3
  23201889.576    -7336902.226 5   -189477.017 1
 90 10 12 17 39 59.9980000  0  4 12 16 20 03
  22458302.662     7959609.584 6   6200824.095 1
  21853779.873   -15055746.084 6 -11514626.349 1
  20482991.498   -22375805.598 8 -16407414.354 3
  23194173.451    -7377422.799 5   -221051.466 1
 90 10 12 17 40 14.9980000  0  4 12 16 20 03
  22465896.459     7999519.856 6   6231922.882 1
  21844163.881   -15106284.808 6 -11554007.129 1
  20475489.576   -22415229.435 8 -16438134.213 3
  23186464.115    -7417918.488 5   -252606.526 1
 90 10 12 17 40 29.9980000  0  4 12 16 20 03
  22473497.990     8039475.219 5   6263056.784 1
  21834558.115   -15156760.808 7 -11593339.034 1
  20468004.139   -22454558.206 8 -16468779.989 3
  23178761.272    -7458416.949 5   -284163.722 1
 90 10 12 17 40 44.9980000  0  4 12 16 20 03
  22481106.561     8079466.252 5   6294218.490 1
  21824962.740   -15207182.722 7 -11632628.787 1
  20460537.256   -22493800.528 8 -16499358.403 3
  23171052.506    -7498927.013 5   -315729.997 1
 90 10 12 17 40 59.9980000  0  4 12 16 20 03
  22488727.740     8119511.302 5   6325422.305 1
  21815380.709   -15257531.314 7 -11671861.419 1
  20453089.623   -22532937.456 8 -16529854.694 3
  23163348.943    -7539430.113 5   -347290.816 1
 90 10 12 17 41 14.9980000  0  4 12 16 20 03
  22496357.193     8159606.586 5   6356665.214 1
  21805813.553   -15307809.781 6 -11711039.398 1
  20445661.373   -22571972.011 8 -16560271.222 3
  23155638.389    -7579929.664 5   -378848.879 1
 90 10 12 17 41 29.9980000  0  4 12 16 20 03
  22503998.686     8199753.613 5   6387948.476 1
  21796259.295   -15358015.714 6 -11750160.863 1
  20438253.732   -22610901.983 8 -16590606.256 4
  23147937.186    -7620423.748 5   -410402.679 1
 90 10 12 17 41 44.9980000  0  4 12 16 20 03
  22511652.764     8239961.411 5   6419279.107 1
  21786721.451   -15408139.096 7 -11789217.995 1
  20430866.475   -22649717.643 8 -16620852.217 4
  23140236.732    -7660903.039 5   -441944.979 1
 90 10 12 17 41 59.9980000  0  4 12 16 20 03
  22519312.107     8280221.904 5   6450650.766 1
  21777199.732   -15458187.304 7 -11828216.556 1
  20423500.811   -22688426.327 8 -16651014.822 4
  23132534.561    -7701374.923 5   -473481.489 1
 90 10 12 17 42 14.9980000  0  4 12 16 20 03
  22526984.404     8320527.843 5   6482057.860 1
  21767685.951   -15508167.030 7 -11867161.746 1
  20416153.115   -22727034.631 8 -16681099.215 4
  23124830.420    -7741846.641 5   -505017.868 1
 90 10 12 17 42 29.9980000  0  4 12 16 20 03
  22534664.889     8360886.473 5   6513506.019 1
  21758190.451   -15558070.098 7 -11906047.209 1
  20408827.248   -22765534.502 8 -16711099.105 4
  23117130.467    -7782310.346 5   -536548.003 1
 90 10 12 17 42 44.9980000  0  4 12 16 20 03
  22542350.623     8401293.497 5   6544991.873 1
  21748708.943   -15607899.708 7 -11944875.434 1
  20401520.076   -22803929.388 8 -16741017.195 3
  23109431.826    -7822769.862 5   -568074.886 1
 90 10 12 17 42 59.9970000  0  4 12 16 20 03
  22550053.189     8441751.442 5   6576517.423 1
  21739240.524   -15657646.758 6 -11983639.324 1
  20394237.313   -22842211.055 8 -16770847.050 3
  23101736.431    -7863217.216 5   -599592.259 1
 90 10 12 17 43 14.9970000  0  4 12 16 20 03
  22557761.681     8482262.908 5   6608084.701 1
  21729790.548   -15707319.847 7 -12022345.580 1
  20386972.095   -22880386.439 8 -16800594.087 3
  23094043.142    -7903659.833 5   -631105.985 1
 90 10 12 17 43 29.9970000  0  4 12 16 20 03
  22565475.220     8522817.432 5   6639685.455 1
  21720349.009   -15756922.532 7 -12060996.984 1
  20379728.212   -22918460.130 8 -16830261.873 3
  23086340.118    -7944102.600 5   -662619.798 1
 90 10 12 17 43 44.9970000  0  4 12 16 20 03
  22573204.431     8563417.834 5   6671321.991 1
  21710926.079   -15806451.254 6 -12099590.748 1
  20372501.267   -22956428.518 8 -16859847.610 3
  23078646.540    -7984542.345 5   -694131.243 1
 90 10 12 17 43 59.9970000  0  4 12 16 20 03
  22580942.235     8604066.662 5   6702996.280 1
  21701514.954   -15855902.795 6 -12138124.378 1
  20365298.649   -22994288.183 8 -16889348.629 3
  23070945.540    -8024976.193 5   -725638.129 1
 90 10 12 17 44 14.9970000  0  4 12 16 20 03
  22588686.228     8644775.684 5   6734717.445 1
  21692120.712   -15905264.524 6 -12176588.023 1
  20358116.962   -23032027.054 8 -16918755.528 3
  23063252.829    -8065391.963 5   -757130.902 1
 90 10 12 17 44 29.9970000  0  4 12 16 20 03
  22596437.681     8685525.617 5   6766470.491 1
  21682741.087   -15954555.012 6 -12214996.154 1
  20350954.548   -23069663.628 8 -16948082.719 3
  23055567.446    -8105808.532 5   -788624.300 1
 90 10 12 17 44 44.9970000  0  4 12 16 20 03
  22604204.313     8726318.144 5   6798256.696 1
  21673376.181   -16003771.765 6 -12253346.840 1
  20343813.267   -23107195.486 8 -16977328.317 4
  23047878.392    -8146223.974 5   -820116.799 1
 90 10 12 17 44 59.9970000  0  4 12 16 20 03
  22611974.774     8767156.472 5   6830078.628 1
  21664027.587   -16052910.781 6 -12291636.945 1
  20336690.681   -23144618.431 8 -17006489.059 4
  23040184.689    -8186634.620 5   -851605.584 1
 90 10 12 17 45 14.9970000  0  4 12 16 20 03
  22619752.212     8808036.841 5   6861933.327 1
  21654689.196   -16101974.966 6 -12329868.742 1
  20329589.696   -23181935.628 8 -17035567.397 4
  23032498.954    -8227043.930 5   -883093.337 1
 90 10 12 17 45 29.9970000  0  4 12 16 20 03
  22627539.532     8848955.806 5   6893818.071 1
  21645365.837   -16150967.021 6 -12368044.333 1
  20322506.759   -23219149.824 8 -17064565.472 4
  23024811.712    -8267454.894 5   -914582.379 1
 90 10 12 17 45 44.9970000  0  4 12 16 20 03
  22635338.649     8889920.030 5   6925738.108 1
  21636058.048   -16199879.554 6 -12406157.962 1
  20315447.657   -23256253.558 8 -17093477.465 4
  23017119.923    -8307860.343 5   -946067.138 1
 90 10 12 17 45 59.9970000  0  4 12 16 20 03
  22643144.001     8930929.459 5   6957693.368 1
  21626763.767   -16248711.755 6 -12444208.995 1
  20308407.376   -23293246.263 8 -17122302.949 3
  23009430.134    -8348260.124 5   -977547.463 1
 90 10 12 17 46 14.9970000  0  4 12 16 20 03
  22650946.962     8971978.532 4   6989679.541 1
  21617485.353   -16297468.150 6 -12482200.954 2
  20301388.892   -23330132.942 8 -17151045.811 3
  23001740.032    -8388659.510 5  -1009027.490 1
 90 10 12 17 46 29.9970000  0  4 12 16 20 03
  22658767.267     9013071.243 4   7021699.687 1
  21608224.532   -16346144.161 6 -12520130.292 1
  20294390.345   -23366908.770 8 -17179702.290 3
  22994058.985    -8429054.072 5  -1040503.733 1
 90 10 12 17 46 44.9970000  0  4 12 16 20 03
  22666598.626     9054204.495 5   7053751.428 1
  21598974.564   -16394742.359 6 -12557998.985 1
  20287412.813   -23403576.201 8 -17208274.306 3
  22986368.228    -8469446.449 5  -1071978.312 1
 90 10 12 17 46 59.9970000  0  4 12 16 20 03
  22674436.079     9095395.526 5   7085848.173 1
  21589748.353   -16443244.356 6 -12595792.716 2
  20280459.946   -23440117.104 8 -17236747.735 3
  22978692.563    -8509818.877 5  -1103437.292 1
 90 10 12 17 47 14.9970000  0  4 12 16 20 03
  22682284.587     9136621.555 5   7117972.193 1
  21580530.564   -16491672.166 6 -12633528.639 2
  20273525.610   -23476553.735 8 -17265139.913 3
  22971004.142    -8550194.012 5  -1134898.422 1
 90 10 12 17 47 29.9970000  0  4 12 16 20 03
  22690140.579     9177900.981 5   7150137.864 1
  21571335.563   -16540006.767 6 -12671191.934 2
  20266614.485   -23512866.906 8 -17293435.889 3
  22963326.188    -8590552.978 5  -1166346.942 1
 90 10 12 17 47 44.9970000  0  4 12 16 20 03
  22698001.618     9219222.805 5   7182336.507 1
  21562151.767   -16588258.215 6 -12708790.443 2
  20259726.563   -23549066.728 8 -17321643.546 4
  22955645.485    -8630906.343 5  -1197791.085 1
 90 10 12 17 47 59.9970000  0  4 12 16 20 03
  22705873.493     9260592.608 5   7214572.555 1
  21552987.899   -16636420.011 6 -12746319.090 2
  20252861.782   -23585147.004 8 -17349758.049 4
  22947966.845    -8671248.214 5  -1229226.277 1
 90 10 12 17 48 14.9970000  0  4 12 16 20 03
  22713757.923     9302010.732 5   7246846.280 1
  21543839.595   -16684491.444 6 -12783777.322 2
  20246018.946   -23621106.696 8 -17377778.586 3
  22940292.501    -8711577.810 5  -1260651.923 1
 90 10 12 17 48 29.9970000  0  4 12 16 20 03
  22721646.149     9343470.957 5   7279152.798 1
  21534706.259   -16732477.821 6 -12821169.284 2
  20239197.267   -23656951.438 8 -17405709.551 3
  22932619.384    -8751901.072 5  -1292072.614 1
 90 10 12 17 48 44.9970000  0  4 12 16 20 03
  22729543.595     9384975.933 5   7311494.192 1
  21525592.564   -16780375.600 6 -12858492.198 2
  20232398.314   -23692677.893 8 -17433548.346 3
  22924947.204    -8792215.146 5  -1323486.156 1
 90 10 12 17 48 59.9970000  0  4 12 16 20 03
  22737448.439     9426517.936 5   7343864.450 1
  21516492.946   -16828191.682 6 -12895751.459 2
  20225620.587   -23728292.953 8 -17461300.338 3
  22917273.657    -8832527.002 5  -1354898.004 1
 90 10 12 17 49 14.9970000  0  4 12 16 20 03
  22745363.485     9468098.979 5   7376265.107 1
  21507410.532   -16875923.373 6 -12932944.959 2
  20218866.056   -23763793.801 8 -17488963.330 3
  22909603.298    -8872834.387 5  -1386306.322 1
 90 10 12 17 49 29.9970000  0  4 12 16 20 03
  22753283.548     9509715.980 5   7408693.791 1
  21498343.501   -16923572.902 6 -12970074.441 2
  20212130.423   -23799182.902 8 -17516539.253 3
  22901935.157    -8913139.952 5  -1417713.231 1
 90 10 12 17 49 44.9970000  0  4 12 16 20 03
  22761210.368     9551371.741 5   7441152.684 1
  21489292.806   -16971136.670 6 -13007137.097 2
  20205418.985   -23834456.821 8 -17544025.414 3
  22894275.228    -8953440.540 5  -1449116.246 1
 90 10 12 17 49 59.9970000  0  4 12 16 20 03
  22769141.853     9593063.360 5   7473639.516 1
  21480256.993   -17018616.957 6 -13044134.703 2
  20198729.126   -23869617.791 8 -17571423.569 4
  22886600.368    -8993738.915 5  -1480517.537 1
 90 10 12 17 50 14.9970000  0  4 12 16 20 03
  22777081.720     9634789.791 5   7506153.457 1
  21471238.501   -17066013.794 7 -13081067.280 2
  20192059.095   -23904666.092 8 -17598733.936 4
  22878931.438    -9034035.492 5  -1511917.441 1
 90 10 12 17 50 29.9970000  0  4 12 16 20 03
  22785029.220     9676550.546 5   7538694.147 1
  21462233.813   -17113327.045 7 -13117934.715 2
  20185410.399   -23939601.451 8 -17625956.287 4
  22871258.657    -9074330.480 5  -1543316.105 1
 90 10 12 17 50 44.9970000  0  4 12 16 20 03
  22792982.962     9718346.975 5   7571262.622 1
  21453247.806   -17160554.473 7 -13154735.290 2
  20178785.024   -23974421.910 8 -17653089.106 4
  22863598.290    -9114622.055 5  -1574712.103 1
 90 10 12 17 50 59.9970000  0  4 12 16 20 03
  22800943.985     9760178.144 5   7603858.212 1
  21444276.306   -17207696.307 7 -13191469.154 2
  20172180.142   -24009127.703 8 -17680132.581 4
  22855930.540    -9154910.741 5  -1606105.843 1
 90 10 12 17 51 14.9970000  0  4 12 16 20 03
  22808913.649     9802046.103 5   7636482.412 1
  21435321.267   -17254749.813 7 -13228134.197 2
  20165597.595   -24043716.026 8 -17707084.517 4
  22848267.985    -9195194.380 5  -1637495.665 1
 90 10 12 17 51 29.9970000  0  4 12 16 20 03
  22816886.892     9843952.239 5   7669136.384 1
  21426385.782   -17301712.630 7 -13264728.563 2
  20159038.798   -24078184.971 8 -17733943.438 3
  22840600.423    -9235470.955 5  -1668879.979 1
 90 10 12 17 51 44.9970000  0  4 12 16 20 03
  22824866.712     9885897.118 5   7701820.556 1
  21417465.267   -17348583.342 7 -13301251.156 2
  20152501.532   -24112532.911 8 -17760708.062 3
  22832936.548    -9275739.632 5  -1700258.121 1
 90 10 12 17 51 59.9970000  0  4 12 16 20 03
  22832854.024     9927875.675 5   7734530.988 1
  21408563.579   -17395366.550 7 -13337705.564 2
  20145987.985   -24146764.373 8 -17787381.926 3
  22825274.462    -9316004.873 5  -1731633.613 1
 90 10 12 17 52 14.9970000  0  4 12 16 20 03
  22840851.532     9969888.015 5   7767267.718 1
  21399678.876   -17442061.105 7 -13374090.894 2
  20139498.032   -24180878.624 8 -17813964.447 3
  22817612.259    -9356266.383 5  -1763006.174 1
 90 10 12 17 52 29.9970000  0  4 12 16 20 03
  22848848.587    10011928.567 5   7800026.446 1
  21390809.423   -17488671.834 7 -13410410.901 2
  20133026.517   -24214880.569 8 -17840459.458 3
  22809950.157    -9396529.175 5  -1794379.762 1
 90 10 12 17 52 44.9970000  0  4 12 16 20 03
  22856853.743    10053991.392 4   7832802.523 1
  21381953.118   -17535203.733 7 -13446669.482 2
  20126577.032   -24248775.184 8 -17866870.836 3
  22802289.024    -9436798.813 5  -1825758.662 1
 90 10 12 17 52 59.9970000  0  4 12 16 20 03
  22864867.126    10096094.222 4   7865609.765 1
  21373116.876   -17581638.702 7 -13482852.539 2
  20120151.728   -24282544.069 8 -17893184.240 4
  22794626.681    -9477057.466 5  -1857129.006 1
 90 10 12 17 53 14.9970000  0  4 12 16 20 03
  22872888.446    10138231.060 4   7898443.526 1
  21364298.720   -17627981.631 7 -13518963.868 2
  20113748.767   -24316192.516 8 -17919403.804 4
  22786966.439    -9517310.417 5  -1888494.937 1
 90 10 12 17 53 29.9970000  0  4 12 16 20 03
  22880914.954    10180413.726 4   7931312.975 1
  21355499.485   -17674220.113 7 -13554993.807 2
  20107370.548   -24349708.177 8 -17945519.901 4
  22779310.548    -9557545.477 5  -1919846.874 1
 90 10 12 17 53 44.9970000  0  4 12 16 20 03
  22888944.001    10222632.182 4   7964210.305 1
  21346718.173   -17720363.386 7 -13590949.556 2
  20101015.689   -24383100.434 8 -17971539.845 4
  22771653.985    -9597772.653 5  -1951192.687 1
 90 10 12 17 53 59.9970000  0  4 12 16 20 03
  22896988.415    10264880.451 4   7997130.879 1
  21337955.360   -17766416.574 7 -13626835.112 2
  20094683.767   -24416374.592 8 -17997467.766 4
  22764000.478    -9637997.395 5  -1982536.615 1
 90 10 12 17 54 14.9970000  0  4 12 16 20 03
  22905032.735    10307158.545 5   8030074.708 1
  21329208.688   -17812378.950 7 -13662649.903 2
  20088373.978   -24449529.870 8 -18023303.055 4
  22756347.204    -9678219.342 5  -2013878.350 1
 90 10 12 17 54 29.9970000  0  4 12 16 20 03
  22913080.774    10349463.480 4   8063039.399 1
  21320479.751   -17858252.878 7 -13698395.769 2
  20082087.095   -24482568.534 8 -18049047.474 4
  22748695.743    -9718440.988 5  -2045219.837 1
 90 10 12 17 54 44.9970000  0  4 12 16 20 03
  22921145.321    10391805.452 4   8096032.977 1
  21311768.431   -17904027.299 7 -13734064.095 2
  20075825.181   -24515479.770 8 -18074692.588 3
  22741043.032    -9758651.841 5  -2076552.938 1
 90 10 12 17 54 59.9970000  0  4 12 16 20 03
  22929202.712    10434170.514 4   8129044.505 1
  21303075.938   -17949715.283 7 -13769665.070 2
  20069584.603   -24548276.891 8 -18100248.771 3
  22733387.079    -9798865.430 5  -2107888.165 1
 90 10 12 17 55 14.9970000  0  4 12 16 20 03
  22937269.493    10476564.398 5   8162078.566 1
  21294397.907   -17995310.506 7 -13805193.757 2
  20063365.134   -24580953.498 8 -18125711.041 3
  22725741.720    -9839075.673 5  -2139220.782 1
 90 10 12 17 55 29.9970000  0  4 12 16 20 03
  22945340.071    10518992.550 4   8195139.319 1
  21285741.439   -18040806.646 7 -13840645.240 2
  20057170.806   -24613503.492 8 -18151074.649 3
  22718084.774    -9879276.572 5  -2170546.125 1
 90 10 12 17 55 44.9970000  0  4 12 16 20 03
  22953421.665    10561450.653 4   8228223.413 1
  21277100.915   -18086207.029 7 -13876022.102 2
  20051001.735   -24645930.237 8 -18176342.223 3
  22710437.962    -9919472.031 5  -2201867.221 1
 90 10 12 17 55 59.9970000  0  4 12 16 20 03
  22961503.478    10603935.842 3   8261328.560 1
  21268480.556   -18131514.104 7 -13911326.260 2
  20044852.782   -24678236.034 8 -18201515.560 4
  22702790.595    -9959664.829 5  -2233186.245 1
 90 10 12 17 56 14.9970000  0  4 12 16 20 03
  22969598.423    10646448.989 3   8294455.541 1
  21259876.368   -18176726.185 7 -13946556.400 2
  20038728.446   -24710419.533 8 -18226593.604 4
  22695137.423    -9999853.603 5  -2264502.130 1
 90 10 12 17 56 29.9970000  0  4 12 16 20 03
  22977696.860    10688993.625 4   8327607.052 1
  21251290.306   -18221838.788 7 -13981709.023 2
  20032627.196   -24742476.204 8 -18251572.832 4
  22687497.220   -10040034.270 5  -2295811.724 1
 90 10 12 17 56 44.9970000  0  4 12 16 20 03
  22985798.204    10731566.997 4   8360780.981 1
  21242725.040   -18266853.928 7 -14016785.709 2
  20026551.634   -24774408.199 8 -18276454.923 4
  22679851.517   -10080209.200 5  -2327116.836 1
 90 10 12 17 56 59.9970000  0  4 12 16 20 03
  22993902.556    10774169.714 4   8393977.740 1
  21234177.892   -18311770.438 7 -14051785.536 2
  20020498.938   -24806214.305 8 -18301238.909 4
  22672202.704   -10120377.651 5  -2358416.894 1
 90 10 12 17 57 14.9970000  0  4 12 16 20 03
  23002015.790    10816796.875 4   8427193.519 1
  21225649.165   -18356592.270 7 -14086711.588 2
  20014469.681   -24837898.790 8 -18325928.125 4
  22664566.759   -10160543.902 5  -2389715.236 1
 90 10 12 17 57 29.9970000  0  4 12 16 20 03
  23010131.743    10859450.072 4   8460429.598 1
  21217137.712   -18401317.210 7 -14121562.143 2
  20008464.470   -24869459.297 8 -18350520.725 4
  22656926.220   -10200706.227 5  -2421010.514 1
 90 10 12 17 57 44.9970000  0  4 12 16 20 03
  23018248.470    10902126.992 4   8493684.196 1
  21208644.282   -18445946.448 7 -14156338.127 2
  20002482.892   -24900897.410 8 -18375017.944 3
  22649274.868   -10240866.189 5  -2452303.957 1
 90 10 12 17 57 59.9970000  0  4 12 16 20 03
  23026380.353    10944827.142 4   8526956.862 1
  21200170.853   -18490480.041 7 -14191039.580 2
  19996523.618   -24932212.919 8 -18399419.626 3
  22641639.735   -10281023.961 5  -2483595.692 1
 90 10 12 17 58 14.9970000  0  4 12 16 20 03
  23034508.829    10987548.872 4   8560246.380 1
  21191714.267   -18534918.733 7 -14225667.085 2
  19990586.696   -24963406.848 8 -18423726.567 3
  22633997.126   -10321180.789 5  -2514886.681 1
 90 10 12 17 58 29.9970000  0  4 12 16 20 03
  23042644.876    11030297.791 4   8593557.018 1
  21183276.306   -18579256.148 7 -14260215.670 2
  19984674.790   -24994472.918 8 -18447933.878 3
  22626359.329   -10361330.801 5  -2546172.368 1
 90 10 12 17 58 44.9970000  0  4 12 16 20 03
  23050777.587    11073065.933 4   8626882.635 1
  21174857.142   -18623499.438 7 -14294690.921 2
  19978785.384   -25025418.564 8 -18472047.358 3
  22618714.423   -10401481.662 5  -2577458.717 1
 90 10 12 17 58 59.9970000  0  4 12 16 20 03
  23058920.228    11115854.916 4   8660224.545 1
  21166456.267   -18667646.550 7 -14329091.219 2
  19972919.501   -25056241.426 8 -18496065.161 3
  22611075.829   -10441631.307 5  -2608744.106 1
 90 10 12 17 59 14.9970000  0  4 12 16 20 03
  23067069.189    11158670.656 4   8693587.306 1
  21158075.556   -18711690.635 7 -14363411.239 2
  19967079.751   -25086934.737 8 -18519982.031 4
  22603434.829   -10481773.328 5  -2640023.557 1
 90 10 12 17 59 29.9970000  0  4 12 16 20 03
  23075223.509    11201506.101 4   8726965.397 1
  21149712.188   -18755638.009 7 -14397655.904 2
  19961261.931   -25117504.841 8 -18543802.893 4
  22595800.743   -10521914.405 6  -2671302.282 1
 90 10 12 17 59 44.9970000  0  4 12 16 20 03
  23083381.282    11244356.459 3   8760355.112 1
  21141366.634   -18799492.741 7 -14431828.379 2
  19955468.634   -25147956.100 8 -18567531.152 4
  22588155.704   -10562059.214 5  -2702583.896 1
 90 10 12 17 59 59.9970000  0  4 12 16 20 03
  23091537.384    11287231.629 3   8793764.144 1
  21133041.485   -18843244.212 7 -14465920.400 2
  19949698.392   -25178278.044 8 -18591158.637 4
  22580525.798   -10602197.317 5  -2733860.315 1
 90 10 12 18  0 14.9970000  0  4 12 16 20 03
  23099700.532    11330122.219 3   8827185.208 1
  21124733.282   -18886901.113 7 -14499938.726 2
  19943951.524   -25208479.321 8 -18614692.097 4
  22572880.009   -10642337.815 5  -2765138.576 1
 90 10 12 18  0 29.9970000  0  4 12 16 20 03
  23107867.923    11373030.369 3   8860619.971 1
  21116445.235   -18930460.488 7 -14533881.060 2
  19938226.735   -25238557.157 8 -18638129.366 4
  22565237.524   -10682477.998 5  -2796416.605 1
 90 10 12 18  0 44.9970000  0  4 12 16 20 03
  23116034.563    11415966.455 3   8894076.497 1
  21108175.157   -18973911.066 7 -14567738.611 2
  19932529.751   -25268500.537 8 -18661461.863 4
  22557607.220   -10722607.167 5  -2827686.028 1
 90 10 12 18  0 59.9970000  0  4 12 16 20 03
  23124199.415    11458918.388 3   8927545.354 1
  21099926.024   -19017264.214 7 -14601520.252 2
  19926855.149   -25298320.851 8 -18684698.461 3
  22549967.899   -10762737.035 5  -2858956.008 1
 90 10 12 18  1 14.9970000  0  4 12 16 20 03
  23132386.228    11501886.266 4   8961026.641 1
  21091693.595   -19060519.321 7 -14635225.487 2
  19921203.306   -25328017.153 8 -18707838.429 3
  22542338.407   -10802867.036 6  -2890226.104 1
 90 10 12 18  1 29.9970000  0  4 12 16 20 03
  23140569.329    11544872.950 4   8994522.556 1
  21083482.813   -19103672.731 7 -14668851.490 2
  19915576.438   -25357585.978 8 -18730879.068 3
  22534697.478   -10842993.888 6  -2921493.729 1
 90 10 12 18  1 44.9970000  0  4 12 16 20 03
  23148746.923    11587871.923 4   9028028.056 1
  21075288.095   -19146730.014 7 -14702402.580 2
  19909973.392   -25387033.302 8 -18753825.033 3
  22527057.743   -10883123.864 5  -2952763.785 1
 90 10 12 18  1 59.9970000  0  4 12 16 20 03
  23156932.157    11630880.582 4   9061541.150 1
  21067113.884   -19189692.858 7 -14735880.088 2
  19904391.634   -25416360.992 8 -18776677.777 3
  22519424.751   -10923259.086 5  -2984037.927 1
 90 10 12 18  2 14.9970000  0  4 12 16 20 03
  23165116.196    11673910.157 4   9095070.525 1
  21058958.196   -19232549.631 7 -14769274.934 2
  19898836.688   -25445557.137 8 -18799428.011 3
  22511788.126   -10963387.910 5  -3015307.093 1
 90 10 12 18  2 29.9970000  0  4 12 16 20 03
  23173312.360    11716951.239 4   9128608.854 1
  21050821.165   -19275308.874 7 -14802593.792 2
  19893303.704   -25474630.734 8 -18822082.758 4
  22504154.142   -11003519.426 6  -3046578.346 1
 90 10 12 18  2 44.9970000  0  4 12 16 20 03
  23181508.056    11760008.598 4   9162159.838 1
  21042704.720   -19317965.127 7 -14835832.391 2
  19887795.923   -25503575.968 8 -18844637.478 4
  22496512.829   -11043648.383 5  -3077847.621 1
 90 10 12 18  2 59.9970000  0  4 12 16 20 03
  23189699.774    11803079.923 4   9195721.748 1
  21034605.946   -19360519.963 7 -14868991.967 2
  19882312.470   -25532394.570 8 -18867093.521 4
  22488877.673   -11083776.719 5  -3109116.417 1
 90 10 12 18  3 14.9970000  0  4 12 16 20 03
  23197898.110    11846164.170 4   9229293.671 1
  21026526.860   -19402973.600 7 -14902072.682 2
  19876852.884   -25561087.070 8 -18889451.310 4
  22481240.571   -11123905.211 5  -3140385.348 1
 90 10 12 18  3 29.9970000  0  4 12 16 20 03
  23206103.314    11889260.682 4   9262875.167 1
  21018469.689   -19445325.987 7 -14935074.506 2
  19871416.337   -25589653.476 8 -18911710.845 4
  22473605.251   -11164033.960 5  -3171654.468 1
 90 10 12 18  3 44.9970000  0  4 12 16 20 03
  23214303.978    11932362.601 4   9296460.888 1
  21010427.251   -19487583.364 7 -14968002.299 2
  19866002.478   -25618100.054 8 -18933877.007 4
  22465970.478   -11204169.493 6  -3202928.859 1
 90 10 12 18  3 59.9970000  0  4 12 16 20 03
  23222505.579    11975476.650 4   9330056.088 1
  21002404.321   -19529738.066 7 -15000850.088 2
  19860613.618   -25646419.236 8 -18955943.897 4
  22458331.735   -11244304.858 6  -3234203.137 1
 90 10 12 18  4 14.9970000  0  4 12 16 20 03
  23230713.235    12018606.342 4   9363663.450 1
  20994401.782   -19571786.121 7 -15033614.779 2
  19855249.798   -25674607.167 8 -18977908.512 3
  22450695.220   -11284435.907 5  -3265474.076 1
 90 10 12 18  4 29.9970000  0  4 12 16 20 03
  23238925.251    12061745.627 3   9397278.247 1
  20986420.532   -19613732.548 7 -15066300.272 2
  19849910.353   -25702669.053 8 -18999774.913 3
  22443058.251   -11324568.578 5  -3296746.237 1
 90 10 12 18  4 44.9970000  0  4 12 16 20 03
  23247138.345    12104900.998 4   9430905.630 1
  20978458.634   -19655570.282 7 -15098901.070 2
  19844595.017   -25730597.720 8 -19021537.504 3
  22435418.345   -11364695.690 5  -3328014.081 1
 90 10 12 18  4 59.9970000  0  4 12 16 20 03
  23255350.587    12148071.277 3   9464544.644 1
  20970518.103   -19697299.810 7 -15131417.554 2
  19839306.415   -25758393.916 8 -19043196.868 3
  22427786.439   -11404818.278 5  -3359278.400 1
 90 10 12 18  5 14.9970000  0  4 12 16 20 03
  23263566.884    12191246.541 3   9498187.517 1
  20962597.548   -19738930.368 7 -15163856.919 2
  19834040.157   -25786066.671 8 -19064760.041 4
  22420148.173   -11444945.781 5  -3390546.552 1
 90 10 12 18  5 29.9970000  0  4 12 16 20 03
  23271786.899    12234435.092 3   9531840.751 1
  20954695.376   -19780452.760 7 -15196211.999 2
  19828798.829   -25813607.256 8 -19086220.229 4
  22412512.681   -11485069.483 5  -3421811.757 1
 90 10 12 18  5 44.9970000  0  4 12 16 20 03
  23280003.321    12277631.871 3   9565500.366 1
  20946813.415   -19821871.368 7 -15228486.216 2
  19823582.220   -25841020.033 8 -19107580.838 4
  22404878.970   -11525194.106 5  -3453077.659 1
 90 10 12 18  5 59.9970000  0  4 12 16 20 03
  23288230.493    12320845.240 3   9599172.942 1
  20938954.485   -19863177.192 7 -15260672.538 2
  19818391.446   -25868296.124 8 -19128834.932 4
  22397246.649   -11565310.767 5  -3484337.346 1
 90 10 12 18  6 14.9970000  0  4 12 16 20 03
  23296455.548    12364070.763 4   9632854.976 1
  20931113.899   -19904373.823 7 -15292773.789 2
  19813226.548   -25895438.978 8 -19149985.211 4
  22389610.642   -11605423.660 5  -3515594.111 1
 90 10 12 18  6 29.9970000  0  4 12 16 20 03
  23304684.017    12407306.307 4   9666544.841 1
  20923295.228   -19945462.567 7 -15324790.959 2
  19808086.563   -25922450.092 8 -19171032.837 4
  22381978.415   -11645534.298 5  -3546849.129 1
 90 10 12 18  6 44.9970000  0  4 12 16 20 03
  23312913.040    12450549.363 4   9700240.513 1
  20915496.259   -19986445.368 7 -15356725.574 2
  19802971.353   -25949331.602 8 -19191979.475 4
  22374342.704   -11685645.027 5  -3578104.195 1
 90 10 12 18  6 59.9970000  0  4 12 16 20 03
  23321147.321    12493806.524 4   9733947.206 1
  20907719.564   -20027314.982 7 -15388572.003 2
  19797881.774   -25976076.217 8 -19212819.435 4
  22366713.665   -11725748.878 6  -3609353.936 1
 90 10 12 18  7 14.9970000  0  4 12 16 20 03
  23329373.501    12537069.590 4   9767658.452 1
  20899962.228   -20068078.854 7 -15420336.035 2
  19792816.290   -26002691.524 8 -19233558.632 3
  22359082.970   -11765853.639 5  -3640604.372 1
 90 10 12 18  7 29.9970000  0  4 12 16 20 03
  23337608.657    12580329.144 3   9801367.003 1
  20892222.415   -20108745.541 7 -15452024.330 2
  19787775.462   -26029186.224 8 -19254203.846 3
  22351451.360   -11805968.080 5  -3671862.355 1
 90 10 12 18  7 44.9970000  0  4 12 16 20 03
  23345838.868    12623592.897 3   9835078.826 1
  20884505.751   -20149306.682 7 -15483630.385 2
  19782758.228   -26055551.993 8 -19274748.591 3
  22343813.665   -11846084.236 5  -3703121.672 1
 90 10 12 18  7 59.9970000  0  4 12 16 20 03
  23354077.056    12666862.688 3   9868795.344 1
  20876806.298   -20189759.738 7 -15515152.214 2
  19777766.509   -26081786.598 8 -19295191.134 3
  22336178.806   -11886200.028 5  -3734380.701 1
 90 10 12 18  8 14.9970000  0  4 12 16 20 03
  23362314.868    12710135.908 3   9902514.532 1
  20869128.126   -20230106.855 7 -15546591.501 2
  19772797.446   -26107891.886 8 -19315532.912 3
  22328548.813   -11926317.583 6  -3765641.099 1
 90 10 12 18  8 29.9970000  0  4 12 16 20 03
  23370547.493    12753414.142 3   9936237.656 1
  20861472.017   -20270345.301 7
  19767855.235   -26133865.706 8 -19335772.253 4
  22320912.360   -11966434.978 6
 90 10 12 18  8 44.9970000  0  4 12 16 20 03
  23378782.790    12796697.008 3   9969964.358 1
  20853833.681   -20310475.074 7
  19762937.290   -26159707.699 8 -19355908.871 4
  22313279.845   -12006552.212 6
 90 10 12 18  8 59.9970000  0  4 12 16 20 03
  23387022.001    12839984.600 3  10003694.740 1
  20846219.868   -20350495.177 7 -15640400.488 2
  19758045.493   -26185417.127 8 -19375942.200 4
  22305641.790   -12046668.678 5  -3859421.124 1
 90 10 12 18  9 14.9970000  0  4 12 16 20 03
  23395260.876    12883276.503 3  10037428.485 1
  20838625.462   -20390405.431 7 -15671499.355 2
  19753178.196   -26210993.956 8 -19395872.199 4
  22298012.485   -12086784.605 6  -3890680.254 1
 90 10 12 18  9 29.9970000  0  4 12 16 20 03
  23403493.532    12926574.911 3  10071167.305 1
  20831051.798   -20430202.919 7 -15702510.353 2
  19748336.274   -26236435.318 8 -19415696.644 4
  22290371.220   -12126897.107 5  -3921936.747 1
 90 10 12 18  9 44.9970000  0  4 12 16 20 03
  23411734.501    12969872.286 3  10104905.328 1
  20823499.462   -20469894.452 7 -15733438.793 2
  19743519.860   -26261748.073 8 -19435420.867 4
  22282745.431   -12167013.455 5  -3953196.204 1
 90 10 12 18  9 59.9970000  0  4 12 16 20 03
  23419985.079    13013171.617 3  10138644.883 1
  20815967.501   -20509476.039 7 -15764281.556 2
  19738729.282   -26286928.701 8 -19455042.132 4
  22275112.595   -12207130.198 5  -3984455.989 1
 90 10 12 18 10 14.9970000  0  4 12 16 20 03
  23428217.134    13056471.094 3  10172384.502 1
  20808455.321   -20548948.980 7 -15795039.667 2
  19733962.048   -26311978.250 8 -19474561.260 4
  22267472.478   -12247248.791 6  -4015717.207 1
 90 10 12 18 10 29.9970000  0  4 12 16 20 03
  23436453.548    13099772.965 2  10206126.005 1
  20800964.267   -20588310.507 7 -15825710.962 2
  19729220.470   -26336893.995 8 -19493976.121 4
  22259843.181   -12287366.699 6  -4046977.901 1
 90 10 12 18 10 44.9970000  0  4 12 16 20 03
  23444696.329    13143079.805 2  10239871.392 1
  20793497.212   -20627557.371 7 -15856292.906 2
  19724505.235   -26361672.662 8 -19513284.163 3
  22252207.212   -12327480.850 6  -4078235.659 1
 90 10 12 18 10 59.9970000  0  4 12 16 20 03
  23452941.392    13186393.252 3  10273621.933 1
  20786048.985   -20666686.931 7 -15886783.445 2
  19719816.454   -26386312.147 8 -19532483.760 3
  22244572.728   -12367589.467 6  -4109489.108 1
 90 10 12 18 11 14.9970000  0  4 12 16 20 03
  23461186.603    13229707.847 3  10307373.372 1
  20778626.071   -20705704.157 7 -15917186.451 2
  19715152.571   -26410817.213 8 -19551578.613 4
  22236943.345   -12407697.332 6  -4140741.971 1
 90 10 12 18 11 29.9970000  0  4 12 16 20 03
  23469417.626    13273018.860 2
  20771222.228   -20744613.099 7 -15947505.075 2
  19710514.009   -26435192.079 8 -19570572.012 4
  22229312.196   -12447808.695 6  -4171997.550 1
 90 10 12 18 11 44.9970000  0  4 12 16 20 03
  23477663.056    13316331.888 2
  20763839.243   -20783407.533 7 -15977734.473 2
  19705902.517   -26459430.607 8 -19589459.183 3
  22221676.509   -12487917.959 6  -4203251.500 1
 90 10 12 18 11 59.9970000  0  4 12 16 20 03
  23485907.290    13359645.435 2
  20756479.345   -20822088.054 7 -16007875.110 2
  19701315.688   -26483533.168 8 -19608240.402 4
  22214045.610   -12528025.847 6  -4234504.375 1
 90 10 12 18 12 14.9970000  0  4 12 16 20 03
  23494156.181    13402960.749 2
  20749139.634   -20860652.681 7 -16037925.436 2
  19696755.462   -26507498.320 8 -19626914.549 4
  22206411.087   -12568130.795 6  -4265754.957 1
 90 10 12 18 12 29.9970000  0  4 12 16 20 03
  23502393.595    13446276.392 3
  20741823.618   -20899102.120 7 -16067886.011 2
  19692220.774   -26531327.069 8 -19645482.400 4
  22198780.337   -12608234.012 6  -4297004.207 1
 90 10 12 18 12 44.9970000  0  4 12 16 20 03
  23510638.673    13489588.644 3
  20734527.384   -20937439.728 7 -16097759.441 2
  19687712.751   -26555022.355 8 -19663946.258 4
  22191147.704   -12648338.643 6  -4328254.536 1
 90 10 12 18 12 59.9970000  0  4 12 16 20 03
  23518881.087    13532897.030 3
  20727253.032   -20975664.877 7 -16127545.242 2
  19683228.923   -26578583.917 8 -19682305.916 4
  22183519.978   -12688444.809 5  -4359506.065 1
 90 10 12 18 13 14.9970000  0  4 12 16 20 03
  23527121.884    13576198.522 3
  20719999.689   -21013779.973 7 -16157245.294 2
  19678770.282   -26602014.174 8 -19700563.255 4
  22175885.618   -12728555.081 6  -4390760.799 1
 90 10 12 18 13 29.9970000  0  4 12 16 20 03
  23535357.243    13619495.867 3
  20712768.860   -21051781.958 7 -16186857.206 2
  19674337.392   -26625310.145 8 -19718715.955 4
  22168251.392   -12768666.467 6  -4422016.397 1
 90 10 12 18 13 44.9970000  0  4 12 16 20 03
  23543594.876    13662793.066 3
  20705559.665   -21089665.972 7 -16216377.182 2
  19669929.837   -26648466.962 8 -19736760.230 4
  22160622.079   -12808774.516 6  -4453269.396 1
 90 10 12 18 13 59.9970000  0  4 12 16 20 03
  23551837.438    13706088.036 3
  20698371.946   -21127433.213 7 -16245806.172 2
  19665550.188   -26671486.104 8 -19754697.227 4
  22152985.423   -12848880.787 6  -4484521.011 1
 90 10 12 18 14 14.9970000  0  4 12 16 20 03
  23560074.821    13749384.977 4
  20691207.493   -21165078.798 7 -16275140.360 2
  19661196.235   -26694362.731 8 -19772523.177 3
  22145359.259   -12888980.796 6  -4515767.748 1
 90 10 12 18 14 29.9970000  0  4 12 16 20 03
  23568316.634    13792677.729 4
  20684067.009   -21202608.383 7 -16304384.157 2
  19656869.415   -26717102.525 8 -19790242.507 4
  22137730.938   -12929080.286 6  -4547014.076 1
 90 10 12 18 14 44.9970000  0  4 12 16 20 03
  23576549.837    13835966.304 3        -0.06711
  20676948.282   -21240021.316 7 -16333537.057 2
  19652567.470   -26739705.113 8 -19807854.922 3
  22130093.392   -12969179.033 6  -4578259.830 1
 90 10 12 18 14 59.9970000  0  4 12 16 20 03
  23584792.282    13879251.384 3     33728.334 1
  20669852.595   -21277316.260 7 -16362598.024 2
  19648294.048   -26762169.203 8 -19825359.406 4
  22122465.712   -13009275.836 6  -4609504.065 1
 90 10 12 18 15 14.9970000  0  4 12 16 20 03
  23593025.962    13922534.968 3     67455.576 1
  20662776.532   -21314490.670 7 -16391565.063 2
  19644045.517   -26784492.154 8 -19842753.918 3
  22114836.212   -13049368.406 6  -4640745.010 1
 90 10 12 18 15 29.9970000  0  4 12 16 20 03
  23601263.790    13965812.856 3    101178.341 1
  20655725.173   -21351547.616 7 -16420440.574 2
  19639822.899   -26806677.482 8 -19860041.187 4
  22107208.704   -13089460.335 6  -4671985.430 1
 90 10 12 18 15 44.9970000  0  4 12 16 20 03
  23609497.509    14009087.102 3    134898.321 1
  20648695.306   -21388484.483 7 -16449222.524 2
  19635628.688   -26828722.487 8 -19877219.112 4
  22099580.024   -13129549.220 6  -4703223.500 1
 90 10 12 18 15 59.9970000  0  4 12 16 20 03
  23617732.571    14052356.286 4    168614.375 1
  20641689.978   -21425302.253 7 -16477911.662 2
  19631460.774   -26850628.093 8 -19894288.419 4
  22091949.134   -13169636.217 6  -4734460.096 1
 90 10 12 18 16 14.9970000  0  4 12 16 20 03
  23625963.579    14095618.922 4
  20634706.470   -21462001.485 7 -16506508.437 2
  19627318.298   -26872395.128 8 -19911249.750 4
  22084321.017   -13209722.121 6  -4765695.834 1
 90 10 12 18 16 29.9970000  0  4 12 16 20 03
  23634173.712    14138735.695 4
  20627719.454   -21498721.150 7 -16535121.135 2
  19623175.204   -26894162.605 8 -19928211.427 4
  22076668.915   -13249946.062 6  -4797039.150 1
 90 10 12 18 16 44.9970000  0  4 12 16 20 03
  23642356.462    14181746.371 3
  20620735.634   -21535420.745 7 -16563718.189 2
  19619041.290   -26915890.063 8 -19945141.922 4
  22068994.821   -13290267.939 6  -4828458.769 1
 90 10 12 18 16 59.9970000  0  4 12 16 20 03
  23650539.720    14224747.778 3
  20613772.704   -21572002.446 7 -16592223.389 2
  19614932.829   -26937480.003 7 -19961965.265 4
  22061321.306   -13330590.677 6  -4859879.053 1
 90 10 12 18 17 14.9970000  0  4 12 16 20 03
  23658723.407    14267745.895 3
  20606836.532   -21608459.875 7 -16620631.751 2
  19610851.446   -26958926.023 7 -19978676.467 4
  22053650.454   -13370907.611 6  -4891294.825 1
 90 10 12 18 17 29.9970000  0  4 12 16 20 03
  23666903.251    14310731.779 3
  20599920.946   -21644801.251 7 -16648949.686 2
  19606795.876   -26980236.520 7 -19995282.067 4
  22045977.368   -13411227.323 6  -4922712.750 1
 90 10 12 18 17 44.9970000  0  4 12 16 20 03
  23675078.743    14353710.282 3
  20593028.735   -21681021.111 7 -16677172.932 2
  19602768.126   -27001405.951 8 -20011777.737 4
  22038301.806   -13451544.575 6  -4954128.772 1
 90 10 12 18 17 59.9970000  0  4 12 16 20 03
  23683255.204    14396679.905 3
  20586157.493   -21717120.288 7 -16705302.127 2
  19598766.274   -27022435.390 8 -20028164.317 4
  22030632.298   -13491860.553 6  -4985543.790 1
 90 10 12 18 18 14.9970000  0  4 12 16 20 03
  23691429.735    14439636.316 3
  20579310.532   -21753102.516 7 -16733340.197 2
  19594791.587   -27043328.562 8 -20044444.714 3
  22022962.610   -13532179.341 6  -5016961.002 1
 90 10 12 18 18 29.9970000  0  4 12 16 20 03
  23699596.017    14482579.890 2
  20572487.485   -21788966.540 7 -16761286.160 2
  19590841.048   -27064084.452 8 -20060618.130 3
  22015287.759   -13572499.864 6  -5048379.557 1
 90 10 12 18 18 44.9970000  0  4 12 16 20 03
  23707764.228    14525511.004 1
  20565684.470   -21824711.469 7 -16789139.321 3
  19586917.110   -27084702.190 8 -20076683.899 3
  22007617.274   -13612821.343 6  -5079798.864 1
 90 10 12 18 18 59.9970000  0  4 12 16 20 03
  23715939.954    14568430.663 1        -0.24711
  20558905.720   -21860335.839 7 -16816898.538 2
  19583021.048   -27105180.211 8 -20092640.793 3
  21999942.720   -13653142.753 5  -5111218.131 1
 90 10 12 18 19 14.9970000  0  4 12 16 20 03
  23724103.024    14611335.644 2     33431.965 1
  20552147.954   -21895841.739 7 -16844565.440 3
  19579150.290   -27125521.029 8 -20108490.780 3
  21992269.532   -13693466.399 6  -5142639.125 1
 90 10 12 18 19 29.9970000  0  4 12 16 20 03
  23732266.298    14654232.835 2     66858.080 1
  20545416.376   -21931221.808 7 -16872134.292 3
  19575306.821   -27145717.388 8 -20124228.201 3
  21984595.688   -13733785.204 6  -5174056.349 1
 90 10 12 18 19 44.9970000  0  4 12 16 20 03
  23740430.704    14697114.755 3    100272.318 1
  20538707.157   -21966483.018 7 -16899610.528 3
  19571489.228   -27165776.231 8 -20139858.476 3
  21976918.493   -13774106.251 6  -5205475.314 1
 90 10 12 18 19 59.9970000  0  4 12 16 20 03
  23748586.978    14739983.140 3    133676.006 1
  20532020.063   -22001622.871 7 -16926992.205 3
  19567698.751   -27185694.991 7 -20155379.597 3
  21969251.587   -13814427.440 6  -5236894.391 1
 90 10 12 18 20 14.9970000  0  4 12 16 20 03
  23756741.696    14782838.080 2    167069.201 1
  20525356.907   -22036640.736 7 -16954278.825 3
  19563934.626   -27205473.347 7 -20170791.320 3
  21961578.228   -13854748.380 6  -5268313.278 1
 90 10 12 18 20 29.9970000  0  4 12 16 20 03
  23764894.235    14825678.253 2    200450.858 1
  20518714.892   -22071537.449 7 -16981471.040 3
  19560198.931   -27225112.208 8 -20186094.338 3
  21953906.446   -13895069.923 6  -5299732.630 1
 90 10 12 18 20 44.9970000  0  4 12 16 20 03
  23773047.353    14868504.525 2
  20512099.087   -22106311.196 7 -17008567.441 3
  19556487.728   -27244609.968 8 -20201287.407 4
  21946234.353   -13935390.868 6  -5331151.521 1
 90 10 12 18 20 59.9970000  0  4 12 16 20 03
  23781191.696    14911320.686 1
  20505505.048   -22140957.453 7 -17035564.496 3
  19552806.313   -27263962.111 8 -20216367.007 3
  21938559.548   -13975706.910 6  -5362566.591 1
 90 10 12 18 21 14.9970000  0  4 12 16 20 03
  23789343.423    14954123.091 2
  20498936.438   -22175479.415 7 -17062464.697 3
  19549150.439   -27283172.052 8 -20231335.794 3
  21930891.321   -14016021.209 6  -5393980.309 1
 90 10 12 18 21 29.9970000  0  4 12 16 20 03
  23797477.892    14996909.005 2
  20492388.735   -22209879.354 7 -17089269.812 3
  19545521.712   -27302241.982 8 -20246195.481 3
  21923218.993   -14056336.331 6  -5425394.672 1
 90 10 12 18 21 44.9970000  0  4 12 16 20 03
  23805614.126    15039676.011 1
  20485865.399   -22244158.802 7 -17115981.033 3
  19541918.478   -27321173.835 8 -20260947.576 3
  21915544.165   -14096654.194 6  -5456811.157 1
